GFSGBSN_sfc_30mbdewp_000.txt.gz
Dewpoint
57 56 55 55 53 51 49 50 50 49 49 49 48 49 49 50 50 50 50 51 51 52 52 53 53 53 51 45 42 42 47 45 51 51 51 54 48 44 43 43 42 40 40 41 41 41 41
56 55 56 55 54 53 52 50 50 50 50 50 50 49 49 50 50 50 50 50 51 52 52 52 53 53 47 39 43 44 44 43 49 50 51 54 50 44 43 42 42 42 42 41 41 40 37
56 55 56 54 54 54 53 50 50 50 51 50 50 50 50 49 49 50 50 50 50 52 52 52 52 50 46 41 43 45 45 41 44 50 49 55 55 44 44 43 43 42 41 40 39 37 36
57 55 54 54 53 53 53 51 50 50 51 50 51 51 51 50 50 50 50 50 50 51 52 52 51 48 41 45 45 43 44 45 45 51 51 57 56 47 44 42 38 39 35 37 36 33 33
56 56 54 54 54 53 54 53 50 50 50 50 50 50 50 51 52 53 52 52 51 51 50 50 48 45 39 45 43 45 43 43 48 50 53 56 52 47 45 40 35 32 34 33 33 31 31
55 56 56 55 54 54 53 54 51 50 50 50 50 50 48 50 52 53 53 51 51 49 49 47 46 40 40 40 43 43 44 42 47 48 49 53 49 45 44 41 36 34 32 32 31 30 29
55 55 55 56 55 55 53 54 52 50 50 50 51 51 50 51 51 54 54 50 42 40 43 40 39 38 40 40 45 43 43 41 45 46 43 49 45 42 42 42 39 37 32 33 31 28 27
54 54 54 55 55 54 53 52 52 50 50 51 52 52 52 51 53 55 52 42 39 41 37 41 43 40 41 44 42 41 41 42 43 34 43 46 41 43 43 42 41 36 32 31 31 30 28
54 54 54 54 55 54 53 52 52 50 50 50 52 52 53 53 54 54 47 42 50 44 37 40 40 41 41 41 40 40 41 42 40 31 41 39 43 43 43 39 39 36 35 35 34 31 29
55 55 55 55 55 55 54 53 52 51 51 52 52 52 52 53 51 51 47 49 51 44 32 35 37 38 41 42 38 43 41 42 40 33 40 43 45 44 42 41 40 39 35 34 31 29 25
56 56 56 56 55 56 55 55 53 52 52 53 53 52 53 54 50 48 50 51 51 47 20 33 37 41 42 39 40 42 41 40 40 37 41 41 43 44 42 41 42 40 36 35 31 27 25
55 56 56 56 55 55 56 56 55 54 53 53 53 52 52 52 52 52 53 51 46 31 21 33 37 35 37 37 39 42 42 45 43 38 41 39 44 44 44 43 40 37 32 28 27 25 24
56 56 57 56 56 56 55 56 56 54 53 53 52 52 52 53 48 54 51 45 30 25 34 32 32 35 35 35 38 39 38 39 37 34 35 36 42 41 42 38 32 33 32 29 24 24 23
56 56 55 55 55 56 56 56 55 55 54 54 53 52 52 52 54 52 48 36 26 33 31 35 36 34 33 34 37 37 40 39 42 34 34 33 33 35 31 38 36 33 31 25 20 21 21
56 55 56 55 55 56 56 55 55 55 55 54 52 49 50 52 54 51 40 30 31 34 37 36 35 31 34 34 39 39 37 38 40 35 31 34 33 28 27 29 38 29 28 28 26 26 25
56 55 55 54 54 55 56 55 55 55 54 53 47 46 47 52 54 48 37 33 38 40 39 35 31 34 33 34 38 37 38 40 40 37 34 30 27 28 24 24 23 26 28 25 26 23 23
55 54 54 54 54 55 56 55 55 55 54 52 46 43 50 53 52 44 34 34 41 40 39 36 36 35 35 34 38 36 37 39 38 35 32 28 26 28 24 25 26 24 24 25 26 25 21
54 54 54 55 54 54 55 54 54 54 53 48 45 41 51 52 42 42 37 44 41 41 45 42 39 37 36 36 36 37 37 37 38 38 33 32 28 25 25 30 27 24 23 24 23 22 22
54 54 54 54 53 53 54 54 53 54 52 44 40 45 51 50 40 41 44 42 41 41 42 42 37 36 34 34 36 38 40 40 40 37 35 34 30 28 30 30 32 27 25 23 24 24 21
54 54 54 54 53 53 53 54 52 54 53 46 42 39 45 47 46 41 41 40 41 46 45 42 37 37 34 36 38 37 39 39 40 38 39 35 31 27 27 27 29 28 27 24 24 23 23
54 53 54 54 53 52 53 53 52 53 53 47 41 36 40 38 40 39 40 42 41 41 43 40 39 35 34 35 36 37 36 36 36 37 35 32 29 28 26 29 30 28 27 26 24 25 24
54 53 53 53 53 53 53 52 51 53 51 45 38 36 37 35 34 34 35 38 37 36 38 38 38 38 36 36 35 36 36 36 35 34 32 30 26 24 22 22 22 26 28 27 26 25 24
53 53 53 53 53 52 52 52 52 52 49 42 41 41 35 34 31 31 34 36 35 35 35 38 38 37 32 34 33 36 34 34 34 31 29 25 24 23 22 22 21 18 20 29 27 27 27
53 53 52 52 52 51 51 52 53 52 48 43 42 41 33 29 30 29 31 32 33 33 34 33 32 35 30 30 31 30 31 31 30 28 27 23 22 20 17 22 16 19 29 23 25 25 26
53 52 52 52 51 50 51 52 53 52 50 43 44 40 32 28 30 30 30 31 29 30 30 30 29 32 32 28 32 35 28 26 28 28 27 25 23 21 16 16 21 28 27 28 25 30 33
54 53 52 52 51 50 51 53 53 52 50 43 44 44 35 29 29 30 28 28 28 27 26 27 29 32 30 30 27 34 31 31 23 26 27 28 27 21 25 18 12 24 29 30 31 27 33
54 53 52 51 50 50 52 53 53 52 50 47 44 46 40 31 37 32 27 28 29 28 26 25 27 27 32 31 28 24 23 27 20 19 22 24 25 21 26 24 26 29 31 30 26 26 34
53 53 52 50 50 51 52 52 52 52 51 49 46 46 44 37 40 41 38 32 32 31 25 26 28 29 29 29 29 30 29 28 28 28 24 20 20 24 27 25 22 31 32 28 30 32 31
51 53 51 49 49 51 52 52 52 52 51 49 45 46 46 40 42 45 44 42 39 38 31 31 33 30 30 31 32 31 30 29 29 26 31 25 26 26 27 27 33 33 32 33 32 31 32

GFSGBSN_sfc_30mbdewp_003.txt.gz
Dewpoint
58 56 56 57 55 54 53 51 50 50 50 50 49 49 49 49 50 50 50 50 51 52 53 53 54 54 52 47 43 45 48 45 48 52 50 51 52 47 46 45 42 40 40 41 41 41 42
57 56 56 57 56 55 55 53 50 50 50 50 50 50 50 49 49 50 50 51 50 51 53 53 53 53 47 40 43 45 44 43 42 50 50 51 51 46 46 44 44 43 42 41 42 42 40
55 56 55 55 55 54 55 54 51 50 50 51 50 50 51 51 51 50 50 50 50 51 53 53 53 51 45 42 44 44 45 44 43 48 49 51 54 45 45 44 44 43 41 42 41 40 40
54 55 56 55 54 54 54 54 52 50 50 51 51 51 52 51 51 51 51 51 51 51 52 52 50 48 41 45 46 44 43 43 45 47 50 51 54 50 44 43 42 42 40 39 40 35 35
54 54 56 56 55 55 54 53 54 52 50 50 51 51 52 51 51 52 53 53 52 51 52 50 48 45 39 45 44 44 42 41 45 51 52 51 54 49 45 40 39 38 38 37 38 37 36
53 54 55 56 55 55 55 53 54 52 50 50 50 52 52 50 50 51 53 54 52 51 49 48 46 41 42 41 43 44 44 41 44 49 48 49 51 46 44 41 37 35 36 33 33 32 30
53 53 54 55 55 55 55 54 53 53 50 50 51 52 52 51 51 52 52 52 45 43 43 38 38 37 40 40 44 43 43 40 42 47 39 45 44 42 42 43 39 35 33 32 35 32 29
53 53 53 54 55 55 54 54 52 52 50 50 51 52 53 53 52 52 53 44 41 39 36 41 41 40 41 44 41 42 41 38 41 38 39 41 41 44 43 43 39 37 35 34 33 31 30
53 54 54 54 55 55 55 54 52 51 51 50 51 52 52 51 52 53 50 46 46 44 36 39 39 41 41 40 39 40 40 38 40 34 36 37 42 43 42 43 41 37 36 34 35 33 30
54 54 55 55 55 55 55 55 53 52 51 52 53 53 52 51 51 51 47 51 48 45 30 34 37 37 41 41 36 42 41 39 39 32 33 41 43 42 42 41 41 38 35 36 34 36 33
53 54 55 55 55 55 55 55 55 54 52 52 53 53 52 51 50 47 49 51 49 42 19 34 36 40 41 35 37 40 42 39 37 33 35 40 41 41 41 41 41 39 39 39 35 32 26
53 55 56 55 55 55 55 55 56 56 54 54 53 52 52 51 51 51 52 51 46 29 20 33 37 37 37 37 35 41 39 42 41 34 33 42 44 44 42 42 42 33 34 34 28 26 25
53 55 56 56 55 55 55 55 55 56 55 54 53 52 51 51 48 53 51 44 29 24 34 32 33 36 33 33 34 37 35 36 36 31 31 40 43 45 47 38 36 35 37 32 29 26 25
54 55 54 55 55 55 55 55 55 56 55 55 53 52 51 50 53 51 46 36 25 30 29 34 33 34 31 32 36 35 34 32 39 37 31 34 34 40 44 41 37 38 37 31 25 22 22
53 55 55 55 55 55 55 55 56 55 55 55 52 47 48 50 53 50 39 29 28 33 32 33 32 29 30 32 35 35 34 31 37 39 28 31 34 36 39 36 38 35 36 31 26 26 25
53 53 54 55 54 55 55 55 55 55 55 54 46 45 46 51 51 45 34 32 35 38 36 31 26 29 26 30 33 31 34 34 37 39 37 35 29 33 25 33 28 35 33 33 26 23 21
53 53 54 55 54 54 55 55 55 54 55 52 47 42 49 53 49 42 32 33 38 42 34 29 31 33 29 31 33 34 32 39 41 39 37 30 29 28 24 26 29 31 34 31 26 26 23
51 52 54 54 54 54 54 54 54 54 52 49 44 40 51 51 40 39 36 37 41 38 39 37 36 37 35 32 32 34 36 37 43 40 33 28 29 26 25 29 28 26 30 29 24 23 23
53 52 53 53 53 53 53 54 54 53 52 43 40 44 52 50 37 38 40 41 43 39 40 40 36 36 36 35 36 37 39 39 41 38 34 31 29 27 27 29 31 28 25 25 25 24 22
52 54 53 53 53 53 52 53 53 52 53 45 41 40 45 46 45 42 41 40 40 44 42 43 36 36 35 35 37 37 38 39 40 38 38 33 30 29 27 28 28 27 26 24 24 23 22
49 54 53 53 53 53 52 52 53 52 53 46 41 38 43 38 40 41 43 41 40 40 44 44 40 35 35 35 37 37 40 37 38 40 37 33 28 28 27 29 28 27 27 24 24 24 23
48 53 53 52 53 53 52 52 52 51 52 45 39 36 38 36 35 41 40 42 39 41 42 40 38 35 36 36 37 37 37 37 35 34 35 32 28 24 23 27 27 27 28 26 25 25 25
47 50 54 53 53 53 52 51 51 52 49 43 41 41 36 33 31 33 35 40 40 40 41 36 37 34 35 35 36 38 37 37 36 32 30 32 26 24 26 22 21 23 24 28 27 27 26
47 48 53 53 53 52 51 51 51 52 48 42 41 40 34 30 31 31 31 38 40 36 39 31 33 32 30 33 32 31 31 31 34 29 27 33 32 24 20 20 19 23 28 27 28 25 25
46 48 51 54 52 51 50 50 51 52 51 45 42 41 33 26 30 30 31 34 34 33 31 30 31 32 30 29 33 32 29 29 28 29 26 29 26 26 19 18 20 26 27 24 26 26 29
46 47 49 54 52 51 50 50 51 52 52 45 42 43 34 29 28 29 29 28 32 36 29 29 31 34 31 30 32 34 32 29 26 26 27 28 25 25 24 14 13 22 28 30 30 22 33
45 47 48 54 52 50 50 49 51 52 51 45 43 44 39 31 35 31 28 29 28 28 28 27 29 30 34 30 28 31 27 26 25 25 24 24 24 26 25 19 24 28 30 30 25 22 33
43 44 46 53 51 49 50 51 52 52 52 47 45 45 42 36 39 40 37 30 31 27 26 26 29 28 33 33 32 29 27 26 25 24 23 23 21 21 25 21 16 30 31 27 30 32 31
43 44 46 52 51 50 50 51 52 52 52 48 45 45 45 39 41 44 43 42 39 37 28 31 31 28 28 29 31 31 29 28 28 23 29 21 23 22 23 22 32 32 32 33 31 30 31

GFSGBSN_sfc_30mbdewp_006.txt.gz
Dewpoint
56 58 56 56 56 56 55 53 51 50 51 50 51 50 49 50 50 50 50 50 50 52 53 53 54 54 52 47 44 48 48 45 46 51 50 44 49 47 46 45 43 41 38 40 40 40 40
55 56 57 55 55 56 55 56 54 51 50 50 51 51 50 51 50 50 50 50 51 50 52 53 54 53 47 41 44 44 45 44 42 48 50 45 47 46 41 43 43 42 41 40 39 40 41
53 55 55 56 55 55 54 55 55 52 51 50 51 51 51 51 51 51 50 50 50 50 51 53 52 50 45 40 42 42 43 41 42 43 46 47 46 49 43 44 45 42 40 40 40 41 40
53 54 55 56 55 55 55 54 54 53 51 50 51 52 52 52 52 51 50 50 51 52 51 51 50 48 39 43 44 43 42 42 43 41 45 46 47 50 51 44 44 43 42 37 37 40 40
53 55 55 54 55 56 55 55 55 55 53 51 50 52 52 53 52 52 52 52 53 52 51 50 46 44 37 44 42 43 42 39 43 42 41 46 48 49 48 43 41 42 37 36 35 39 38
53 54 53 54 54 55 55 55 55 54 54 52 51 51 52 53 52 51 51 52 54 51 49 48 46 40 39 38 41 41 42 39 41 43 44 45 45 45 46 42 36 35 35 34 34 35 34
53 53 53 54 53 55 55 55 55 53 54 52 51 52 53 53 52 51 51 50 45 44 45 38 37 34 38 39 43 41 42 39 41 42 39 40 38 38 40 43 38 33 34 35 34 34 33
53 52 53 53 53 54 55 54 54 53 53 52 51 52 53 53 52 52 52 47 43 42 39 41 40 37 41 41 39 39 42 36 37 36 41 36 36 40 44 43 40 36 34 34 33 33 32
53 53 53 53 54 54 55 55 54 53 51 51 51 52 53 53 51 51 50 49 49 47 37 39 40 39 38 39 38 38 40 35 35 35 39 34 38 41 45 41 39 36 34 32 32 34 34
53 53 54 55 54 54 55 56 55 54 53 52 52 52 53 51 48 50 49 49 49 46 31 33 38 38 40 40 36 37 39 34 36 34 38 32 38 43 42 40 40 34 37 36 36 38 33
54 54 54 54 54 54 54 55 56 55 55 53 53 52 53 51 49 47 49 49 47 43 21 32 36 38 37 34 33 36 40 34 33 37 36 33 39 40 42 40 39 35 39 38 38 37 35
52 52 54 54 54 54 54 54 55 55 56 55 53 53 52 49 49 50 49 48 43 29 21 33 37 36 36 35 32 38 39 36 39 36 35 32 45 42 40 41 40 38 36 36 33 33 31
51 52 53 54 55 54 54 54 55 55 55 56 55 53 50 47 44 51 50 43 29 24 34 31 33 37 33 30 29 34 35 33 33 31 31 34 35 45 42 42 38 38 37 33 32 31 28
53 51 53 54 54 54 54 54 55 55 55 55 55 53 50 48 49 52 45 36 25 30 31 35 35 36 31 30 29 33 31 28 34 37 29 30 32 43 43 40 38 37 35 29 24 25 25
51 52 52 52 53 54 54 54 54 55 55 55 54 50 48 49 51 49 39 28 29 34 34 33 33 31 28 29 28 34 28 26 34 36 30 31 33 42 43 40 39 39 36 32 26 26 24
48 50 51 51 53 54 54 54 55 55 55 55 46 45 45 48 51 46 34 32 34 38 36 32 24 26 23 26 32 33 26 25 30 36 38 33 32 38 37 42 38 39 38 32 29 24 22
47 49 53 51 52 53 54 54 54 55 55 53 46 42 47 51 49 40 31 33 37 39 37 26 24 24 24 25 33 29 26 31 30 34 37 35 33 32 36 38 37 37 37 36 30 26 22
48 49 53 52 52 53 54 54 54 54 53 48 45 40 51 50 38 37 34 36 40 41 39 26 27 25 22 27 29 33 26 33 28 37 35 37 29 33 32 30 35 36 34 33 30 26 24
47 47 51 53 53 53 54 54 54 54 50 44 41 44 50 47 35 35 39 38 39 40 36 29 32 31 28 27 30 33 32 30 34 37 36 33 29 28 31 32 29 33 33 35 30 25 24
47 47 48 53 53 53 53 53 53 53 53 44 42 40 45 45 44 41 39 38 39 41 36 38 36 36 32 29 29 30 34 38 41 36 39 33 30 25 25 28 30 30 30 33 33 29 25
48 47 47 49 53 53 53 53 53 53 53 44 41 40 42 38 39 40 41 40 38 40 41 43 37 36 29 31 34 34 35 39 38 41 39 36 28 30 29 29 29 29 30 28 29 30 26
46 47 47 47 53 53 53 52 52 53 52 45 37 38 40 40 41 41 41 40 37 42 40 39 41 36 34 32 34 36 38 38 38 40 38 36 30 26 26 30 28 27 28 31 31 30 27
44 46 47 48 49 53 53 52 52 52 50 45 43 41 38 35 33 39 38 41 39 40 43 43 41 36 35 36 36 39 40 39 38 37 37 34 30 28 25 24 25 26 27 27 27 27 26
43 46 46 47 49 53 53 52 51 52 50 44 41 40 37 30 32 32 36 41 42 41 41 38 35 37 35 35 36 38 38 35 36 33 37 34 30 28 26 22 23 26 28 28 28 27 27
42 45 46 48 48 53 52 51 51 52 51 47 44 42 38 32 30 30 36 40 38 36 34 32 32 33 33 31 34 33 32 36 32 29 30 35 36 33 26 29 23 22 27 25 27 27 28
42 44 44 45 46 53 52 51 51 51 52 48 44 44 39 31 29 31 31 39 39 36 30 30 33 34 34 32 36 33 33 35 33 33 28 36 40 36 30 20 20 22 28 28 27 19 28
41 43 43 45 46 51 51 50 50 51 52 47 44 44 40 34 34 31 30 36 38 37 31 31 31 34 40 34 33 33 32 30 30 31 34 30 30 33 28 30 23 27 30 32 21 24 32
41 42 44 45 46 48 51 50 50 51 52 48 46 45 44 37 39 41 37 30 33 36 35 30 35 35 39 37 33 32 31 26 26 27 29 30 25 25 30 32 30 31 30 27 31 34 33
40 41 43 45 44 46 51 50 50 52 52 49 46 46 46 41 41 44 43 42 39 35 34 32 37 34 40 37 34 32 28 28 26 24 28 25 28 27 26 27 33 33 33 33 34 32 32

GFSGBSN_sfc_30mbdewp_009.txt.gz
Dewpoint
54 55 56 57 56 55 57 56 54 52 51 51 51 51 51 50 50 50 50 50 50 50 52 53 54 54 51 46 43 48 48 45 45 52 49 45 39 41 44 42 43 41 38 37 38 36 37
55 53 55 56 56 55 56 55 56 54 53 51 51 51 51 51 51 50 50 50 51 51 51 52 54 54 47 39 42 44 45 44 43 45 48 48 40 38 39 40 40 42 40 39 37 37 37
54 52 54 56 56 55 55 54 55 56 54 52 51 51 52 51 52 52 51 50 50 50 51 51 53 50 43 39 39 41 41 40 41 40 42 47 44 40 40 42 39 41 39 39 38 37 36
54 53 53 55 56 56 56 55 55 55 54 52 51 51 52 52 53 52 52 51 51 51 51 51 50 47 43 41 41 41 41 39 39 40 39 42 45 41 43 47 44 37 40 39 37 37 37
51 53 54 55 55 55 55 56 55 55 55 54 52 51 52 53 53 53 52 52 52 53 52 51 46 45 38 43 41 40 40 37 37 40 39 40 44 42 44 44 42 41 37 37 36 36 36
52 53 55 55 55 54 55 56 55 56 55 55 54 52 52 53 53 53 53 52 52 53 51 48 44 41 38 37 38 40 40 39 36 37 37 38 42 41 41 40 35 36 37 34 36 33 36
53 53 55 54 54 54 54 55 54 56 55 55 54 53 53 53 53 52 50 49 45 44 47 41 39 35 36 36 40 40 38 39 37 35 35 36 37 35 36 38 41 37 38 34 35 34 34
54 54 54 54 54 53 54 55 55 55 55 54 54 53 53 53 52 52 50 45 43 44 40 43 40 39 37 40 37 39 39 36 34 32 33 35 35 35 34 38 39 39 35 33 32 34 33
54 54 54 54 53 54 54 55 55 55 54 53 53 52 52 52 52 51 49 44 48 46 39 39 42 39 37 39 36 35 38 36 31 31 30 32 35 34 32 35 40 39 38 33 33 34 33
55 53 53 54 54 53 53 54 55 55 55 54 53 52 52 52 47 44 45 50 50 48 32 34 38 40 40 41 37 38 38 35 31 29 29 33 34 37 32 35 41 37 39 33 33 34 30
54 54 52 53 53 53 53 53 54 55 55 55 53 53 53 50 45 47 48 50 49 44 22 33 38 41 41 38 32 32 35 36 31 30 35 31 34 36 33 37 41 40 39 34 36 34 37
50 50 54 52 52 53 53 53 54 55 55 55 54 53 53 51 48 47 48 48 45 30 22 33 37 36 36 39 34 33 32 35 33 31 38 31 38 38 35 40 44 43 38 39 37 34 30
47 48 50 53 51 52 52 53 54 54 55 55 56 54 52 44 41 50 48 43 29 25 33 32 32 36 35 35 34 32 33 32 33 29 30 34 34 39 42 40 43 42 39 34 30 31 25
46 48 47 49 53 50 51 53 54 54 54 55 56 55 52 45 50 49 45 35 25 29 31 36 35 35 32 34 31 29 31 30 32 33 32 29 28 36 38 42 39 40 39 28 23 23 24
45 49 46 46 47 51 51 53 53 54 54 55 55 53 50 49 50 49 40 28 30 33 35 34 35 31 31 34 23 24 28 30 29 33 31 30 31 39 41 43 40 38 37 32 27 25 23
44 48 49 48 50 53 52 53 53 54 55 55 48 46 45 48 50 46 36 31 34 37 37 36 27 28 26 29 24 26 29 31 28 30 36 35 30 36 43 43 42 40 36 31 28 22 21
45 47 48 47 49 53 53 53 53 54 55 53 46 42 45 49 49 41 30 32 37 39 38 35 26 23 22 22 24 26 27 25 27 27 36 38 34 33 39 39 38 40 36 35 29 26 22
44 46 48 48 48 49 53 53 54 54 55 50 45 38 49 50 38 37 33 35 38 38 40 36 24 23 20 21 25 27 25 23 24 30 36 39 36 31 33 32 38 40 37 33 28 26 25
43 45 48 47 47 49 54 53 54 55 52 46 42 42 49 46 34 34 35 37 38 37 39 33 26 24 22 22 23 29 29 26 29 26 38 37 34 32 33 33 38 38 35 36 33 29 25
42 44 48 48 48 49 54 54 54 55 51 45 40 39 42 44 41 39 36 36 36 39 38 32 29 25 25 24 25 27 30 30 33 28 38 37 32 30 26 28 35 36 36 34 32 28 26
41 44 46 47 48 50 54 54 53 54 53 47 40 40 40 36 37 39 40 39 36 38 39 33 36 29 27 22 24 29 29 33 32 32 35 37 30 27 26 28 31 32 33 34 33 32 28
40 42 44 47 46 46 51 53 53 54 54 46 38 34 42 42 39 39 39 38 37 38 38 37 39 33 29 26 23 24 30 32 34 37 33 36 32 29 28 29 28 28 30 32 32 32 31
39 42 44 44 47 48 49 53 53 53 52 46 45 42 38 36 38 37 38 38 39 40 42 39 41 37 33 29 30 35 33 36 36 35 37 35 35 29 25 27 29 27 27 28 30 30 29
38 41 43 44 45 46 47 53 52 53 51 46 43 41 36 30 29 31 35 40 41 40 38 42 43 42 38 37 37 38 38 35 37 37 36 35 34 31 29 25 24 26 28 28 28 29 30
38 41 42 45 44 45 47 52 52 53 52 47 44 42 38 32 29 30 33 41 39 41 41 39 40 40 37 36 36 37 37 37 33 32 37 38 36 33 30 30 30 29 25 27 28 27 29
38 40 41 44 43 45 47 50 52 52 52 49 45 45 41 36 29 31 36 42 38 37 35 35 34 33 33 35 36 34 32 35 33 34 36 38 38 36 32 24 25 24 28 27 29 25 28
37 40 41 44 43 45 46 47 52 51 52 49 47 46 42 36 34 32 31 39 43 37 34 32 33 35 41 37 35 33 33 36 33 33 33 36 38 35 34 32 29 27 28 28 21 27 29
35 40 40 43 43 44 46 46 51 51 51 49 47 46 43 39 39 39 36 35 40 40 34 33 36 38 41 37 35 34 31 31 32 35 34 33 32 34 34 33 29 30 30 26 33 33 31
35 40 40 42 43 44 46 47 51 51 52 50 47 46 46 44 43 44 43 43 41 40 36 34 38 38 42 40 36 33 32 28 28 29 30 33 31 28 29 31 33 32 33 34 34 33 33

GFSGBSN_sfc_30mbdewp_012.txt.gz
Dewpoint
53 55 56 54 55 57 57 57 57 55 54 52 51 51 51 51 51 51 50 51 51 50 51 53 54 54 51 44 41 49 48 47 48 51 51 47 44 39 41 42 43 42 42 40 38 38 37
52 53 56 55 55 56 57 55 57 57 55 54 53 51 51 52 52 52 51 50 51 51 51 52 53 54 48 39 40 42 46 45 43 44 48 48 45 41 37 39 41 42 42 43 41 37 37
53 52 54 55 54 56 56 56 55 56 56 55 54 52 52 52 52 52 52 52 50 50 51 51 52 51 44 39 39 40 43 44 43 40 40 47 47 46 39 36 41 40 39 41 41 39 37
54 53 52 54 54 56 56 56 56 55 55 56 54 53 52 53 53 53 53 52 51 52 52 52 51 48 42 44 43 40 40 39 40 39 39 40 42 44 44 41 43 42 39 38 40 39 38
54 53 53 54 54 55 55 56 56 56 55 55 54 54 52 53 54 54 53 52 52 52 53 51 48 45 38 43 42 41 40 38 37 37 38 38 39 41 43 38 39 40 36 37 39 40 37
57 54 54 54 55 55 55 55 56 56 56 56 56 55 53 53 53 53 53 52 51 51 51 49 45 40 41 37 39 40 40 39 37 35 36 37 37 38 40 37 31 34 38 35 38 38 38
53 56 54 55 55 55 54 54 55 56 56 56 56 55 54 53 53 52 52 48 45 44 47 39 39 34 35 38 40 38 39 38 38 36 33 35 34 33 36 37 37 36 35 37 35 39 36
52 52 56 55 55 55 55 54 54 55 55 56 55 55 53 53 53 52 51 44 43 45 40 45 41 40 38 39 36 37 38 36 36 34 33 33 32 33 34 35 36 35 37 38 37 37 35
46 50 55 56 54 54 54 54 55 54 55 55 55 54 53 52 52 50 48 46 48 46 39 42 43 40 40 39 36 35 38 36 34 33 32 31 32 34 32 32 33 33 34 38 38 36 37
45 45 48 52 53 52 53 54 53 54 54 54 54 54 52 52 48 46 46 48 49 48 34 34 38 41 41 42 38 38 38 36 33 30 31 31 32 30 32 31 32 30 35 38 40 40 34
44 46 44 49 49 51 52 51 52 53 53 54 54 54 53 49 48 44 49 50 49 45 23 35 38 43 41 39 37 37 40 40 33 30 30 31 32 29 30 35 33 33 37 37 40 40 37
43 45 44 48 49 49 51 51 51 52 53 54 55 54 53 51 49 49 50 48 44 31 21 33 38 37 37 38 38 39 37 40 37 33 31 33 34 33 32 33 35 35 36 40 41 38 34
42 43 45 46 48 47 48 52 50 52 53 54 55 54 52 49 44 50 48 43 30 25 32 33 33 36 34 35 36 36 35 33 31 28 27 34 34 34 37 36 34 36 37 32 32 33 31
42 43 45 46 47 47 50 53 51 52 53 54 55 55 52 48 50 49 44 36 25 26 30 37 36 35 32 35 35 35 34 29 31 32 30 26 23 34 36 36 33 36 37 32 27 29 26
41 43 44 46 47 46 49 53 52 51 53 54 55 54 50 49 50 47 39 28 27 30 36 34 34 31 31 34 35 34 32 31 30 30 29 28 28 37 37 34 39 34 32 37 35 26 25
41 42 45 45 48 47 47 52 52 52 54 55 50 49 48 51 50 46 37 31 31 37 37 37 30 31 26 30 30 29 29 28 29 31 33 33 29 37 38 40 41 39 40 36 35 23 23
40 42 43 45 48 47 48 48 53 55 54 52 47 43 47 51 49 41 31 32 33 37 38 35 33 28 26 26 26 24 22 25 29 30 35 35 31 34 36 39 36 38 38 39 36 30 23
38 40 44 45 48 48 48 48 52 54 55 50 46 39 48 51 39 38 34 35 38 38 40 38 37 35 22 24 24 25 26 30 30 31 33 35 33 31 33 37 42 40 39 36 28 27 26
35 39 43 45 48 48 48 50 53 54 52 48 42 43 50 46 33 34 36 37 37 37 39 38 34 28 22 21 20 22 29 29 33 35 34 36 32 30 31 37 42 40 40 37 35 32 27
34 38 42 45 46 47 47 47 55 54 51 47 43 38 42 44 41 37 35 36 34 39 38 39 34 27 23 21 21 28 26 30 31 33 36 43 37 32 31 33 37 37 37 36 35 31 28
34 36 40 43 45 46 48 48 53 54 51 47 42 39 39 35 36 38 39 38 36 34 40 39 31 28 23 22 22 22 30 29 32 28 36 37 36 37 35 36 37 36 36 36 34 34 28
33 35 39 42 44 44 46 46 48 54 51 47 41 37 41 40 37 37 37 36 37 36 39 36 34 36 35 26 23 24 27 29 29 33 30 33 34 35 28 30 33 35 36 35 34 32 31
32 34 38 42 43 44 45 46 47 53 51 46 46 44 39 38 40 38 38 38 38 39 39 40 37 33 36 29 28 25 27 30 33 34 35 33 35 32 25 28 28 26 30 34 34 34 34
32 34 38 41 42 42 44 47 48 53 51 47 45 43 39 35 30 35 36 37 40 40 38 41 42 37 41 38 37 40 39 36 35 35 36 35 35 33 27 26 23 26 28 29 30 31 32
32 33 37 41 42 43 43 46 47 52 53 47 44 43 42 37 34 32 29 37 40 41 42 41 43 41 44 39 37 37 37 37 35 33 36 36 36 34 30 29 29 30 25 27 28 28 30
32 33 37 40 41 43 43 44 47 51 53 50 46 46 44 37 33 33 31 39 39 38 37 39 38 40 44 36 38 33 31 35 34 35 37 39 39 37 33 26 25 25 27 27 30 27 29
32 33 36 40 41 43 43 45 47 50 53 50 48 48 45 40 39 34 31 34 43 39 37 36 36 38 42 38 35 34 35 37 33 33 34 36 37 34 33 32 31 28 28 27 24 27 30
32 33 37 40 41 43 43 46 47 51 52 51 47 47 45 41 40 40 38 34 42 40 35 36 38 40 40 37 37 36 32 36 36 36 36 34 34 34 35 33 29 30 29 26 32 32 31
32 34 36 40 41 43 43 46 47 48 52 51 46 47 48 44 44 44 43 43 42 44 40 36 39 39 42 39 39 35 31 29 33 33 38 34 36 35 35 33 33 32 33 34 35 33 34

GFSGBSN_sfc_30mbdewp_015.txt.gz
Dewpoint
54 54 53 54 55 56 56 57 56 57 56 54 53 52 52 52 52 51 51 51 51 51 51 52 54 54 52 46 45 50 48 48 50 53 51 51 47 45 39 42 43 43 43 44 44 43 41
56 55 55 53 55 56 55 55 56 57 57 56 54 53 52 52 53 52 52 51 51 51 51 51 52 54 48 41 43 44 47 45 44 50 50 50 48 46 43 39 38 41 42 43 43 42 41
56 58 55 54 54 56 55 56 56 56 56 56 55 55 53 52 52 52 52 52 51 51 51 51 52 51 47 41 42 42 45 45 45 42 40 49 48 46 46 40 40 42 41 40 42 42 42
52 54 57 55 55 54 55 56 56 57 55 55 56 56 54 53 52 52 53 53 53 52 53 52 51 49 42 44 46 43 43 42 41 40 40 39 41 40 44 44 41 40 41 38 39 40 42
47 49 53 56 55 54 55 56 56 55 56 55 56 56 54 53 53 54 54 53 52 52 52 52 49 47 38 43 44 44 43 38 38 38 38 38 38 38 42 40 37 39 34 37 38 40 40
45 46 49 53 54 54 54 55 56 55 55 55 56 56 55 54 53 54 53 53 51 50 50 50 47 40 41 36 41 43 41 40 38 37 36 38 36 37 39 38 29 31 33 36 37 38 39
43 44 46 48 54 56 54 54 55 55 55 54 54 55 55 54 53 53 52 48 44 43 47 42 41 35 35 40 39 41 41 39 39 37 34 36 34 32 34 37 37 32 33 35 38 38 38
43 42 43 46 48 51 55 54 54 54 55 54 54 55 55 53 53 53 50 45 43 44 40 44 43 41 39 39 37 38 40 37 36 34 35 33 32 34 35 36 36 36 35 34 36 39 38
41 41 42 44 46 47 51 56 53 52 53 53 54 54 55 53 53 51 48 44 47 46 38 40 43 42 41 40 38 37 39 37 35 35 34 31 32 33 33 33 33 35 34 33 33 36 39
39 41 42 42 45 45 51 52 54 52 52 52 53 54 53 53 48 48 47 48 48 46 34 34 38 42 42 41 38 40 39 36 35 33 33 33 32 31 32 32 32 30 33 33 33 34 33
39 40 41 42 43 45 48 50 51 52 51 51 52 54 54 48 44 44 48 50 49 46 21 34 38 43 42 39 38 39 40 39 35 33 33 31 31 31 30 31 32 30 31 31 32 33 35
38 40 41 43 44 44 47 49 49 52 53 51 53 54 53 48 48 50 50 48 44 30 20 33 37 37 37 40 38 39 37 40 41 38 36 32 35 34 31 31 31 35 33 33 35 34 30
36 38 41 42 45 44 46 48 48 50 53 51 54 55 53 49 44 50 48 42 30 24 30 32 33 36 33 34 36 37 36 35 33 28 28 34 34 35 36 33 34 34 32 24 24 26 25
34 38 42 42 44 46 48 48 46 49 53 52 54 55 52 49 50 49 43 36 21 25 28 36 35 33 32 33 35 35 34 31 37 33 30 26 22 33 35 33 29 32 30 26 19 22 26
35 38 41 42 43 44 46 47 47 48 53 54 55 53 50 51 50 47 38 27 23 27 35 34 35 31 31 34 33 34 32 32 31 34 26 27 27 34 33 33 32 30 29 30 32 33 31
34 36 38 41 43 46 47 46 46 47 52 54 52 49 47 50 50 44 36 29 29 34 37 37 30 33 28 29 30 32 31 33 31 30 32 31 26 30 33 35 34 31 33 28 30 27 25
33 34 36 40 43 47 46 47 48 52 53 54 49 44 48 50 48 41 31 32 32 36 38 35 33 33 32 29 31 30 28 29 33 30 30 31 31 30 33 34 31 34 34 33 35 32 29
33 34 35 39 41 46 48 48 48 48 52 52 46 40 49 49 38 37 33 34 36 36 39 38 37 36 34 29 29 26 26 23 33 32 29 35 32 27 29 36 38 32 35 33 29 32 33
33 34 35 39 42 47 47 47 48 49 53 48 43 43 49 46 33 34 36 35 36 37 38 38 36 36 34 27 29 27 28 30 35 35 35 36 30 25 30 36 39 35 37 35 34 37 32
34 33 34 38 41 46 45 46 46 47 53 48 43 37 43 44 42 37 35 35 35 39 38 39 38 36 34 29 28 25 25 32 33 35 38 37 34 31 29 34 38 34 34 38 37 33 28
34 32 34 37 40 45 43 46 46 47 52 45 43 39 39 35 36 38 37 37 36 34 38 40 37 37 31 24 22 26 26 28 34 35 38 36 31 33 34 35 37 37 36 36 34 35 26
34 31 33 36 40 43 43 44 47 49 52 46 40 40 40 38 38 38 38 37 36 37 37 38 37 33 33 28 24 24 27 30 30 37 36 37 32 36 36 37 37 36 38 37 35 34 33
34 31 33 36 39 42 44 44 47 48 51 46 46 45 41 40 37 36 36 36 36 38 39 39 39 36 34 34 36 36 29 30 31 32 32 34 34 36 27 37 36 34 36 35 35 34 33
33 31 33 35 39 41 44 44 46 47 49 48 46 43 38 37 37 37 38 38 38 39 38 40 40 38 40 43 40 39 38 34 34 37 35 32 34 34 29 27 21 25 29 35 34 34 35
33 32 32 36 38 41 43 43 46 46 48 46 44 44 42 37 37 37 37 32 40 41 40 42 43 40 44 41 37 37 37 37 36 37 37 36 35 33 30 29 28 28 25 28 31 31 33
34 32 32 36 38 41 43 43 46 47 48 48 45 47 44 38 37 36 33 39 37 37 38 41 41 41 45 38 38 32 30 34 33 36 37 37 37 35 32 26 24 25 27 27 29 26 30
35 34 32 34 38 41 42 43 46 47 47 50 47 48 45 39 40 39 34 32 42 39 38 38 39 41 44 38 36 34 33 36 33 32 35 36 36 32 32 31 31 32 27 28 25 26 31
36 35 33 34 37 40 42 42 45 47 48 50 47 48 46 42 41 40 38 35 40 41 36 39 39 40 41 37 36 37 35 36 35 35 35 34 34 34 34 32 27 31 27 23 30 32 34
36 34 34 35 36 39 41 42 45 46 48 50 46 47 49 44 43 45 43 42 40 44 42 41 40 40 41 39 38 38 33 34 35 33 37 35 36 35 35 32 35 33 32 34 34 33 35

GFSGBSN_sfc_30mbdewp_018.txt.gz
Dewpoint
54 56 58 57 55 54 55 57 57 56 56 56 55 54 52 52 52 52 51 51 51 51 51 52 54 55 52 47 45 47 49 50 53 55 53 51 48 45 40 41 42 42 43 44 46 46 45
49 51 52 55 58 55 54 55 56 56 56 56 56 54 54 52 52 53 52 52 51 51 51 51 52 53 48 38 45 44 48 45 45 51 52 51 49 47 44 41 39 40 39 41 43 43 44
46 47 47 49 55 57 55 55 56 56 56 56 56 56 55 54 52 53 52 53 52 51 51 51 52 51 47 41 43 44 43 45 45 46 45 50 50 48 46 43 42 41 38 40 40 41 42
45 46 46 47 49 52 56 56 56 56 56 56 56 55 56 54 52 53 52 53 53 52 52 52 52 50 40 45 46 44 43 42 45 42 40 40 44 47 42 44 42 39 39 36 38 40 41
42 44 44 44 46 49 54 56 55 56 56 56 56 55 55 55 54 54 54 54 52 52 52 52 49 46 36 43 44 43 44 41 39 39 39 39 38 38 39 41 38 38 33 34 37 39 40
38 39 43 43 44 44 49 50 56 55 55 54 54 55 55 55 54 54 54 53 52 50 49 51 47 43 42 37 42 43 43 42 38 37 36 37 36 35 38 37 30 31 32 33 33 39 39
41 40 41 43 42 44 46 48 51 56 54 54 54 54 55 55 54 53 53 49 44 44 47 42 42 39 35 40 42 41 43 40 39 37 34 36 34 31 33 36 36 36 33 32 35 37 38
38 41 41 41 42 44 43 46 49 52 55 53 52 53 54 54 53 53 49 44 42 42 39 44 44 42 40 41 38 39 41 38 37 35 36 34 31 32 33 33 35 35 35 34 34 34 36
34 33 41 41 42 43 44 45 46 50 54 54 52 52 53 54 53 52 48 45 47 45 39 39 43 42 42 42 39 38 39 38 36 35 34 30 30 32 33 33 33 33 32 32 32 34 34
35 35 34 40 41 42 43 44 45 49 50 54 52 51 53 53 49 49 46 47 47 46 32 33 38 42 42 42 38 40 39 37 36 34 33 32 34 32 32 32 33 30 34 34 33 32 28
36 34 35 38 39 43 43 43 45 48 50 53 51 52 53 50 43 45 44 49 48 46 13 32 37 42 42 39 39 39 40 38 37 35 34 31 33 32 30 30 32 31 32 31 32 32 31
35 35 35 39 40 44 43 43 46 47 50 51 54 53 53 47 48 48 50 49 45 30 14 33 37 37 37 40 39 40 39 40 43 38 35 32 35 33 31 30 33 35 32 31 31 31 26
36 35 35 38 40 42 43 43 46 45 49 51 54 54 52 46 46 50 48 43 29 21 30 32 33 36 34 34 35 37 36 36 33 30 28 33 34 35 36 30 31 31 29 22 22 22 19
36 34 34 34 36 41 43 44 44 46 48 49 52 54 50 46 51 49 44 36 20 22 29 35 33 33 31 32 35 35 35 32 35 33 30 27 24 33 35 32 30 30 29 22 15 19 17
37 35 34 35 36 42 43 44 47 47 48 49 50 52 50 50 50 47 39 28 25 24 33 32 33 30 31 33 33 34 33 32 29 35 28 27 26 33 34 32 31 31 29 28 25 26 26
36 36 35 35 35 41 44 46 46 46 48 50 49 50 47 50 49 45 36 30 28 36 37 35 28 33 28 29 30 31 30 30 31 35 33 30 25 31 33 34 33 30 30 26 27 20 20
35 36 35 34 36 39 42 46 48 47 47 47 47 44 48 50 48 41 30 32 31 38 36 34 33 32 32 29 29 28 28 31 33 33 35 31 28 29 32 31 27 31 30 28 25 24 27
35 35 35 33 37 39 44 44 46 46 47 49 47 34 49 49 37 36 32 34 34 37 38 36 36 36 34 33 30 29 28 27 33 31 31 31 31 25 26 30 32 32 29 29 24 22 24
37 35 34 33 38 40 43 44 45 47 48 48 43 42 48 46 32 33 36 35 36 36 36 37 36 37 35 33 29 29 27 28 33 31 30 33 30 25 26 30 35 33 33 31 30 32 30
38 35 34 32 37 41 43 45 45 46 47 49 41 36 41 43 40 36 34 34 35 38 36 38 38 38 36 33 30 27 28 30 34 34 38 38 32 29 24 31 34 32 32 33 31 25 26
38 35 33 32 35 40 43 45 44 46 48 49 44 38 39 33 37 36 37 36 34 35 38 39 36 37 36 32 28 27 28 30 35 39 39 35 29 32 32 34 35 33 31 34 33 33 29
37 35 33 33 33 39 42 44 44 46 48 47 41 39 39 37 38 38 37 36 35 36 37 36 35 37 37 34 26 23 27 29 32 38 37 37 29 32 32 37 36 36 34 36 35 35 34
37 35 33 32 35 38 41 44 44 47 48 46 46 44 40 38 37 36 36 36 37 37 38 38 38 38 36 36 35 33 34 30 33 35 36 35 32 32 31 37 37 34 35 35 35 35 34
37 35 34 32 34 38 41 43 44 47 48 47 46 43 39 36 37 36 38 38 37 37 36 40 40 39 38 43 42 41 39 35 33 36 36 35 33 34 32 35 24 28 39 38 36 37 39
36 36 35 33 32 37 40 43 44 46 47 48 45 43 40 37 38 38 38 38 37 39 38 39 42 42 41 40 37 34 33 36 35 37 37 36 34 32 30 29 28 27 28 35 36 35 35
36 37 35 34 32 36 40 42 43 46 47 49 46 47 43 38 37 38 37 35 37 37 38 39 42 43 45 39 38 32 30 32 32 35 37 37 36 34 32 28 24 26 27 28 29 26 30
36 37 35 33 33 36 39 42 42 46 47 48 46 48 43 39 40 39 36 33 41 38 37 38 40 41 45 39 35 33 31 34 31 30 34 35 35 33 31 30 30 32 30 29 26 25 30
36 37 36 33 33 36 37 41 42 45 46 48 47 48 45 42 41 39 36 37 40 39 36 39 39 40 41 36 36 35 35 35 33 34 35 32 32 33 32 30 26 32 28 25 28 33 34
36 37 37 34 35 35 36 40 42 44 46 48 46 48 49 44 43 45 43 41 39 42 41 41 40 40 41 38 37 38 37 36 34 31 36 33 35 34 34 32 35 33 32 34 33 34 34

GFSGBSN_sfc_30mbdewp_021.txt.gz
Dewpoint
46 47 48 49 49 52 55 57 56 56 55 56 56 56 54 53 52 53 51 52 51 51 51 52 54 55 52 45 45 47 50 49 55 56 54 51 47 45 40 41 42 42 43 43 44 45 46
45 46 46 46 48 49 51 53 57 56 56 55 55 56 55 54 53 53 52 52 51 51 51 51 52 54 47 36 43 45 45 47 49 55 54 52 49 47 45 42 40 40 39 40 40 41 43
41 42 43 44 45 45 46 50 55 57 55 55 56 56 56 55 53 53 53 52 52 51 51 51 52 51 46 40 43 44 43 43 45 50 48 52 51 48 46 43 43 41 39 39 39 39 40
39 39 43 43 43 44 45 45 51 52 56 55 54 55 55 55 54 53 53 52 53 52 52 51 52 49 38 44 46 45 44 41 43 45 41 43 50 48 46 43 41 39 39 35 36 37 40
38 39 40 41 42 44 43 45 45 50 52 56 54 54 56 55 55 54 54 53 53 53 52 52 49 46 36 43 44 43 44 40 40 42 40 40 39 38 39 39 36 36 33 34 35 38 39
36 35 35 40 41 42 43 44 43 45 49 53 55 54 53 54 54 54 54 53 53 51 49 50 47 42 41 37 42 43 44 42 38 37 37 37 37 36 37 36 28 30 33 34 33 36 37
37 35 38 34 39 41 42 42 44 44 46 50 54 54 53 54 54 54 52 49 44 43 46 42 42 40 36 40 42 42 42 41 39 37 33 36 34 32 33 35 36 36 34 33 33 35 34
36 34 36 35 35 40 40 42 42 43 46 47 52 55 53 53 54 54 50 44 42 40 38 43 43 42 41 42 38 39 41 38 38 34 36 34 31 33 33 32 32 33 33 33 34 35 34
36 35 35 37 35 36 40 42 42 43 45 47 51 53 54 53 54 52 48 45 46 44 36 37 43 42 42 42 39 38 40 38 36 35 35 32 30 32 32 31 31 32 31 29 30 32 33
36 36 36 36 36 39 41 42 44 43 45 47 50 50 55 53 51 49 46 47 46 45 29 31 38 41 43 42 37 40 40 38 36 35 35 34 34 30 30 31 32 28 32 32 31 30 25
37 37 37 35 36 37 40 44 44 43 45 45 48 50 54 53 48 46 45 47 47 40 16 32 38 43 43 39 38 39 41 38 34 35 34 32 33 31 30 30 32 29 31 32 33 32 30
39 38 38 38 35 34 37 42 43 44 43 43 45 50 52 48 48 46 48 48 44 27 16 31 38 37 38 39 39 40 39 40 41 37 35 32 35 34 32 31 32 34 31 31 31 30 24
37 38 37 37 36 38 38 41 43 43 43 45 45 50 50 48 44 49 48 44 29 21 29 31 31 35 33 34 36 37 36 36 33 30 29 33 34 36 36 31 31 32 31 24 22 22 18
38 38 37 37 36 37 38 41 43 43 47 47 48 47 48 48 50 48 44 34 20 22 29 34 33 34 31 32 33 35 34 31 36 34 30 27 24 34 36 32 29 31 31 24 15 16 17
39 39 37 36 37 35 39 42 43 47 46 47 48 47 48 50 49 47 39 28 23 22 32 31 31 30 30 31 32 33 33 29 31 34 28 27 26 35 35 34 33 32 28 30 26 27 24
39 39 38 35 35 35 37 42 45 47 47 48 45 44 46 50 49 44 35 27 28 34 34 32 27 30 27 30 31 30 27 30 32 31 32 30 24 31 33 34 35 33 31 27 28 18 15
39 39 38 35 34 34 37 43 45 45 47 48 43 38 47 49 46 41 31 31 31 38 36 32 31 31 29 29 30 28 26 29 32 32 34 32 30 27 33 31 29 31 29 30 26 24 17
39 39 38 36 33 35 38 42 45 46 48 46 40 33 48 48 38 37 32 33 34 37 38 35 35 33 33 31 30 27 28 28 33 35 32 32 31 26 25 31 32 29 27 29 23 20 21
38 38 38 36 34 38 39 42 45 45 47 44 40 40 48 45 30 32 36 34 35 37 36 36 35 35 35 34 30 30 29 30 33 33 32 33 30 23 26 28 32 31 30 28 27 29 20
38 38 38 36 33 36 40 42 44 44 46 46 40 32 41 42 39 33 33 33 34 37 37 38 37 38 36 33 33 30 29 30 31 32 34 34 32 28 23 28 31 28 30 31 29 25 23
38 37 37 36 32 36 40 42 44 44 47 48 40 36 37 33 35 34 34 34 33 35 37 38 37 36 36 32 30 32 31 30 34 35 38 35 28 31 31 32 32 32 29 30 29 27 23
37 36 37 35 32 34 39 42 44 45 48 47 40 38 39 37 37 36 35 35 35 35 37 35 35 37 36 35 30 24 29 28 31 38 37 37 28 31 29 34 33 30 33 31 30 28 26
37 36 37 35 34 32 38 42 44 45 48 42 46 44 38 38 37 36 35 36 35 36 38 37 37 37 36 37 38 36 36 34 33 35 36 33 31 30 29 35 32 28 34 31 31 31 31
37 36 37 35 35 32 37 41 44 45 47 46 45 45 38 34 35 35 36 35 37 37 37 39 39 39 39 42 40 39 38 38 35 36 37 35 33 33 30 33 26 35 39 33 30 34 36
37 37 37 36 33 32 36 39 42 44 46 45 47 44 40 36 36 36 36 38 38 38 38 38 40 41 43 42 36 35 34 34 34 34 37 37 35 33 30 29 30 28 39 38 37 35 39
37 37 37 37 33 32 36 38 41 44 46 46 47 47 42 38 37 38 37 39 37 37 38 40 43 44 43 39 36 30 28 30 30 34 36 36 36 35 31 28 24 25 31 40 39 34 37
37 37 37 38 35 34 36 37 41 44 46 46 47 48 42 38 40 37 34 34 40 37 35 38 39 40 43 38 34 32 30 33 30 28 33 34 35 33 30 29 29 32 31 35 31 25 31
36 37 37 37 37 35 35 36 40 43 45 47 45 49 45 41 41 40 38 38 41 38 36 38 38 40 40 36 35 35 33 33 33 33 32 32 29 30 30 29 25 31 28 26 28 33 34
36 37 37 37 37 36 35 36 39 41 44 46 46 49 49 43 43 46 44 41 39 41 40 41 39 40 42 38 37 38 36 35 34 29 36 33 33 31 31 30 33 33 32 34 33 34 34

GFSGBSN_sfc_30mbdewp_024.txt.gz
Dewpoint
42 42 41 44 45 46 46 47 49 53 55 55 55 56 56 55 53 51 52 52 52 51 51 52 53 55 51 43 45 47 51 48 54 56 53 50 46 43 39 40 41 42 42 43 43 42 43
40 41 43 43 44 45 46 46 46 47 53 55 55 55 55 56 54 53 53 52 52 51 51 52 52 53 47 32 40 45 43 45 54 54 52 52 48 46 43 42 40 40 40 40 40 40 40
39 39 39 38 42 42 43 44 45 45 47 53 54 55 55 55 55 53 53 53 52 51 52 51 52 51 46 40 43 44 43 42 45 52 52 53 50 47 46 43 43 43 39 39 39 39 38
38 38 38 39 39 39 44 43 43 45 44 46 53 55 54 54 54 54 53 53 53 52 51 51 52 49 36 43 46 44 44 40 42 45 41 49 52 49 47 44 40 39 39 35 36 37 38
39 37 37 37 38 37 37 43 43 43 44 45 48 53 55 54 54 54 54 53 53 53 52 52 49 45 37 42 44 43 43 39 41 43 41 40 43 40 40 38 35 36 31 33 33 36 38
37 35 35 36 37 37 38 40 42 44 43 45 46 49 53 54 53 54 54 53 52 51 50 50 48 42 41 38 42 43 44 41 38 39 39 38 38 36 36 35 27 29 31 32 31 34 35
37 34 35 38 37 37 36 37 40 42 44 43 44 49 53 55 53 53 52 50 45 43 45 39 41 40 37 41 42 42 42 40 39 36 36 36 34 33 35 34 34 35 34 33 34 35 35
37 37 39 38 38 37 37 38 40 42 43 44 45 47 51 53 54 54 51 45 42 39 37 42 43 43 42 43 38 40 41 37 37 34 35 33 31 34 34 34 34 33 32 30 30 31 33
39 39 39 39 38 37 36 36 39 43 44 44 45 47 50 50 55 53 47 44 45 43 34 36 42 40 42 42 39 39 40 38 36 35 34 31 30 32 33 32 31 30 30 29 28 29 31
39 38 38 39 37 37 37 37 40 42 42 43 45 44 46 52 51 50 46 46 45 39 25 27 38 41 42 41 37 41 41 38 36 34 35 34 34 32 32 30 30 28 31 31 31 30 24
39 39 39 40 38 37 37 39 42 40 41 45 45 44 44 49 49 47 48 47 45 33 12 32 38 43 43 37 38 39 41 38 35 34 35 31 33 33 32 30 31 29 30 31 31 31 29
41 40 40 40 39 37 38 41 40 40 41 43 43 43 44 48 50 48 48 47 41 22 15 32 37 37 38 38 38 39 39 40 40 36 35 32 35 33 31 31 31 33 31 31 32 30 23
40 41 40 40 38 38 39 38 39 42 44 43 44 46 46 49 46 49 47 40 25 20 28 30 31 34 33 34 35 37 36 36 33 29 29 34 34 36 36 31 32 32 31 23 21 22 18
39 39 40 39 39 37 36 36 41 43 45 46 46 47 48 47 50 49 43 28 21 22 27 33 32 32 29 31 32 33 34 32 36 35 30 26 23 33 37 31 28 30 29 23 16 16 16
40 40 40 39 38 37 34 36 42 47 46 47 47 47 45 44 50 46 34 23 21 23 31 31 32 30 30 32 31 32 33 31 29 34 29 27 25 34 34 34 31 31 28 30 27 28 24
39 40 39 39 38 36 34 37 42 46 47 47 43 42 42 46 51 43 30 27 27 31 33 31 27 29 27 30 30 32 29 28 30 31 33 29 25 29 33 35 35 34 33 26 27 18 16
38 39 39 39 38 35 33 39 42 44 46 47 41 37 45 51 47 39 29 28 31 36 34 31 29 29 28 29 31 29 26 27 32 32 33 30 29 27 33 31 29 32 29 30 30 27 16
38 39 38 38 37 35 34 40 42 44 46 45 40 33 48 49 35 36 32 32 35 36 37 34 33 32 30 29 29 28 27 28 32 33 31 31 31 25 24 30 32 30 29 29 23 20 23
38 38 38 38 37 35 34 40 42 45 46 45 39 38 48 44 30 32 35 34 36 37 35 34 33 34 35 33 30 30 29 31 33 33 31 31 30 24 24 28 32 31 31 29 27 27 20
38 38 37 37 37 35 36 39 42 45 46 46 38 32 40 41 39 34 32 32 34 37 36 36 36 37 35 34 35 31 30 31 33 34 35 33 32 27 23 25 30 28 30 32 30 25 21
38 38 37 37 36 35 35 39 42 46 46 46 40 33 36 31 34 34 32 33 32 34 36 37 36 35 35 32 33 32 32 32 33 33 34 34 29 30 31 32 32 31 30 31 29 27 23
38 38 37 38 36 35 33 39 42 46 46 45 38 37 39 36 36 33 34 33 32 35 36 34 35 35 37 34 32 27 31 31 29 37 36 38 29 31 29 32 33 29 32 32 30 29 27
38 38 38 38 37 33 33 39 42 45 46 42 43 45 39 37 35 34 33 35 33 35 38 37 36 37 36 37 39 39 35 33 35 34 36 34 30 30 26 32 31 28 30 32 32 30 28
38 38 38 37 38 33 33 37 40 44 46 45 44 45 38 34 35 34 36 36 36 36 35 39 38 38 39 43 43 40 38 37 37 36 36 35 32 31 29 32 26 33 39 34 32 31 31
37 38 37 37 38 35 34 36 39 43 45 45 46 45 40 34 36 35 36 35 36 39 39 39 39 41 43 42 37 32 34 34 34 37 36 36 35 31 29 29 32 29 37 34 32 31 32
38 37 37 38 38 37 35 36 38 42 44 45 46 48 44 36 34 36 35 39 37 37 38 39 43 45 43 40 36 29 26 29 28 33 36 37 36 33 32 27 25 27 30 39 38 33 38
38 38 37 38 38 37 37 35 37 41 44 45 45 49 45 38 39 39 36 37 39 38 35 38 39 40 42 37 33 30 28 33 29 29 32 33 34 31 32 28 29 32 32 40 31 27 31
38 37 36 38 38 37 37 35 36 41 44 44 44 48 46 40 41 40 38 39 41 37 35 38 38 39 38 35 35 33 32 32 33 33 33 31 29 30 31 29 24 31 35 30 29 32 34
39 38 37 38 38 38 36 35 38 40 43 44 43 48 50 43 42 45 44 41 41 41 39 40 38 39 39 38 37 38 36 34 33 29 35 31 32 30 31 29 31 34 32 34 34 33 34

GFSGBSN_sfc_30mbdewp_027.txt.gz
Dewpoint
40 41 41 40 40 40 42 43 44 45 45 49 52 55 56 55 56 54 52 52 52 51 51 52 53 54 50 43 45 47 50 47 52 55 52 49 45 42 39 40 42 42 42 43 43 41 41
40 40 39 40 40 40 38 40 43 43 44 46 48 52 54 55 54 55 53 53 52 51 52 52 52 52 45 31 38 44 43 45 55 55 53 50 47 44 42 41 39 40 40 40 40 40 40
40 39 38 38 39 38 39 41 41 42 44 45 45 49 53 54 54 55 53 54 52 51 52 51 52 50 45 39 44 44 44 42 46 52 52 53 49 46 45 42 44 43 40 39 39 39 39
39 37 37 37 37 38 36 36 36 39 41 44 43 46 48 53 55 54 54 53 53 52 52 52 52 47 36 42 45 44 44 41 43 45 48 52 53 49 46 44 41 39 39 33 36 37 38
36 38 37 38 40 40 40 38 37 36 40 43 44 44 45 52 54 54 54 54 53 53 52 52 48 42 37 42 42 44 42 38 42 43 41 47 47 42 43 40 35 37 31 33 33 36 36
39 40 37 39 39 39 39 37 37 38 39 43 43 44 44 49 53 54 55 54 53 52 50 51 48 42 40 38 41 43 44 40 39 40 40 40 38 36 36 36 26 29 31 31 31 33 35
42 41 39 38 41 40 39 36 35 39 38 43 44 44 45 48 52 54 54 50 45 43 44 38 39 38 38 41 43 42 43 39 38 38 35 37 34 31 34 35 34 34 33 31 33 35 32
42 39 40 40 40 39 39 37 38 37 38 42 43 44 46 47 51 52 51 44 41 41 37 42 43 44 43 43 38 41 42 37 36 35 35 34 32 33 32 34 33 33 32 31 30 30 30
39 40 40 41 41 40 39 38 38 40 41 42 42 43 45 45 48 51 48 44 44 40 33 35 41 40 42 42 39 39 40 38 36 34 34 31 30 33 33 32 31 32 32 29 26 29 30
41 42 41 41 40 40 40 39 39 41 41 40 40 42 45 44 45 49 47 46 44 35 26 25 36 40 42 41 36 41 40 38 36 34 34 34 34 33 32 31 32 28 31 30 30 29 23
42 39 41 41 40 40 40 39 39 40 40 42 42 43 44 44 43 44 48 48 40 32 12 30 38 43 42 37 36 39 41 38 35 34 34 30 32 33 31 30 31 29 30 29 30 30 27
39 41 40 39 40 40 40 39 37 35 42 43 43 43 42 43 44 45 50 47 35 21 13 32 37 38 38 37 38 39 39 40 39 35 35 32 35 33 32 33 32 32 31 31 31 30 23
40 40 40 40 40 40 39 39 35 37 42 46 46 47 43 43 39 50 50 42 27 17 28 30 32 36 34 34 36 36 37 36 33 29 28 31 34 35 34 31 32 31 31 23 21 22 18
40 38 39 40 39 40 38 37 35 39 44 45 46 47 46 44 45 47 44 34 21 22 27 31 32 33 30 33 32 33 34 33 35 34 31 26 23 32 36 31 29 31 30 23 16 17 16
38 39 38 40 39 39 38 34 36 42 46 46 47 46 45 46 47 44 39 28 20 23 32 31 30 28 28 31 31 31 31 30 30 36 29 27 25 33 35 35 32 31 28 29 25 24 23
39 39 39 39 39 39 36 35 39 43 46 47 43 43 42 47 46 42 33 27 26 30 33 31 27 29 26 30 30 30 29 29 31 31 34 29 24 28 32 34 33 33 32 26 27 17 16
40 39 39 38 39 38 37 35 39 42 46 46 41 37 43 47 44 38 30 28 33 35 32 29 29 29 29 29 29 30 27 27 31 31 32 31 27 26 33 30 27 31 29 30 29 25 17
40 39 39 38 39 37 38 36 37 42 45 45 40 33 46 48 33 33 32 32 37 36 36 34 33 30 29 30 30 29 27 27 31 33 31 31 30 25 24 27 30 29 29 29 25 21 25
39 38 39 38 39 38 36 35 38 43 45 44 37 38 46 40 30 31 35 34 37 35 34 33 33 34 34 30 28 29 29 31 33 32 31 32 29 23 22 28 29 30 31 32 31 30 24
37 39 39 39 39 39 35 36 39 43 45 46 37 33 38 39 38 34 32 33 34 37 36 35 35 35 33 33 33 31 31 31 32 33 34 32 30 24 20 25 31 28 31 32 30 25 22
39 39 38 38 38 38 34 36 41 44 47 46 39 33 36 30 33 34 32 33 33 32 36 36 36 34 33 31 31 31 32 32 33 34 34 33 28 30 31 30 31 31 30 31 29 28 25
39 39 38 38 37 38 34 36 40 42 47 42 39 37 39 36 37 33 33 30 31 36 35 34 34 34 35 34 33 30 31 31 30 33 33 35 29 32 29 31 31 30 33 33 31 31 29
39 39 38 38 38 38 36 36 39 41 45 41 41 43 39 35 35 32 32 33 32 35 36 36 35 34 36 34 38 38 39 35 33 35 33 35 31 29 26 30 33 29 33 32 32 32 30
37 37 37 38 38 38 37 36 37 40 44 44 43 42 38 34 35 33 33 36 35 34 36 38 38 37 38 43 43 42 41 39 37 37 36 34 33 31 28 32 25 35 37 38 33 33 33
38 38 37 37 38 38 37 37 36 39 42 44 44 44 39 35 35 34 35 35 37 38 38 38 39 40 43 41 36 33 32 34 35 36 36 36 33 31 28 28 30 30 33 36 32 33 34
37 38 37 37 38 38 38 37 35 38 42 44 44 48 44 36 35 36 37 37 36 36 37 38 43 44 43 39 36 29 23 27 28 33 36 36 36 33 30 27 24 29 31 39 37 30 35
39 38 37 38 38 38 38 36 36 39 42 44 43 48 45 38 39 37 35 37 40 38 37 39 40 39 42 37 31 30 27 32 29 29 30 32 33 29 30 30 28 31 32 39 27 26 31
38 38 38 38 37 38 38 35 36 39 42 43 42 46 46 41 41 40 38 39 39 38 36 38 37 38 38 33 33 32 30 31 32 32 33 30 30 31 32 29 24 32 36 33 29 33 33
36 36 37 37 38 38 36 34 36 39 40 43 40 44 47 43 40 45 44 42 41 40 39 40 38 38 39 37 37 36 32 34 32 29 34 31 31 29 30 28 31 33 32 33 34 33 34

GFSGBSN_sfc_30mbdewp_030.txt.gz
Dewpoint
41 41 40 40 40 39 40 40 42 41 42 44 44 45 49 53 54 56 55 53 52 52 52 52 52 54 49 43 42 47 49 46 52 55 52 48 44 41 38 37 40 38 35 38 39 41 39
40 40 38 39 39 40 40 38 37 37 39 41 43 45 44 49 52 55 56 54 53 52 52 52 52 53 43 30 38 43 42 47 53 53 52 49 45 44 41 39 38 38 39 38 39 38 38
38 39 39 39 39 40 41 41 40 39 37 36 40 44 44 45 49 53 55 54 53 52 52 51 52 48 44 37 42 44 43 45 51 52 51 50 48 45 43 41 42 41 38 37 36 36 36
39 40 40 40 39 40 41 40 40 39 38 39 38 43 44 45 46 52 54 56 54 53 52 51 52 45 38 42 44 41 42 42 47 48 51 52 49 47 43 43 40 37 37 32 33 36 36
38 43 42 41 40 42 41 40 40 38 37 39 38 43 45 45 45 50 53 55 54 53 52 52 47 43 38 42 41 40 41 42 44 42 44 51 48 43 43 38 34 34 29 31 31 33 33
43 41 42 42 41 42 42 41 41 38 38 37 40 42 45 46 46 50 51 55 54 52 51 51 46 41 41 38 40 42 42 41 41 42 41 40 38 34 33 33 26 26 29 29 28 31 33
40 41 42 41 41 41 41 40 40 40 39 40 40 43 44 45 47 48 51 54 46 44 45 39 39 36 38 41 43 41 40 39 39 39 36 38 34 31 30 30 30 32 30 30 30 32 30
40 42 41 42 41 41 40 41 40 40 40 42 42 43 42 44 46 46 49 46 43 43 39 42 42 40 43 43 38 40 41 36 37 35 35 34 31 30 32 32 31 31 30 28 28 29 29
42 42 40 41 42 42 41 40 40 40 40 41 42 42 41 42 46 45 45 47 44 42 34 39 41 39 41 42 38 39 38 37 34 34 33 30 30 32 32 31 30 29 29 29 28 28 27
42 37 41 41 41 41 41 40 40 40 38 37 42 43 42 43 43 42 43 49 50 41 33 31 37 39 40 40 36 40 38 36 36 32 33 32 32 31 31 30 30 26 28 29 29 27 24
38 38 40 40 41 41 41 40 40 40 37 39 43 44 44 44 43 39 44 51 48 39 22 30 36 42 39 34 36 39 39 37 33 33 34 30 32 33 31 30 30 29 29 28 28 26 26
40 39 39 39 40 40 40 40 39 37 37 42 44 46 46 43 43 41 47 48 43 29 20 31 37 38 37 34 36 39 39 39 37 33 34 30 34 33 31 31 31 31 30 30 28 28 23
40 39 39 40 40 40 40 39 37 36 40 43 45 47 45 45 38 45 48 41 28 25 29 30 30 37 33 32 34 35 36 36 32 29 29 30 31 33 33 31 32 32 31 21 22 22 17
40 40 41 40 40 38 39 38 36 37 41 46 48 47 46 45 43 46 45 33 25 24 27 31 32 34 32 31 32 34 34 33 32 31 30 26 25 31 35 31 27 30 28 20 13 12 13
41 41 41 40 39 39 39 38 36 38 43 47 46 45 44 45 45 46 37 27 28 24 29 30 32 29 30 30 31 31 31 28 30 32 28 28 26 32 33 33 31 31 29 29 26 24 21
41 40 39 39 38 39 39 38 37 39 43 46 43 41 41 46 45 40 32 30 27 31 30 29 27 27 25 28 29 28 28 29 29 31 33 30 26 28 30 34 33 32 31 26 27 16 12
40 39 40 39 39 39 39 36 37 39 43 45 42 36 43 45 42 36 30 31 33 33 32 29 28 28 28 28 28 27 28 28 31 30 32 30 26 26 31 30 27 30 29 31 27 25 17
38 39 39 39 40 39 39 35 37 40 44 44 40 31 45 43 33 34 32 35 34 33 35 33 31 30 29 29 28 28 27 27 30 32 30 29 28 23 25 25 28 23 24 26 24 22 25
40 40 39 39 39 38 38 35 38 42 44 44 36 38 45 42 30 32 35 36 36 34 33 33 32 33 31 30 28 29 29 31 31 31 29 30 29 23 23 28 28 27 27 26 31 29 25
40 40 39 38 39 38 38 35 38 40 44 46 39 32 37 38 39 35 34 34 33 37 35 35 34 33 32 30 31 31 29 32 32 31 33 32 29 26 19 22 27 29 30 32 31 25 23
38 39 39 38 39 38 38 37 40 42 45 46 40 34 37 31 34 35 34 34 32 32 36 35 34 33 32 30 31 32 30 31 33 33 33 32 28 29 30 29 30 30 30 31 30 30 26
38 37 36 37 38 38 38 38 40 41 44 42 38 37 39 34 35 33 32 31 31 34 34 33 32 33 34 32 31 29 31 32 29 33 32 34 29 31 29 30 30 31 34 34 33 32 32
37 38 38 38 38 38 38 39 39 40 44 40 40 42 40 34 35 32 32 31 32 34 36 35 33 34 33 34 36 37 35 35 33 32 32 32 32 30 26 29 30 30 34 35 34 34 32
39 38 38 36 38 38 38 38 37 39 43 44 42 42 39 33 35 30 32 33 32 32 32 38 37 35 37 41 41 41 41 39 39 37 34 33 33 31 27 29 25 35 37 38 37 36 36
39 38 38 37 38 38 38 39 36 39 42 44 44 42 41 34 33 33 33 35 36 37 37 36 39 40 42 41 37 33 31 32 33 37 36 35 33 30 26 28 28 32 36 37 34 35 35
37 37 38 37 38 38 39 38 36 39 42 43 43 46 44 36 33 33 34 35 34 35 38 38 42 44 43 39 36 29 25 26 28 34 36 36 35 31 27 26 23 30 35 39 37 31 31
36 36 36 37 37 38 38 36 36 38 41 42 42 47 44 40 38 37 35 35 37 36 36 40 40 41 43 37 32 30 28 30 28 29 30 32 32 29 29 28 30 31 32 39 26 27 33
36 35 35 35 36 36 35 35 35 37 39 42 41 46 43 42 41 40 39 39 39 38 37 38 38 38 38 33 33 33 31 30 31 31 32 30 29 30 31 29 26 32 35 32 32 35 34
36 36 34 33 33 33 33 33 35 36 37 39 39 42 43 43 41 45 44 43 41 40 40 40 38 38 38 35 36 36 32 32 32 27 34 32 31 29 31 29 32 33 34 34 35 35 34

GFSGBSN_sfc_30mbdewp_033.txt.gz
Dewpoint
40 40 41 40 41 40 42 42 41 41 39 38 38 39 42 44 46 50 53 55 55 53 52 52 52 54 48 44 41 49 50 49 52 56 52 46 41 38 35 34 33 35 35 32 35 37 38
40 41 41 41 41 41 40 41 42 42 40 40 38 39 40 45 45 47 49 54 56 53 52 52 51 53 44 34 38 43 43 45 47 51 52 48 45 41 39 36 36 35 35 34 35 35 36
41 41 44 42 40 40 43 42 41 41 41 40 39 40 39 43 45 46 47 53 56 54 52 52 51 48 43 37 39 41 41 45 50 49 50 51 47 43 42 39 39 39 37 36 35 35 35
44 45 44 43 41 43 44 43 43 42 42 40 39 40 40 43 45 46 46 50 55 55 52 51 52 44 38 41 42 42 40 44 48 50 50 50 48 45 43 42 38 36 35 32 31 33 33
43 42 42 43 44 43 43 43 41 42 42 41 39 39 40 43 45 46 46 49 53 56 53 51 48 44 37 43 38 38 39 43 45 46 49 50 48 44 43 39 34 34 29 29 29 32 32
41 41 42 44 44 43 41 42 42 40 41 42 40 42 42 42 44 46 47 49 53 56 52 49 44 41 39 37 39 38 40 43 42 44 45 44 42 39 38 38 29 27 28 28 27 28 31
42 44 44 43 43 42 42 43 42 42 41 41 42 42 43 43 44 45 47 46 47 46 48 42 40 35 38 40 40 38 40 42 41 39 34 36 33 31 31 33 31 28 28 27 27 29 29
44 44 41 42 41 42 42 42 42 41 40 41 41 41 43 43 44 43 46 40 44 45 40 41 39 39 39 40 37 37 39 37 37 35 35 35 33 31 30 29 29 29 28 27 27 27 27
41 39 41 41 40 41 41 41 41 41 42 42 40 38 43 44 44 42 42 39 45 49 41 39 39 38 40 40 35 37 38 36 36 33 33 31 29 31 30 30 29 28 27 26 26 27 27
39 41 40 41 41 41 41 41 41 41 41 39 38 40 46 44 42 39 39 46 48 48 33 35 38 38 40 39 37 38 37 35 33 30 32 31 30 29 29 29 28 26 27 27 26 26 23
38 40 42 42 41 40 41 41 40 41 37 39 41 43 44 46 41 37 41 48 49 44 23 34 36 39 38 35 36 38 37 36 31 31 31 30 31 31 29 28 28 28 29 28 27 26 26
39 42 42 42 41 41 40 40 40 39 37 41 42 45 47 46 45 40 45 49 44 28 24 31 37 36 35 34 35 38 37 38 34 30 31 29 32 31 31 30 30 31 28 28 27 27 23
38 42 41 41 40 40 40 40 38 37 40 41 45 44 46 45 38 40 44 42 28 24 29 31 31 35 33 31 33 36 35 33 30 29 28 30 29 31 31 29 30 30 30 21 22 23 17
39 42 41 40 40 39 40 40 39 39 39 42 45 45 45 43 40 44 41 33 25 29 27 29 33 32 30 30 31 31 31 32 31 29 28 26 26 29 33 30 27 27 27 20 13 12 13
39 40 40 40 40 40 39 40 37 38 42 43 45 44 44 44 42 40 38 26 29 26 29 30 31 30 30 29 30 31 30 30 31 31 28 27 26 29 32 31 29 28 27 27 24 22 19
39 41 40 40 40 40 39 39 36 38 42 44 43 41 42 45 44 41 33 24 32 29 29 30 26 27 27 27 28 27 29 29 28 30 30 29 26 27 30 31 30 29 30 26 28 18 13
41 41 40 39 40 40 39 37 36 40 43 44 41 37 43 45 42 37 27 31 33 31 30 29 27 25 25 27 28 27 28 28 29 29 31 29 26 26 29 28 26 29 28 29 27 27 18
41 41 40 39 40 39 39 37 38 41 44 46 39 32 43 41 33 35 32 36 32 32 34 31 29 27 27 27 27 27 27 26 29 29 28 29 26 24 25 25 26 26 27 27 26 20 26
39 39 39 39 39 38 39 38 39 41 45 44 36 36 43 43 30 33 36 36 33 33 33 32 31 30 30 28 27 28 28 30 29 30 27 29 27 23 27 27 26 25 26 25 29 30 26
39 39 38 37 39 39 39 39 39 41 45 46 39 31 36 39 39 35 35 35 34 36 34 33 33 31 30 29 30 29 28 31 30 29 33 30 27 25 21 25 29 30 29 29 32 27 24
39 38 39 37 39 39 39 39 39 43 45 45 40 35 36 32 34 37 36 36 32 31 34 34 32 31 30 29 30 29 29 31 33 32 32 31 29 27 28 29 29 30 30 31 31 31 27
40 40 39 37 38 39 39 40 38 43 45 41 37 38 38 34 34 34 33 34 31 33 32 32 31 32 31 30 30 29 30 30 28 32 31 32 28 30 28 27 28 28 29 34 35 35 35
39 39 39 37 39 39 39 40 37 42 44 40 40 41 41 33 32 29 31 31 31 32 35 34 32 32 32 33 35 36 35 32 32 33 31 32 32 29 23 28 28 30 35 35 36 37 36
37 37 38 38 38 38 39 39 37 41 43 43 42 41 38 32 32 29 29 31 30 31 32 35 35 33 37 38 39 39 39 38 38 37 36 32 32 31 26 27 24 31 33 36 36 37 37
37 36 35 36 38 38 39 38 36 39 42 42 43 41 41 31 32 30 30 32 33 35 35 36 38 41 41 39 35 33 33 33 33 36 38 34 31 27 26 24 25 29 32 34 36 36 35
36 36 35 35 37 38 37 36 36 37 40 42 43 45 42 37 31 31 31 33 32 33 36 37 42 44 41 38 35 29 26 24 28 33 36 34 34 30 26 25 22 28 33 34 38 32 34
37 36 36 34 34 33 33 34 35 36 37 41 42 45 42 40 37 33 31 33 35 35 35 38 40 41 42 37 32 30 28 27 25 26 31 33 33 29 29 27 26 29 32 39 29 28 35
37 36 36 35 34 33 33 33 35 36 36 39 40 45 41 40 39 38 38 36 37 37 34 39 38 38 38 34 33 32 30 30 28 28 31 30 29 29 30 28 25 32 33 32 34 35 35
37 37 36 35 34 34 34 33 34 34 36 38 38 42 42 40 43 45 44 43 41 40 39 40 39 37 38 35 36 36 34 30 29 24 33 30 29 30 30 30 32 34 34 36 36 36 35

GFSGBSN_sfc_30mbdewp_036.txt.gz
Dewpoint
41 42 42 43 43 42 42 43 42 43 43 42 42 41 40 40 41 43 47 49 52 55 55 53 52 53 49 45 43 54 54 54 55 57 53 50 41 39 36 34 36 35 35 34 35 35 35
43 44 46 45 43 42 42 44 44 43 44 43 42 41 42 40 41 44 45 48 49 54 56 53 52 52 47 36 40 45 44 44 47 51 53 51 42 41 38 35 33 34 34 35 35 33 35
47 44 44 42 44 43 45 45 44 45 43 42 42 42 41 41 41 43 45 47 48 51 56 53 52 50 43 40 38 40 42 42 47 47 51 52 48 43 41 38 40 37 37 37 36 35 35
45 44 43 44 44 44 44 44 43 44 44 42 43 43 41 41 41 42 45 46 47 50 55 54 52 46 40 42 43 41 39 41 46 50 48 52 50 45 43 42 39 37 37 35 33 34 34
44 41 44 45 45 43 43 45 44 45 43 43 43 43 42 43 42 42 45 46 47 49 53 54 49 46 38 42 38 40 38 40 44 49 50 50 48 44 43 40 36 34 31 31 31 33 31
43 46 45 40 42 42 43 43 42 42 42 42 42 43 43 43 43 43 45 46 47 48 53 51 46 42 39 38 38 37 38 43 42 43 48 48 44 41 40 38 30 30 31 31 29 31 31
45 42 39 42 42 43 42 42 41 42 42 42 43 43 43 41 44 44 44 44 44 44 49 42 41 36 36 39 40 37 39 42 42 42 39 44 39 37 36 36 35 35 30 27 28 28 27
42 40 40 43 43 42 42 41 42 41 41 42 43 42 40 43 44 45 44 39 39 45 40 44 42 38 39 39 36 37 40 40 39 39 36 34 32 33 33 34 34 29 27 27 27 27 26
41 42 42 43 43 42 42 41 41 41 41 42 40 39 41 44 45 42 41 38 42 44 39 40 41 38 39 38 36 37 39 37 38 35 35 32 31 33 32 30 29 29 28 27 26 27 27
42 41 43 43 42 42 41 41 41 40 41 40 39 43 44 44 43 40 38 43 47 45 31 36 39 38 40 38 35 38 38 36 35 35 33 32 32 29 28 29 29 27 28 27 26 26 23
42 42 43 42 41 41 41 40 41 39 39 39 42 43 44 45 42 38 40 45 47 44 21 37 39 40 39 35 36 36 38 34 31 31 32 31 30 30 29 28 29 27 29 28 27 26 25
42 41 42 41 41 41 41 40 40 39 39 40 42 44 44 44 46 41 41 44 42 28 21 33 38 36 36 35 36 36 36 37 35 30 30 30 31 31 30 29 30 30 28 27 28 26 23
39 40 41 41 41 40 40 40 40 38 39 41 42 45 45 45 40 44 44 39 26 22 34 31 33 35 33 32 35 34 35 34 31 28 28 30 30 31 31 29 30 29 28 23 23 22 16
39 42 42 41 40 41 40 40 38 37 39 42 44 45 45 43 42 44 40 33 23 31 32 30 34 33 29 32 33 33 34 32 32 29 29 26 25 30 31 30 28 29 27 23 17 18 18
40 42 42 41 40 40 39 39 37 37 42 44 46 44 43 44 44 44 37 23 27 31 29 33 33 31 30 30 32 32 31 29 29 31 27 27 26 29 32 31 30 27 26 27 24 22 20
40 41 41 41 40 40 39 39 38 41 44 47 45 41 42 45 43 40 32 27 31 36 30 30 27 29 26 28 28 30 30 30 29 30 30 30 25 28 31 30 29 28 29 26 27 18 15
41 41 39 39 39 40 39 39 39 42 46 47 41 36 43 45 42 37 27 28 35 37 31 32 27 26 25 28 28 27 26 28 29 29 30 28 27 26 30 28 27 28 27 27 27 27 20
40 38 41 39 39 40 40 39 39 43 47 43 38 32 42 43 33 34 33 36 37 36 33 29 27 26 25 26 27 26 27 27 29 30 28 28 26 25 26 27 29 28 27 26 23 20 24
40 40 40 39 39 40 40 40 39 42 46 44 36 36 42 43 30 32 35 36 37 35 33 31 29 28 27 28 26 27 28 28 30 29 28 29 26 23 27 26 25 25 26 27 27 29 25
40 40 40 38 39 40 40 40 40 44 46 46 38 30 36 39 39 35 34 34 34 37 34 32 30 30 27 29 28 28 30 30 30 31 32 29 28 26 24 28 30 28 29 27 28 27 25
39 39 39 39 39 39 39 40 40 44 45 46 39 35 37 33 35 36 37 35 32 32 34 33 31 30 28 27 29 28 29 32 31 33 31 31 28 28 28 27 28 29 29 30 31 32 28
38 38 38 38 37 37 40 39 40 44 45 40 38 37 39 34 35 34 35 36 33 32 33 31 30 31 30 29 30 29 29 29 30 32 30 32 29 29 27 28 28 27 28 29 32 36 36
38 37 37 36 37 39 40 39 37 41 43 40 41 41 40 33 31 31 32 32 31 33 35 33 32 31 32 34 35 36 35 32 32 31 30 33 32 28 24 26 27 28 30 35 36 37 37
38 37 36 36 36 38 39 38 37 37 41 42 41 41 37 32 32 30 30 32 32 31 32 34 34 34 37 38 38 39 38 37 37 35 35 35 33 31 26 27 24 32 35 35 35 36 37
38 37 37 36 35 34 34 35 36 37 38 40 42 41 40 34 31 30 29 31 34 35 34 36 38 41 40 39 33 32 33 34 34 36 36 37 35 29 26 24 25 27 31 33 34 34 38
39 37 37 36 35 34 34 34 35 37 37 40 43 45 42 38 31 30 29 31 30 32 34 39 42 43 41 38 35 29 27 27 31 33 36 37 36 30 28 25 21 28 32 34 38 33 36
41 37 37 37 35 34 34 34 35 36 36 39 41 44 41 39 39 34 31 31 35 34 35 38 40 40 41 36 31 29 28 29 25 31 30 32 33 29 29 27 26 27 33 38 32 30 36
39 37 37 37 36 35 35 34 34 35 36 38 39 43 40 39 42 40 37 35 35 37 34 40 38 39 37 34 33 32 32 31 30 32 31 30 29 29 30 28 24 32 33 32 35 36 36
39 35 37 37 36 35 35 34 34 35 35 37 38 42 41 38 43 45 44 43 42 42 40 40 39 37 38 35 35 36 34 34 29 28 31 29 30 30 29 28 30 34 35 37 36 35 35

GFSGBSN_sfc_30mbdewp_039.txt.gz
Dewpoint
45 48 45 44 44 44 45 46 45 46 46 45 44 43 42 43 42 42 41 42 46 50 52 56 54 52 52 46 44 54 57 56 56 56 54 52 48 42 38 38 38 36 36 36 36 36 35
49 46 46 45 44 45 47 45 44 44 45 46 44 43 43 43 42 41 41 43 44 48 51 55 54 52 49 40 45 50 51 53 53 55 53 52 46 41 39 37 35 35 36 36 37 37 36
44 44 42 45 45 44 43 42 45 46 46 46 44 43 44 43 43 42 41 42 45 47 49 53 54 51 46 41 39 42 42 44 47 51 52 52 50 44 42 38 40 38 35 37 36 37 36
42 45 48 46 40 39 43 44 44 44 44 42 42 44 44 43 44 43 43 43 45 46 48 51 55 48 42 44 44 41 40 41 46 48 51 52 51 45 43 42 39 35 37 34 35 34 36
42 46 44 40 42 45 44 42 43 43 42 43 43 43 43 43 43 43 44 44 45 46 47 50 51 46 39 43 41 41 39 39 44 49 50 53 51 45 43 38 36 35 32 33 34 34 34
46 44 42 42 45 45 44 43 43 42 42 42 43 43 44 44 43 43 45 44 44 46 47 51 49 41 42 39 39 41 39 39 43 49 48 48 46 43 42 38 31 30 32 32 31 31 32
44 44 43 43 45 44 43 42 42 42 41 41 42 43 42 41 44 44 45 43 38 41 45 42 41 40 39 40 39 40 38 43 42 45 42 45 40 38 38 39 35 34 34 30 28 29 27
43 43 41 45 43 42 42 41 41 42 41 41 42 41 40 43 44 45 44 38 39 40 36 43 44 42 40 39 36 37 40 40 41 39 38 39 35 38 38 37 36 35 32 28 28 28 27
41 42 43 43 42 41 41 41 41 41 41 39 40 41 43 44 45 43 40 38 46 40 35 41 45 42 38 39 37 36 40 40 40 38 35 33 32 33 33 32 32 29 28 28 27 27 27
44 39 41 43 42 41 41 42 41 41 39 39 40 43 44 44 43 43 40 44 45 41 29 35 40 41 39 39 36 38 40 38 37 35 35 33 33 31 32 31 29 27 29 28 27 26 22
41 41 43 43 42 42 41 41 41 41 39 40 40 42 42 45 43 39 40 47 46 40 19 36 40 42 40 37 37 37 39 36 34 35 33 32 31 30 28 29 30 28 29 28 28 26 25
40 42 43 43 42 41 41 40 41 39 37 39 41 42 45 45 45 43 42 45 41 27 18 33 39 37 37 36 36 37 37 37 35 33 32 31 32 31 31 30 30 30 28 27 28 26 20
40 41 43 42 41 41 41 39 40 38 39 41 43 45 46 46 40 44 43 40 24 20 33 31 35 36 35 34 34 34 35 33 30 29 29 30 30 30 31 30 30 30 25 21 20 21 13
39 40 42 41 41 41 41 40 39 40 42 44 45 47 45 45 45 44 40 30 19 30 30 37 35 34 33 33 33 34 34 31 33 30 28 26 21 30 31 30 28 29 26 19 11 19 20
40 40 41 42 38 40 40 40 39 42 44 47 48 44 44 45 45 42 36 20 25 30 35 35 34 31 33 32 34 33 32 31 31 31 26 25 25 31 31 30 30 29 26 27 24 23 20
40 40 39 42 38 41 40 40 40 43 47 47 43 41 41 45 43 39 32 28 28 36 35 34 30 30 29 30 31 31 30 30 28 30 31 29 25 31 32 31 31 27 28 24 25 14 12
38 41 41 41 38 40 40 40 39 44 47 44 39 35 42 45 41 35 27 31 32 38 36 32 28 28 28 29 30 29 28 30 29 29 31 28 26 28 30 28 27 28 26 26 26 26 18
41 41 40 40 38 41 40 41 40 44 47 42 37 29 40 44 31 34 32 35 35 36 38 34 27 27 26 29 28 26 28 27 30 30 28 29 27 25 26 28 30 29 27 26 21 16 25
41 38 38 40 40 40 39 41 40 43 46 45 35 34 41 42 30 31 36 34 36 37 34 32 30 27 28 28 25 27 28 29 30 30 29 29 25 22 25 27 28 28 28 27 26 27 23
38 38 38 37 37 38 40 40 39 43 45 45 36 27 35 39 39 33 34 33 34 38 34 31 28 27 29 29 29 30 29 29 30 32 32 29 28 23 20 26 28 25 28 28 27 27 24
39 38 37 37 38 40 40 39 39 42 44 45 39 34 37 32 35 36 37 35 34 32 34 33 30 29 28 29 28 30 31 30 31 32 31 30 26 28 27 28 28 27 27 28 28 28 27
39 38 37 36 36 36 38 38 38 40 43 40 37 37 38 35 37 34 37 36 34 33 33 31 31 32 31 29 30 28 31 31 29 31 30 32 26 30 27 27 28 27 28 28 29 29 30
38 39 37 37 36 35 34 35 37 38 41 40 41 41 40 33 32 32 33 32 33 33 33 34 33 34 33 35 36 35 33 32 32 31 30 31 29 28 22 25 26 27 28 28 32 36 35
39 40 37 36 36 35 34 34 35 37 38 40 40 40 37 30 32 31 32 33 33 33 33 36 38 36 38 39 39 38 37 36 34 33 32 33 32 31 24 26 23 31 32 32 33 35 36
39 41 39 37 37 35 34 34 34 37 37 39 42 41 39 34 32 31 30 33 35 36 36 38 40 41 40 38 34 33 33 33 34 36 36 36 33 28 25 24 25 28 32 33 34 33 36
39 41 36 37 37 36 35 35 34 35 36 40 41 44 41 36 32 38 29 34 31 33 34 39 42 43 40 38 33 27 27 29 29 32 36 36 36 32 29 24 20 27 32 34 38 31 35
39 41 35 38 38 36 35 33 33 34 36 38 40 43 40 38 40 40 30 31 35 35 36 39 38 39 40 35 29 28 27 30 28 29 29 32 32 28 27 27 27 28 29 38 31 30 36
38 41 36 37 38 37 35 32 34 33 35 37 38 43 39 38 40 43 42 36 35 36 35 39 36 38 36 34 31 31 31 32 32 33 31 30 29 29 30 28 23 29 34 33 34 36 36
38 41 35 38 38 36 34 33 34 34 34 37 37 41 41 38 40 45 45 43 42 42 40 40 39 37 38 35 34 34 31 33 32 27 32 30 30 30 29 28 29 33 35 36 36 35 35

GFSGBSN_sfc_30mbdewp_042.txt.gz
Dewpoint
47 44 44 43 45 47 45 42 43 45 46 46 47 46 46 44 45 43 43 41 40 42 45 51 53 55 52 45 44 49 55 54 55 55 51 50 48 44 39 40 39 37 37 37 37 37 36
45 45 46 48 44 42 43 45 45 44 45 44 44 45 44 44 44 45 44 42 41 42 44 48 52 55 49 38 45 48 54 55 54 55 53 52 49 45 40 38 38 37 37 36 37 37 37
44 45 46 42 42 45 46 46 44 44 44 44 43 44 44 45 44 45 44 43 43 44 45 47 50 52 46 39 42 49 51 54 55 54 51 53 52 44 41 39 39 38 35 36 36 36 36
44 47 43 43 44 46 46 45 45 44 43 43 44 44 44 43 44 44 44 43 43 44 45 46 48 52 41 44 44 43 40 41 47 52 53 52 51 46 43 41 39 36 36 33 34 35 35
47 43 45 41 44 45 44 43 42 42 43 43 43 43 43 44 44 44 44 45 45 44 45 46 47 48 38 45 42 43 40 40 44 48 50 53 50 46 43 38 35 35 31 32 33 35 34
43 43 45 44 45 43 42 41 42 41 42 42 41 43 43 43 42 45 44 44 44 44 45 46 46 41 42 39 41 42 40 39 44 49 48 50 48 44 42 37 30 31 32 32 31 31 32
42 43 42 44 44 42 41 41 42 42 41 42 41 41 42 41 43 44 45 41 35 37 43 41 41 40 39 41 41 41 39 38 45 46 42 46 40 37 40 38 35 33 34 33 33 29 27
43 44 41 43 43 42 42 42 42 42 42 40 39 40 41 43 44 46 45 38 37 39 33 38 42 42 41 40 37 40 39 41 41 41 42 42 38 39 40 40 38 36 33 31 29 28 27
41 41 42 44 43 43 42 42 41 42 42 41 40 41 42 44 45 44 42 39 44 42 34 34 42 42 38 38 36 38 40 41 40 39 36 36 34 37 37 36 36 33 30 28 28 28 27
42 40 44 44 43 42 42 42 41 41 42 39 39 41 42 43 43 43 39 43 44 41 28 28 38 42 40 39 35 38 42 40 40 38 34 34 31 33 34 32 30 28 29 28 28 26 22
41 39 43 44 42 42 42 42 39 40 39 39 41 41 43 45 44 41 41 45 44 38 13 35 38 45 40 37 37 38 39 37 36 36 34 32 31 29 30 30 30 28 29 28 27 26 25
39 40 41 44 42 39 42 41 40 39 41 43 44 44 45 46 45 43 45 45 42 26 16 33 40 39 37 36 36 38 37 37 36 34 32 31 32 31 30 30 30 29 27 27 28 25 18
39 40 40 43 41 39 41 41 39 41 43 46 47 46 47 46 42 45 44 41 24 19 31 30 34 36 35 34 35 37 36 33 31 31 31 30 30 31 31 29 30 27 25 19 17 19 12
39 40 41 42 39 40 40 40 41 42 46 47 48 47 45 46 45 43 40 31 19 27 30 37 34 35 33 32 34 35 33 31 33 30 29 27 26 29 30 30 28 28 25 17 8 14 19
39 42 42 42 38 41 41 40 40 45 47 45 44 43 43 45 44 41 36 21 24 28 34 33 34 33 32 33 34 34 31 31 31 30 26 25 24 31 31 31 29 29 26 26 23 21 20
41 41 40 41 38 41 39 41 40 46 47 45 40 40 41 46 43 39 32 28 29 32 37 33 30 33 29 32 31 31 29 31 29 31 31 28 25 30 31 31 31 27 28 23 23 9 9
41 39 38 40 38 37 39 41 40 44 47 45 37 36 40 45 41 35 28 30 31 37 38 33 31 29 30 29 29 28 27 30 29 29 31 29 27 29 31 28 27 28 26 26 25 23 15
40 39 38 37 37 40 41 40 40 42 46 44 35 28 38 44 30 34 31 33 34 35 39 37 28 30 29 30 28 28 27 29 30 30 29 29 28 25 27 29 29 29 27 25 20 15 24
39 38 38 37 38 39 40 40 40 41 44 45 33 34 41 41 31 32 35 34 35 38 37 33 27 28 30 28 26 27 28 30 31 30 29 28 24 21 23 26 29 28 28 27 26 26 22
40 39 38 37 37 36 36 37 39 40 43 44 34 27 34 39 38 34 31 34 35 38 36 31 28 29 29 27 28 29 28 30 32 32 32 30 26 22 18 22 26 25 28 28 26 25 23
39 40 38 38 37 35 35 35 38 40 42 45 38 33 36 32 36 36 37 36 33 32 33 31 29 30 30 29 30 30 30 30 32 33 32 28 25 27 27 28 28 27 27 28 26 26 25
38 41 39 37 37 36 35 35 36 39 41 40 36 35 37 36 36 34 35 33 33 33 33 32 32 32 30 30 30 29 30 29 28 31 30 31 25 29 25 27 28 26 27 27 27 27 27
38 41 39 38 37 36 35 35 35 38 40 38 39 41 39 33 34 32 32 32 32 33 34 37 34 33 33 35 35 32 31 31 31 30 30 30 28 27 21 25 26 26 27 28 28 29 29
38 40 41 39 38 35 36 35 35 36 38 39 40 40 36 30 32 31 33 34 33 34 34 37 38 35 38 39 38 36 36 34 32 32 32 31 30 30 24 25 23 31 31 31 29 30 35
38 40 40 38 39 38 36 34 34 34 36 39 40 40 38 33 34 31 33 35 36 36 37 38 40 41 41 39 34 31 32 32 34 35 34 34 32 28 25 23 25 27 32 32 32 31 34
38 39 41 35 39 39 36 34 33 34 35 38 40 44 40 36 33 39 32 34 32 32 33 38 42 42 40 37 32 26 25 28 30 33 36 36 35 31 28 23 20 27 30 36 36 30 36
38 38 42 36 39 38 36 33 32 34 33 37 38 43 39 37 40 40 31 32 35 36 35 38 38 38 39 34 29 28 27 31 28 28 31 32 32 28 27 25 26 28 30 38 30 30 35
39 38 41 35 38 38 35 34 33 33 34 35 37 42 39 37 39 43 43 37 36 36 34 38 36 37 36 33 29 30 30 31 32 32 31 30 28 28 28 26 23 29 36 33 34 36 36
40 38 40 37 37 38 35 37 36 36 31 36 36 41 42 37 39 42 43 44 42 41 39 39 39 36 37 35 33 33 31 32 32 27 33 29 30 29 30 27 29 30 34 36 36 35 35

GFSGBSN_sfc_30mbdewp_045.txt.gz
Dewpoint
46 45 46 47 43 43 46 47 47 46 45 45 44 44 44 45 45 45 45 45 44 41 40 41 46 50 53 44 42 46 53 55 54 56 53 50 46 44 40 40 39 38 37 38 38 38 38
45 46 49 43 44 44 46 46 46 45 45 44 44 44 44 44 45 45 45 44 44 42 42 43 46 50 48 37 42 44 47 54 54 55 51 50 47 45 41 39 39 38 38 37 37 36 37
46 48 44 44 41 46 46 45 44 43 42 42 43 44 44 44 44 44 44 44 44 43 44 44 45 50 46 40 42 47 54 54 55 54 51 52 50 44 42 38 39 38 35 36 37 36 36
45 45 44 44 45 45 44 43 42 43 42 41 42 43 42 43 44 44 44 44 44 44 44 44 45 49 43 45 45 43 41 51 56 56 52 53 51 46 42 41 38 36 36 33 34 35 35
46 45 45 42 44 44 43 43 42 42 42 42 42 43 42 43 44 43 45 44 44 44 45 45 44 45 40 45 43 42 41 41 47 51 53 51 50 45 42 38 35 34 32 33 33 35 34
44 45 43 43 43 44 43 43 43 42 42 42 41 41 41 42 42 43 45 45 45 44 44 45 44 42 43 40 41 41 41 40 44 48 49 49 47 43 41 37 30 32 31 32 31 31 31
45 42 42 44 45 44 44 43 42 43 43 43 42 41 42 42 43 45 46 41 33 36 41 35 38 39 41 41 42 41 40 38 48 47 43 46 41 38 39 38 34 33 33 32 33 32 28
45 43 43 45 45 42 43 43 43 43 41 44 42 39 41 42 45 45 45 39 36 37 30 35 37 41 45 42 40 40 39 38 43 41 43 42 38 40 42 41 39 35 34 32 30 29 28
43 41 42 43 44 43 41 43 43 41 40 40 39 40 41 43 44 43 42 39 41 41 32 30 39 42 43 39 38 40 38 41 41 40 39 36 37 41 40 39 38 36 34 31 29 28 27
42 40 42 43 44 43 40 43 42 40 41 42 43 44 42 43 43 44 39 43 43 42 24 30 35 41 43 39 36 39 41 41 40 38 36 32 32 38 36 37 36 30 29 29 27 26 25
41 41 39 40 44 39 41 41 40 42 44 45 46 47 45 45 43 42 42 45 44 38 -9 30 37 48 42 37 37 38 42 38 38 36 34 32 30 34 34 33 30 28 29 28 27 25 24
40 41 41 43 42 38 41 41 42 43 46 46 47 47 47 45 45 43 45 45 39 23 17 31 38 37 36 37 37 40 38 37 38 33 32 31 33 31 30 31 30 30 27 26 27 24 18
40 41 43 42 40 39 42 40 42 45 47 44 46 47 46 45 38 46 45 39 22 17 32 30 33 36 35 35 37 37 34 33 33 31 31 30 30 31 31 29 30 27 26 18 13 17 11
40 42 41 40 41 39 38 41 41 45 47 44 45 45 45 45 45 43 39 29 19 26 28 37 36 34 34 34 36 35 33 31 32 32 31 27 26 29 31 29 28 27 25 15 4 10 17
40 42 39 39 38 38 40 40 40 44 46 45 43 42 43 44 44 41 36 23 23 28 31 35 35 32 32 34 36 35 32 30 31 29 26 25 24 31 31 31 29 28 25 25 22 20 19
41 41 39 39 39 41 41 40 40 42 45 47 38 39 39 44 44 39 31 27 29 32 34 33 30 33 28 32 33 32 30 31 30 31 31 27 26 30 31 31 30 27 28 23 22 7 4
41 41 39 39 38 38 38 39 40 42 44 44 36 32 37 44 41 34 27 29 31 36 38 32 31 30 30 29 31 29 29 29 30 30 31 29 27 30 30 28 28 27 26 26 24 20 14
40 41 39 39 39 37 37 38 40 41 44 43 34 28 37 43 30 33 31 33 35 36 38 35 31 30 29 29 27 27 27 28 31 30 28 29 27 27 27 28 29 29 26 25 18 16 24
40 41 39 39 39 37 37 37 39 41 43 44 32 33 40 40 31 31 34 34 36 37 37 33 28 29 30 28 25 27 28 30 31 29 29 27 24 21 23 25 28 27 28 25 25 24 21
39 40 40 39 39 37 36 36 38 40 42 42 34 29 33 38 38 34 33 35 34 38 33 30 28 30 27 28 29 28 28 32 32 30 33 29 25 21 16 21 25 25 27 27 26 24 22
39 40 42 39 39 38 37 36 37 39 41 43 36 34 36 31 33 35 36 35 32 32 32 31 29 29 29 29 29 28 29 30 32 35 31 28 25 26 26 27 28 27 26 28 26 26 23
38 39 42 39 39 37 36 36 36 38 40 40 35 35 37 35 35 34 33 33 32 34 33 30 31 32 31 30 29 29 29 29 28 31 31 29 27 28 24 26 27 26 27 27 28 28 27
38 38 42 40 39 38 37 35 35 36 39 37 39 41 39 33 33 31 32 32 32 33 36 37 34 34 33 35 34 32 31 30 30 29 30 29 27 25 20 24 26 24 26 26 27 27 26
40 38 41 39 39 39 37 35 35 34 39 38 39 39 36 30 32 31 32 34 35 35 34 38 38 35 38 39 38 36 34 32 31 31 31 29 28 28 24 24 18 25 30 28 27 28 29
39 38 40 42 37 39 38 36 34 34 34 37 39 39 37 32 34 32 33 35 35 36 37 38 39 41 41 38 33 30 31 30 33 34 33 32 31 27 24 23 23 26 29 32 30 31 33
39 39 39 42 37 39 39 35 34 33 34 36 39 43 39 35 32 38 36 34 31 32 34 37 41 42 39 35 31 25 23 27 30 33 37 35 35 30 27 22 19 28 31 35 35 30 35
39 39 40 41 37 38 38 35 33 32 33 35 37 42 38 36 38 40 33 33 35 35 34 37 37 37 38 32 29 28 27 31 27 29 30 32 32 28 25 24 24 27 29 38 29 31 35
39 40 39 40 40 36 39 36 32 33 33 33 37 43 38 36 38 41 43 40 37 36 32 37 35 36 35 32 29 29 29 31 30 30 32 30 29 27 28 25 21 29 36 33 34 36 35
40 39 39 39 39 35 38 37 37 37 35 34 36 41 42 36 37 41 41 42 43 42 39 39 38 35 36 34 32 32 30 32 31 28 33 30 31 29 28 26 28 30 31 35 36 35 34

GFSGBSN_sfc_30mbdewp_048.txt.gz
Dewpoint
46 46 49 45 46 44 46 47 46 46 44 42 43 43 44 44 44 45 45 45 45 45 44 42 41 43 50 44 41 46 50 50 51 53 52 50 46 43 40 40 39 38 37 39 39 39 38
47 46 45 45 45 46 46 46 44 43 43 43 42 43 44 43 44 44 44 44 45 45 45 43 44 45 47 40 43 44 44 52 51 54 52 50 47 44 41 40 38 39 38 38 38 37 36
45 46 45 44 45 44 45 45 43 44 43 43 43 42 43 42 43 43 44 44 44 45 44 43 44 46 44 42 43 44 50 53 52 54 52 50 48 45 41 38 40 38 36 37 36 36 36
47 44 45 43 43 44 46 45 45 44 44 42 42 42 43 43 43 43 44 44 44 44 44 44 44 45 41 47 48 48 43 54 55 55 52 52 49 45 41 40 38 37 35 33 35 36 36
45 44 43 43 45 45 46 44 44 43 43 44 44 43 42 41 42 43 44 45 45 45 44 44 43 42 38 47 46 47 44 49 54 54 53 49 50 44 42 37 35 35 31 33 33 35 34
44 45 42 42 44 45 45 43 44 44 43 43 44 44 43 42 43 43 45 45 44 43 44 44 43 38 44 40 44 42 42 45 47 50 49 47 45 42 40 36 28 31 31 32 31 31 33
44 43 42 42 43 44 45 41 44 44 43 41 39 41 40 40 43 44 46 41 34 32 39 33 36 37 41 43 46 42 40 43 48 48 43 45 41 37 37 37 34 33 32 31 32 32 30
42 42 41 43 44 44 41 41 43 42 41 42 43 42 42 40 43 45 45 38 35 36 31 33 35 35 38 44 41 42 39 39 44 40 43 41 38 41 40 39 35 34 33 33 32 29 28
43 41 41 42 42 44 38 42 41 41 44 45 46 46 45 44 42 43 41 39 40 41 32 34 37 40 42 45 40 39 38 41 41 40 39 36 39 41 41 39 37 37 35 32 30 28 27
42 41 42 43 43 39 40 43 41 44 46 47 45 46 46 45 42 43 39 44 43 42 20 30 34 40 41 42 38 40 39 42 41 38 38 33 40 40 39 38 38 34 34 30 27 27 25
42 41 43 42 42 38 42 40 44 44 46 45 47 47 47 45 42 39 41 45 43 37 -12 30 36 47 44 39 40 38 43 40 38 38 37 34 38 38 38 37 37 30 29 28 26 25 24
42 41 43 40 41 39 38 43 43 44 46 45 47 47 46 44 43 43 45 43 38 20 11 29 38 36 37 36 38 40 40 38 38 34 35 32 32 32 32 31 31 29 27 26 25 24 19
41 42 42 41 39 40 42 42 42 43 45 45 45 46 46 44 39 45 44 37 20 17 31 30 32 36 36 34 37 37 35 35 34 30 30 31 30 31 31 29 29 28 28 24 11 16 12
41 42 41 41 40 38 39 40 41 43 45 48 45 45 44 45 46 43 39 27 18 26 28 35 36 37 34 35 36 36 34 31 31 32 30 28 27 29 31 29 28 27 26 19 3 8 15
41 42 41 40 40 39 38 39 41 42 45 47 43 40 42 43 44 41 35 21 23 27 31 32 35 32 32 36 35 35 32 30 31 29 27 25 26 31 31 31 29 27 25 25 21 19 18
41 42 41 40 40 39 38 39 40 41 44 46 38 37 37 43 45 38 28 27 29 32 35 35 30 31 29 33 32 33 30 31 30 31 30 27 26 30 30 30 30 28 28 22 20 10 2
41 41 42 40 40 39 38 38 39 41 44 44 34 30 35 43 39 33 27 29 32 36 37 32 31 30 31 32 31 29 28 30 30 31 30 28 27 30 30 28 27 27 26 25 23 20 10
40 41 42 40 40 39 38 38 39 41 43 42 33 27 36 41 32 33 32 34 37 36 38 31 30 30 29 29 28 28 28 28 31 30 28 28 28 27 27 28 29 28 26 24 16 17 22
40 40 41 41 40 39 38 37 38 40 42 44 33 31 38 40 31 33 35 35 36 36 36 29 29 29 29 27 25 27 28 31 31 29 28 27 24 23 25 27 28 28 27 25 23 22 20
40 40 41 42 40 39 38 37 37 38 41 42 34 29 34 37 38 36 35 35 34 37 32 29 29 29 28 28 29 28 28 33 32 30 32 28 24 20 16 20 26 25 27 25 24 22 20
40 39 40 43 42 40 38 37 37 37 40 41 35 34 36 32 34 35 36 34 32 31 32 31 29 29 29 28 29 28 30 31 33 35 30 28 25 26 25 26 27 26 26 27 25 25 21
40 39 40 43 41 40 39 37 36 36 40 38 34 35 36 34 34 33 32 32 33 34 34 31 31 33 31 28 28 28 29 29 29 31 30 28 27 28 24 26 27 26 27 27 27 26 26
40 40 39 42 39 39 40 37 35 36 38 36 38 39 37 34 32 31 32 32 32 34 36 37 35 34 31 34 34 31 31 31 30 30 29 28 27 25 20 24 26 23 26 26 27 28 27
40 39 39 41 40 38 40 38 35 35 38 37 38 39 35 30 32 31 32 35 35 35 34 38 38 35 37 38 37 35 33 32 31 32 31 28 27 27 23 23 16 20 29 28 26 25 28
40 39 39 40 43 39 39 39 35 34 34 35 38 38 37 31 33 33 34 35 35 37 37 37 39 40 41 37 31 29 30 30 33 34 32 30 30 26 23 23 22 25 30 29 28 31 31
40 40 40 39 42 39 38 39 35 33 34 34 38 41 39 34 32 37 37 34 31 32 34 37 41 41 39 34 30 24 24 27 29 33 36 34 32 27 25 21 19 26 32 35 34 31 34
40 40 40 40 40 42 38 39 36 33 34 34 34 40 37 34 36 40 36 33 35 33 32 36 37 36 37 31 29 26 26 30 27 28 28 31 32 27 24 22 24 26 29 37 31 31 35
41 39 41 40 39 41 37 38 36 35 36 33 32 41 38 34 36 39 43 41 37 36 32 36 34 35 35 31 28 28 28 30 29 30 28 27 27 26 27 24 20 29 36 33 35 35 35
39 39 40 39 39 42 38 36 36 37 37 35 31 40 41 35 36 40 40 40 42 42 39 39 36 35 35 34 32 31 30 33 31 27 33 29 30 27 26 25 28 31 31 32 36 35 35

GFSGBSN_sfc_30mbdewp_051.txt.gz
Dewpoint
45 46 46 45 47 44 44 45 45 46 45 44 43 43 43 43 44 44 44 44 44 45 45 45 45 44 45 45 44 46 47 45 51 50 51 49 47 46 41 41 39 38 38 39 39 39 38
44 47 44 45 42 44 46 47 47 46 45 45 44 43 42 43 43 42 43 44 45 45 45 45 45 46 43 37 45 48 45 46 49 49 51 49 47 45 42 41 38 39 38 38 38 37 37
46 45 46 44 43 45 46 46 45 44 44 44 44 44 43 43 43 43 44 44 44 44 44 45 44 44 42 39 44 48 46 52 50 49 51 52 46 43 41 39 40 39 37 37 36 37 36
45 45 46 43 43 44 46 46 43 44 45 45 44 45 45 44 43 42 43 44 44 45 45 44 44 43 37 45 48 48 49 49 52 53 52 52 48 43 40 39 38 37 35 33 35 36 35
44 44 42 44 44 44 45 45 41 43 45 44 43 42 44 44 41 43 43 45 45 45 45 44 43 40 35 49 46 47 47 44 53 54 53 52 48 45 41 37 36 35 30 32 32 36 35
44 43 42 44 42 44 44 39 42 44 42 43 44 44 42 41 40 43 44 45 44 44 44 44 42 36 39 41 45 45 43 49 49 50 46 45 43 41 40 36 27 31 31 33 29 31 33
45 43 42 43 44 46 40 40 45 42 44 45 46 47 46 43 41 43 45 41 32 31 38 31 32 34 39 45 48 45 41 48 48 45 40 44 39 35 37 37 32 32 31 31 32 32 30
43 43 42 43 41 44 39 44 41 45 45 45 45 46 46 46 44 44 44 37 34 36 29 33 35 35 37 43 42 43 43 44 43 41 40 41 35 37 38 36 33 33 32 32 32 29 29
43 43 42 44 41 41 40 41 44 44 45 46 46 47 47 47 45 43 40 38 43 41 30 31 37 35 36 44 39 40 41 41 42 39 36 35 39 40 38 38 35 35 32 31 30 28 27
43 43 44 41 41 39 41 44 43 44 45 46 46 46 47 46 41 42 38 43 43 41 19 29 34 37 43 42 38 40 39 43 41 39 37 36 41 40 39 37 37 34 37 32 28 27 25
43 42 45 42 40 40 43 44 43 44 45 46 45 46 45 45 42 39 41 44 43 30 6 27 34 45 44 40 38 38 43 42 38 38 37 34 40 38 37 38 38 35 31 28 27 26 25
43 42 43 41 41 40 39 40 41 43 45 47 45 46 46 41 42 43 44 42 34 17 12 28 37 35 38 38 38 40 40 41 41 37 35 31 34 36 37 38 38 30 27 26 25 24 22
43 42 43 41 41 40 39 40 41 42 44 47 46 45 45 45 40 45 44 33 20 17 27 30 32 33 36 36 36 37 38 34 34 31 30 34 33 31 36 33 31 28 28 23 13 20 18
42 42 43 41 41 40 39 39 40 41 44 45 47 43 44 44 43 42 39 26 18 26 29 34 33 36 32 36 36 36 35 32 32 33 31 29 26 30 31 30 29 27 28 23 8 8 12
42 41 43 41 41 40 40 39 40 41 44 45 43 39 40 42 44 41 34 23 23 27 31 32 35 32 33 35 34 35 33 30 31 29 27 25 27 31 31 31 29 26 25 23 20 19 17
42 41 41 42 41 40 40 39 39 41 44 45 38 36 35 42 44 37 27 28 30 32 34 35 29 31 30 32 33 33 31 31 30 31 29 27 26 31 30 30 29 27 27 23 20 8 4
42 41 41 42 41 41 40 39 39 40 43 44 34 29 33 43 38 35 29 31 33 36 36 32 31 29 32 30 31 29 27 31 31 30 29 28 27 30 30 28 27 26 25 24 21 18 7
42 41 41 44 42 41 40 39 39 39 43 43 33 27 36 40 32 33 33 34 36 35 37 32 30 30 29 29 28 28 26 29 31 30 27 28 29 27 28 28 29 28 26 23 16 17 21
41 41 41 42 43 41 40 39 38 39 42 44 35 31 36 40 31 32 35 35 36 36 34 29 28 29 29 27 26 28 27 31 31 29 27 27 25 24 25 27 28 28 27 24 21 22 19
40 41 40 41 44 41 40 39 38 38 41 41 34 29 33 36 38 35 34 34 33 37 31 30 29 28 28 27 28 27 28 32 31 32 32 27 24 20 15 20 26 26 27 25 23 21 19
40 40 40 40 44 41 41 39 37 37 39 40 34 33 35 30 33 34 35 34 32 31 33 31 30 28 28 27 28 28 30 32 33 35 30 28 24 25 25 26 26 26 27 26 24 24 21
40 40 40 39 43 40 40 39 37 37 39 38 34 34 36 34 33 32 32 32 33 34 33 31 30 32 30 27 27 27 29 29 29 31 29 28 27 27 24 26 27 26 27 27 26 26 25
40 40 39 39 41 41 39 40 37 36 37 35 38 39 37 33 31 31 32 32 33 35 37 36 34 32 30 32 35 31 31 30 30 30 29 27 26 24 20 24 25 23 26 27 27 28 27
41 40 39 39 40 42 39 39 37 35 37 35 36 37 35 30 31 31 32 34 35 35 34 38 37 33 35 37 35 34 33 32 31 31 30 27 26 26 23 22 16 19 28 28 27 27 28
42 41 40 40 40 41 40 39 37 35 35 34 36 37 36 31 32 32 35 34 34 36 37 37 39 40 40 36 31 29 30 29 33 35 31 29 28 26 23 22 20 26 29 27 27 30 28
41 41 40 40 41 40 42 38 40 35 34 34 35 40 38 33 32 35 36 35 31 32 34 37 40 40 37 33 29 23 23 26 28 32 35 33 30 25 24 20 16 24 32 33 33 31 34
41 41 40 40 40 40 41 40 39 37 36 34 32 39 36 32 35 39 37 33 34 32 31 36 36 36 36 30 28 25 24 29 26 28 29 31 32 26 24 22 22 25 28 37 31 31 34
42 41 40 40 40 39 40 41 38 38 36 36 31 38 36 32 34 39 41 41 37 35 31 35 33 34 34 30 28 28 27 30 29 30 27 26 26 26 27 23 18 27 36 34 35 35 35
43 41 40 40 40 40 43 42 36 37 37 38 31 37 39 34 34 39 39 40 40 42 38 38 35 34 34 33 30 30 29 33 31 28 33 28 28 27 25 23 26 31 31 34 34 35 35

GFSGBSN_sfc_30mbdewp_054.txt.gz
Dewpoint
46 46 44 48 45 43 45 48 47 46 44 45 46 46 45 44 44 44 42 43 44 44 44 45 45 46 44 37 37 48 50 47 53 51 47 47 46 46 41 40 39 35 36 35 35 38 38
46 46 47 47 45 45 44 47 46 46 44 46 46 45 45 45 45 44 44 44 45 45 45 45 46 46 40 34 39 44 48 46 47 50 46 47 44 45 40 40 38 36 35 35 35 37 37
45 47 43 46 44 44 45 45 44 42 43 45 45 45 45 45 45 44 43 44 44 44 44 45 45 43 38 33 42 47 49 45 48 48 45 49 45 43 42 39 40 38 35 34 36 34 32
46 43 44 44 43 44 46 41 40 43 45 45 45 45 45 44 44 44 43 43 44 45 46 45 44 42 33 36 39 44 48 45 48 47 47 50 48 42 39 39 38 35 33 30 29 34 36
46 45 44 42 45 44 43 41 46 44 45 46 46 47 47 46 43 41 42 44 45 45 45 45 42 38 28 42 43 43 47 44 48 48 50 50 48 40 40 36 33 32 23 24 30 35 30
44 44 42 45 45 43 41 43 41 45 45 46 45 45 46 47 44 41 44 45 45 44 44 43 40 34 31 36 42 46 48 46 49 46 48 47 45 40 36 32 22 26 25 27 24 32 35
44 44 43 46 41 41 40 41 45 45 46 46 45 46 46 47 47 42 45 41 33 34 38 29 29 32 36 42 48 47 44 49 48 45 41 42 39 36 35 31 28 27 27 23 28 31 30
44 43 44 43 42 41 43 45 44 45 46 46 44 46 47 47 46 45 44 36 34 37 28 32 32 33 34 41 42 46 45 46 41 37 40 39 37 34 35 35 32 29 25 25 32 31 30
44 43 44 42 42 42 40 42 43 45 46 46 44 45 47 47 46 43 40 39 43 40 29 29 35 33 36 41 39 39 42 45 40 38 38 37 38 37 34 34 31 31 27 29 28 29 28
44 43 44 42 42 42 40 41 42 44 46 46 45 46 45 44 40 41 39 43 43 41 25 24 34 36 39 43 37 42 45 44 42 34 37 36 40 36 34 32 31 30 35 32 30 29 24
43 43 45 43 43 41 41 41 41 43 45 46 46 46 45 44 41 38 40 44 43 35 14 29 35 42 42 39 38 37 46 45 37 37 37 34 37 38 34 33 34 34 34 30 28 27 27
43 42 44 43 43 41 41 40 41 42 44 45 47 45 45 43 42 44 44 41 36 25 16 30 35 35 37 37 37 39 40 43 42 36 37 37 42 39 38 39 36 31 29 27 27 27 25
43 42 43 44 42 42 41 40 41 41 43 45 46 46 44 43 38 45 44 38 27 20 27 29 32 35 34 35 34 36 37 36 35 32 32 34 34 38 39 34 35 30 30 26 23 25 21
43 42 42 44 42 42 41 40 40 41 42 45 46 45 44 43 44 43 40 31 21 27 29 34 34 35 33 36 35 37 34 31 33 35 32 30 27 33 37 35 32 33 30 25 16 14 14
43 42 41 44 41 42 40 40 40 40 42 46 44 40 41 43 45 42 35 27 26 28 32 32 35 32 32 33 35 35 33 32 30 33 30 30 29 31 31 30 32 28 29 24 21 20 18
43 42 42 42 43 41 41 40 40 40 43 45 41 38 37 43 45 39 34 30 31 33 35 35 29 30 28 31 33 34 31 31 30 31 30 28 28 30 30 31 29 29 27 24 25 15 11
43 42 42 42 44 43 41 41 40 40 42 44 37 33 36 44 41 38 31 32 34 36 37 33 30 30 30 30 31 28 28 30 31 29 29 29 28 30 30 29 28 26 26 25 23 19 7
42 42 41 41 45 42 41 41 40 39 42 45 39 34 39 42 36 36 33 34 35 36 38 34 31 31 29 29 28 27 26 29 31 30 27 29 29 27 29 29 29 28 26 23 21 20 22
42 41 41 40 44 42 41 41 39 39 41 44 37 35 39 42 33 33 35 36 36 35 33 29 29 30 29 27 27 27 28 32 31 30 27 28 27 24 26 27 29 28 27 24 24 25 22
42 41 41 41 43 41 41 40 39 38 39 43 37 33 36 40 39 35 34 34 33 36 33 30 29 29 28 27 28 27 28 32 32 33 31 28 26 24 19 24 28 28 28 25 26 23 20
41 41 40 40 40 42 41 40 39 38 38 41 37 33 34 33 34 35 35 34 32 31 34 32 28 28 27 25 27 27 31 31 33 33 30 29 26 26 25 26 28 28 28 26 25 25 22
39 41 40 40 38 42 41 40 38 38 37 38 34 34 35 33 34 33 34 33 33 34 35 30 28 31 30 26 26 26 29 29 28 31 29 29 28 28 25 26 27 27 27 27 26 26 25
40 41 40 39 39 41 41 40 38 38 35 36 37 38 37 33 32 31 32 33 33 36 37 36 33 31 30 32 34 31 31 30 30 29 29 28 28 27 23 25 25 24 25 26 27 27 26
40 42 40 40 40 40 42 40 39 36 37 36 34 37 34 31 32 31 33 33 36 35 34 37 37 32 33 34 34 33 32 32 31 30 30 28 28 27 25 24 19 22 28 27 26 27 28
40 42 41 41 41 42 41 42 40 38 37 35 36 38 35 31 32 32 35 34 35 37 37 37 39 39 38 36 30 28 29 28 32 34 30 28 29 27 24 22 22 24 28 28 27 27 27
40 42 42 41 41 41 41 41 41 39 37 36 37 39 37 32 29 34 35 36 33 34 35 37 40 41 37 34 30 24 22 26 26 31 34 31 29 27 25 21 16 27 33 34 30 33 34
42 42 42 41 40 41 40 40 41 39 39 37 35 38 35 31 32 37 35 36 34 33 33 36 37 37 36 32 29 25 24 28 26 26 28 29 30 26 24 21 22 24 26 36 31 32 35
43 42 42 41 40 40 40 41 43 39 37 38 36 39 34 31 32 32 33 38 38 36 32 36 35 35 35 31 30 29 27 29 27 29 27 26 25 26 26 22 20 27 35 33 36 35 35
44 43 42 40 40 40 40 39 42 39 37 39 36 37 38 32 31 36 36 37 37 39 40 38 34 34 35 33 31 32 29 32 29 25 31 26 26 25 25 23 26 31 32 33 35 35 36

GFSGBSN_sfc_30mbdewp_057.txt.gz
Dewpoint
47 47 45 45 45 44 44 45 47 44 43 44 45 46 46 46 46 46 45 44 44 44 45 45 46 46 44 38 34 37 51 51 54 52 43 43 39 42 40 39 36 33 30 30 33 37 36
46 47 44 45 44 44 46 46 43 44 46 46 46 46 46 46 45 45 45 45 45 45 45 46 46 46 39 33 33 32 49 48 53 51 42 41 39 42 40 39 35 35 34 33 33 36 37
47 47 44 43 44 45 44 43 44 45 45 46 47 47 47 47 46 45 45 44 44 44 45 45 45 42 37 32 33 48 50 49 47 52 42 41 40 39 40 39 38 36 33 33 32 33 33
46 45 44 45 46 42 42 43 43 43 46 46 46 46 45 47 47 44 44 42 44 44 45 45 45 41 34 33 34 34 46 50 47 50 43 42 44 39 39 39 38 35 33 30 30 32 32
45 45 44 45 43 43 42 44 44 46 46 46 46 45 46 46 47 44 42 43 44 45 45 45 42 38 28 35 31 35 43 46 45 51 43 43 47 40 39 35 34 33 26 25 24 29 32
45 45 44 45 43 42 41 45 45 45 45 46 45 46 47 47 47 43 42 45 44 44 44 41 40 34 30 27 34 40 43 45 45 45 43 46 44 39 36 32 26 25 24 20 20 31 29
45 45 44 45 43 43 42 42 44 44 45 46 45 46 47 47 47 43 44 39 35 36 36 30 29 28 32 38 43 38 46 45 47 41 38 44 40 36 33 29 24 21 22 17 20 31 29
45 44 45 44 44 42 42 41 43 44 46 47 46 46 47 46 45 45 41 33 35 37 29 30 30 30 31 41 38 44 45 37 44 35 35 41 34 37 32 28 26 26 22 21 26 29 28
45 44 45 44 44 43 42 42 42 44 45 47 47 46 45 46 45 41 38 38 42 39 31 28 33 32 34 42 39 42 44 42 39 32 36 33 36 39 39 31 28 25 25 22 25 30 29
43 43 45 44 43 43 42 42 41 42 44 46 46 46 45 45 42 39 36 41 42 39 28 26 34 37 40 41 37 43 47 44 39 35 38 36 38 38 38 32 28 24 25 25 29 26 16
44 43 44 46 43 43 42 42 41 42 42 45 45 47 46 44 39 36 40 40 41 38 18 31 33 41 41 40 40 41 46 45 37 36 38 35 36 39 32 32 29 25 32 31 30 28 27
44 43 43 45 43 43 42 42 41 41 42 43 46 46 46 42 40 41 41 40 38 28 19 31 37 36 38 38 39 43 42 42 39 36 37 38 40 40 37 36 33 35 31 30 29 28 25
44 42 43 44 43 42 42 42 41 41 41 43 45 47 45 41 37 43 42 39 29 22 32 31 33 36 32 33 37 38 37 37 35 31 30 32 33 39 38 34 34 33 31 28 27 26 22
44 42 42 42 45 43 43 42 41 41 41 43 45 46 43 40 42 42 39 35 23 28 29 36 36 34 34 35 35 35 36 33 35 35 32 30 27 33 37 36 34 34 31 27 19 20 20
44 43 43 42 45 44 42 43 41 41 42 44 45 40 40 42 43 43 37 29 27 29 33 34 32 32 31 32 34 35 32 31 33 33 32 30 29 36 37 38 37 34 30 27 19 19 16
43 43 42 42 44 43 42 42 41 41 42 44 41 38 37 42 44 40 36 29 32 34 35 34 28 29 26 28 30 31 29 30 30 30 30 31 29 32 33 36 33 34 29 27 28 17 10
43 42 42 42 43 44 41 42 41 40 41 44 39 34 40 43 43 38 31 33 35 36 36 33 28 28 27 27 27 27 27 30 30 28 29 29 28 31 30 30 28 27 27 26 25 19 10
42 42 42 42 43 43 41 42 41 40 41 43 41 39 40 44 38 36 32 33 35 35 37 34 31 29 27 28 27 26 26 28 31 29 26 30 29 27 29 29 29 28 26 25 24 21 21
41 42 42 41 41 44 42 41 41 40 39 43 38 36 41 44 34 33 35 35 35 32 31 29 29 30 30 27 26 26 27 32 31 29 27 28 28 25 26 27 29 28 27 25 24 27 25
41 41 41 41 40 43 42 41 40 39 38 42 37 35 38 39 38 34 32 33 31 36 31 30 28 29 28 26 27 27 28 32 32 31 31 28 26 26 21 27 28 28 27 26 28 25 19
40 40 41 41 40 41 42 41 40 39 37 41 35 33 35 34 34 34 34 32 29 29 32 30 28 27 26 25 25 26 29 31 32 31 30 29 28 26 26 26 30 29 28 27 27 25 22
40 40 41 40 40 41 43 41 40 38 37 35 33 34 34 33 34 33 32 30 30 32 32 28 27 28 27 24 24 25 27 27 26 30 28 30 28 28 26 26 27 27 26 27 27 26 24
39 39 39 40 41 41 41 42 41 39 34 31 32 37 37 33 32 31 32 32 32 34 36 34 30 28 27 32 32 29 29 28 28 27 27 28 29 28 24 25 25 23 25 25 26 26 26
38 39 42 41 41 42 42 42 40 38 36 32 32 37 34 29 31 31 32 33 34 34 33 35 35 31 33 33 32 31 30 30 30 29 29 28 28 27 24 24 20 27 27 26 25 26 26
39 39 43 42 42 41 42 41 41 40 38 33 34 35 33 27 28 30 33 35 35 37 36 36 38 34 36 35 30 27 28 27 30 31 28 28 26 25 23 22 22 21 26 27 26 26 26
41 40 42 42 42 41 41 40 41 40 39 35 35 36 35 30 26 33 33 36 35 33 35 38 40 40 39 34 30 24 22 23 24 30 32 30 28 26 25 22 18 29 32 30 30 29 30
41 42 43 42 42 41 41 41 42 42 39 37 35 36 31 28 26 33 34 35 37 34 34 36 36 37 37 33 30 26 23 26 24 23 27 28 28 26 23 22 21 24 33 35 31 33 35
42 43 43 43 41 40 41 40 41 42 41 37 35 38 33 28 26 27 29 32 34 37 34 36 35 36 35 32 30 28 26 25 25 25 24 25 24 24 24 23 20 26 29 31 35 36 36
43 44 43 43 41 39 41 40 40 42 38 39 35 37 37 35 28 28 29 34 38 37 36 38 35 33 33 31 32 31 29 29 25 23 28 24 25 24 24 24 28 33 34 36 36 36 37

GFSGBSN_sfc_30mbdewp_060.txt.gz
Dewpoint
47 47 46 45 45 47 44 45 44 45 45 46 47 47 47 48 47 47 46 46 45 44 44 45 46 46 44 39 37 37 48 42 51 54 47 47 39 43 41 40 38 36 33 31 32 37 36
47 46 46 45 47 43 44 43 44 44 47 47 47 47 47 47 47 47 46 45 45 45 45 46 45 46 41 33 35 35 40 49 48 51 49 44 38 42 40 38 37 36 35 33 33 37 36
47 46 46 46 45 44 43 44 47 47 46 46 46 46 46 46 47 47 47 45 45 44 45 45 45 42 38 34 34 47 48 42 49 50 48 42 40 37 40 39 40 35 33 35 32 35 35
47 46 46 46 44 44 43 43 44 45 45 46 47 45 46 46 47 47 46 44 43 44 44 45 45 42 35 35 36 34 44 45 48 49 50 42 40 38 39 40 39 35 34 32 32 33 34
46 46 45 46 44 44 43 42 45 46 46 46 46 46 46 47 47 46 44 42 44 44 45 45 43 40 31 33 32 32 33 39 45 48 50 46 42 41 38 37 36 36 29 30 30 32 31
46 45 45 45 45 44 43 42 43 45 45 46 46 46 47 47 46 43 42 43 44 45 44 40 41 36 34 28 38 34 39 46 45 47 46 44 42 40 38 36 30 31 32 27 27 30 31
46 45 45 46 45 44 43 43 42 43 45 45 46 46 46 45 45 43 44 43 37 37 36 32 31 31 31 36 42 39 44 41 42 47 39 40 38 35 36 35 31 27 28 27 25 30 29
45 45 45 45 44 44 43 43 42 42 44 45 45 47 45 46 45 44 43 33 37 37 30 30 29 29 33 38 37 38 44 39 39 38 38 38 35 36 36 34 30 25 23 24 23 31 30
45 44 45 45 45 44 43 43 42 42 42 43 45 46 46 45 45 44 35 38 41 39 31 29 33 33 36 39 36 38 44 42 38 37 35 33 34 37 36 32 29 25 24 21 24 29 29
45 44 44 45 45 43 43 43 42 42 42 42 44 46 47 45 43 39 36 39 41 39 29 29 34 39 40 38 34 45 45 42 41 33 34 38 39 38 38 35 29 25 25 24 28 28 22
45 44 44 44 45 44 43 44 43 42 42 42 43 46 47 46 43 36 39 40 40 39 17 32 34 41 41 35 38 41 46 42 38 37 37 35 37 37 36 36 31 25 26 29 29 28 27
44 44 43 44 44 45 44 43 43 42 42 42 43 45 47 43 44 40 41 42 40 28 20 31 34 34 35 38 39 40 42 44 39 36 37 37 39 39 37 40 39 32 31 30 30 29 26
44 43 44 44 44 45 43 42 43 42 42 42 44 45 46 42 39 42 42 40 28 23 33 31 32 37 36 36 36 36 36 37 34 30 31 35 34 38 40 37 36 32 30 25 25 25 24
44 44 44 43 43 44 44 43 43 42 42 44 45 47 44 41 42 42 41 35 23 28 30 36 36 34 33 36 35 37 37 34 36 34 32 29 27 34 37 37 34 32 30 25 18 22 21
44 43 43 43 43 45 43 43 42 42 44 44 46 44 41 44 44 43 38 28 26 29 34 34 33 30 31 32 34 36 34 32 37 37 32 30 28 36 37 38 37 35 31 27 22 17 18
44 43 43 43 43 45 43 42 42 42 43 44 44 39 39 42 44 42 36 28 32 34 35 34 27 28 26 29 30 32 30 31 31 30 33 32 28 34 37 38 37 35 33 26 26 10 14
43 43 42 42 42 44 43 42 42 41 42 43 43 36 41 44 44 40 31 32 35 35 35 34 28 26 26 27 27 26 28 30 29 28 29 31 31 32 36 34 32 33 33 29 26 22 17
42 42 42 41 42 43 44 42 42 41 41 42 41 36 42 45 38 37 32 32 35 34 36 35 31 27 26 26 26 26 28 29 30 29 28 30 31 29 29 29 31 33 29 30 28 24 21
42 41 42 42 41 41 43 42 42 40 39 41 36 36 43 45 33 32 35 34 34 32 31 30 29 30 29 27 26 27 30 32 31 31 28 29 28 25 26 27 28 28 28 27 26 26 23
41 41 41 41 41 41 43 42 42 40 38 41 37 33 37 40 38 34 32 33 32 36 31 29 28 29 27 26 27 27 30 31 32 31 31 29 27 26 22 27 29 27 28 27 27 21 23
41 40 40 39 41 41 41 42 42 39 40 40 34 33 35 32 34 34 33 31 29 29 32 30 28 27 26 25 25 26 30 31 32 29 30 31 26 26 26 29 30 30 28 28 26 25 20
40 39 39 40 41 41 42 42 41 39 39 33 31 33 34 32 33 33 32 29 29 30 31 28 27 27 26 26 27 25 28 28 28 30 28 31 27 27 25 26 27 26 27 28 28 27 25
40 39 40 41 42 42 43 42 41 39 37 30 31 34 35 31 32 31 34 33 33 34 34 34 33 28 26 32 31 29 29 28 28 29 28 30 28 27 24 25 25 22 25 26 28 27 27
40 39 41 43 43 42 43 41 41 41 39 34 33 35 32 27 29 32 32 32 33 34 34 35 35 32 33 34 31 30 29 29 29 29 29 28 28 27 25 25 16 27 27 26 26 27 27
42 40 41 43 42 42 42 41 41 40 40 37 33 33 29 25 24 23 32 32 34 34 36 36 38 33 35 34 29 27 28 27 30 29 28 28 27 25 24 23 23 26 25 26 25 25 27
41 41 42 43 43 42 41 41 42 42 40 38 35 35 32 28 26 24 30 32 34 35 36 38 39 39 39 35 32 27 24 23 25 30 31 29 28 26 25 22 20 30 29 29 29 29 27
41 41 42 44 43 41 40 41 40 42 41 39 36 37 32 26 25 26 30 32 37 36 36 36 38 38 38 33 31 27 24 25 24 25 28 27 27 26 23 23 23 33 33 33 30 32 35
42 42 43 44 43 41 41 41 41 41 42 40 36 38 36 30 28 27 26 27 30 35 34 37 36 36 35 32 31 29 26 27 25 24 26 27 26 26 26 24 20 30 30 31 36 36 36
42 43 44 44 42 41 41 41 41 42 41 39 37 37 38 34 30 32 31 29 28 32 33 34 37 35 35 32 33 32 29 29 26 24 28 23 25 23 24 25 29 32 35 36 37 36 38

GFSGBSN_sfc_30mbdewp_063.txt.gz
Dewpoint
48 47 47 46 47 45 44 43 46 48 46 46 46 47 46 47 46 46 47 47 46 46 45 45 45 45 43 38 36 39 40 43 43 50 49 48 43 46 43 44 40 40 35 35 36 36 35
48 47 47 46 46 45 44 43 45 46 46 46 46 47 46 46 47 47 47 48 45 46 45 46 45 45 42 34 37 38 41 39 43 50 49 48 42 43 43 42 40 38 38 36 36 36 35
48 47 47 46 46 45 45 43 45 45 46 46 47 45 46 46 47 47 47 46 45 45 46 45 45 43 39 34 36 42 43 44 48 48 47 48 45 41 41 39 41 38 36 35 36 37 35
47 47 47 46 45 45 44 43 43 45 46 45 46 46 46 47 47 46 45 44 43 44 44 45 45 43 35 37 37 37 39 40 48 50 50 48 45 39 40 41 40 36 34 33 34 35 36
47 47 46 46 45 45 45 43 43 43 45 45 46 47 46 46 45 44 43 42 43 44 45 45 44 41 33 36 36 35 33 33 44 48 49 49 45 40 38 37 37 38 31 32 31 34 35
47 47 46 47 46 45 44 44 43 42 44 45 47 46 46 46 44 43 44 45 45 45 45 43 42 37 36 32 36 38 38 42 44 47 47 46 42 37 37 37 30 33 30 32 30 31 33
46 46 46 45 48 46 44 44 43 43 42 43 45 46 47 45 46 46 46 42 36 37 38 33 33 31 32 36 40 39 43 39 41 43 41 41 38 34 34 37 33 36 32 29 31 30 31
46 46 45 46 47 45 45 45 43 43 43 42 43 46 46 46 46 46 43 36 38 38 31 33 34 29 39 39 34 39 41 34 36 33 41 39 34 36 36 37 35 31 31 29 28 29 30
46 46 45 46 44 45 44 44 45 44 43 43 42 45 46 47 47 43 39 40 41 41 33 31 34 37 38 39 34 38 39 39 36 33 38 35 34 37 36 35 33 32 26 27 26 29 29
46 45 45 45 44 47 46 44 45 44 43 43 43 44 46 47 43 39 38 41 41 40 29 32 35 38 40 38 35 42 39 40 35 35 36 35 37 36 35 33 32 30 27 25 28 28 25
45 45 45 45 45 46 45 44 43 44 44 43 43 44 45 47 43 38 39 40 40 40 18 33 35 41 40 36 38 38 46 43 33 37 35 36 37 36 36 35 36 29 27 30 29 26 25
45 45 44 45 45 44 45 43 43 43 43 43 43 45 45 45 45 41 42 43 41 27 20 31 35 35 34 38 39 41 42 45 41 37 37 38 40 39 36 39 40 38 30 30 30 29 24
45 45 44 44 44 44 44 44 43 43 43 43 44 46 46 46 40 42 43 40 25 22 32 32 33 37 36 35 35 37 37 37 33 29 30 34 35 38 40 35 37 37 28 25 23 24 21
44 44 44 44 44 44 44 44 43 43 44 44 45 48 46 44 43 42 41 32 21 27 30 35 36 35 33 36 36 37 36 35 35 32 31 27 28 36 38 36 36 36 27 21 15 20 22
44 44 44 43 44 44 43 43 43 43 44 43 45 44 42 43 44 43 38 24 25 28 33 33 33 30 30 35 36 36 34 35 35 37 29 28 27 36 37 40 38 35 30 28 22 19 19
44 43 43 42 43 43 43 43 42 43 43 44 43 42 40 44 44 42 32 29 31 33 35 35 31 30 27 31 33 34 30 34 36 37 37 33 27 35 37 40 38 36 34 26 26 14 16
43 42 42 42 42 42 43 43 42 42 42 42 42 38 41 45 44 39 29 30 34 36 35 33 31 26 27 28 28 28 29 29 30 30 34 34 30 31 36 33 34 33 31 29 27 23 15
43 42 42 42 41 42 43 42 42 42 42 41 38 34 42 45 36 36 32 33 34 34 36 35 33 30 26 27 26 29 29 30 31 29 30 32 31 29 32 36 37 36 33 29 25 23 20
42 41 41 41 41 42 42 43 42 41 40 41 37 37 42 44 31 31 34 35 36 33 31 30 29 29 29 27 26 29 31 32 32 31 28 30 28 25 27 29 33 33 34 34 28 27 22
41 41 40 39 41 42 43 42 42 40 40 40 37 30 34 37 37 34 33 32 34 35 32 30 28 29 28 26 28 28 30 32 32 29 32 30 28 25 19 23 28 27 31 27 26 25 23
41 39 40 41 42 42 43 42 42 41 41 38 33 31 34 30 33 32 34 32 30 31 33 30 28 27 27 25 26 29 31 31 32 29 30 30 24 26 28 30 29 29 27 28 24 24 20
41 39 40 42 42 42 43 42 42 40 40 31 30 30 32 30 32 32 33 31 30 32 31 30 29 27 28 29 28 27 29 29 29 29 29 32 27 25 23 27 27 24 27 28 27 26 25
40 39 41 43 43 42 42 41 42 41 38 30 32 33 32 29 31 32 33 31 33 34 34 34 34 31 30 31 30 29 29 29 30 28 28 29 27 24 23 25 25 19 25 27 28 28 27
41 39 40 43 43 42 42 41 42 42 40 36 34 34 28 25 25 25 24 32 32 34 35 36 37 32 33 34 32 30 30 29 29 29 29 29 27 27 25 24 13 16 27 27 27 28 28
41 41 41 43 43 42 41 42 41 42 41 37 35 32 28 24 25 24 25 31 33 34 36 36 38 34 37 34 29 27 28 28 29 30 28 29 28 25 23 22 19 27 26 26 26 26 28
41 42 42 44 43 42 41 42 41 41 41 38 37 36 31 26 24 26 26 30 31 34 36 38 39 40 38 35 31 26 23 24 26 28 31 29 29 24 25 22 20 29 29 29 30 28 30
42 42 42 44 43 41 41 42 41 42 42 40 37 37 34 26 25 26 24 25 34 33 34 38 37 36 38 33 30 27 24 24 24 25 26 26 26 24 21 23 22 31 32 32 29 29 31
42 42 43 44 43 41 41 41 41 42 42 40 36 38 35 30 29 29 27 26 26 29 30 34 36 36 34 32 31 29 27 26 25 26 27 25 23 24 25 24 19 33 31 32 35 36 36
43 42 44 44 43 41 41 41 41 41 43 42 37 38 39 35 30 31 31 32 30 29 29 32 34 38 38 32 32 32 29 29 26 24 27 23 25 22 25 25 28 30 33 36 37 36 37

GFSGBSN_sfc_30mbdewp_066.txt.gz
Dewpoint
48 48 47 48 48 46 45 44 44 47 46 47 46 47 46 46 47 47 47 47 47 46 46 46 45 45 43 38 38 38 41 40 39 46 47 49 42 43 43 44 44 41 39 39 40 43 43
48 48 47 47 48 46 46 45 43 46 47 47 47 47 46 47 47 48 48 47 46 46 46 45 45 45 40 33 37 39 40 43 42 44 46 49 45 45 43 43 42 42 40 38 41 37 40
48 48 47 48 47 47 45 45 44 42 46 46 46 46 46 46 46 47 46 46 45 45 46 45 46 42 40 33 37 39 39 39 46 43 47 49 47 44 43 41 43 39 36 39 39 36 35
48 48 47 47 47 47 45 44 44 43 43 46 45 47 46 45 45 44 44 43 43 44 45 45 46 44 34 39 38 37 39 38 44 49 48 49 50 41 41 42 42 38 36 35 36 36 35
48 47 47 45 48 45 45 44 44 43 43 44 46 46 46 46 46 45 45 44 43 45 45 45 43 41 29 37 37 39 37 34 43 48 51 50 48 41 40 38 37 38 31 33 33 35 35
47 47 46 45 47 46 46 47 47 44 43 42 44 45 47 47 46 47 47 46 45 45 45 44 43 37 34 32 35 38 38 40 42 46 47 47 45 38 37 37 30 31 31 32 31 33 35
47 47 46 45 45 46 46 47 46 47 45 43 43 45 45 46 47 47 46 41 35 35 36 35 34 32 33 36 38 40 40 38 40 41 38 44 38 33 35 36 34 35 31 32 32 32 33
47 47 46 46 45 45 45 45 46 46 46 43 43 42 45 46 47 47 41 38 38 37 29 34 33 35 38 40 33 40 40 35 35 34 40 40 34 35 36 37 35 35 31 31 30 32 32
47 47 46 46 46 45 45 45 43 43 44 44 43 43 45 46 48 42 39 39 41 41 32 34 38 37 38 39 32 38 39 38 35 33 34 35 34 36 35 36 35 33 32 30 27 29 29
46 46 46 46 46 45 45 44 43 44 44 44 44 43 45 46 43 41 38 41 42 40 28 31 35 37 39 38 35 40 41 39 36 33 34 36 37 36 35 35 35 31 30 29 28 28 26
46 46 45 46 45 45 44 44 44 44 44 44 43 44 45 46 44 39 38 41 41 39 19 34 36 42 41 36 37 37 41 40 35 36 35 35 35 35 35 34 33 30 28 27 28 28 26
46 46 45 45 45 45 44 45 43 44 44 44 43 45 45 45 46 43 42 42 41 26 21 31 35 36 35 36 35 37 41 43 40 38 38 38 40 39 37 39 38 37 30 30 30 29 24
45 45 45 45 45 45 44 44 43 43 44 43 44 46 45 46 40 43 43 40 24 22 32 32 34 36 36 33 36 37 35 34 34 30 31 36 36 39 40 35 37 35 27 26 25 26 23
45 45 44 44 44 44 44 43 43 43 43 44 45 47 47 45 44 43 40 31 21 26 29 35 36 36 34 37 36 37 36 34 34 33 31 28 28 36 38 36 35 34 27 22 19 20 21
45 44 44 43 43 44 43 43 43 43 44 45 45 43 42 43 44 42 35 22 22 26 32 33 33 32 32 36 36 37 34 34 36 34 27 27 28 37 38 39 38 35 31 28 20 21 20
44 43 43 43 42 43 43 43 43 43 43 44 42 41 39 45 44 41 30 28 29 33 34 35 30 29 30 34 34 32 32 36 35 37 34 30 26 34 37 39 38 37 34 26 25 16 17
43 43 42 42 42 43 43 43 43 42 43 43 41 38 41 45 44 36 28 29 32 35 35 33 32 27 28 28 32 29 29 29 32 36 36 32 29 31 36 34 33 35 32 29 26 21 16
43 42 42 41 41 43 43 43 43 42 42 41 36 34 42 44 36 35 31 32 34 34 36 35 35 31 27 27 28 29 29 30 31 31 33 34 31 28 30 36 38 36 33 28 23 22 19
42 41 41 41 42 42 43 43 43 42 42 40 36 36 41 44 31 31 34 34 36 33 33 31 30 29 29 27 26 30 30 32 32 30 30 32 28 25 27 30 35 35 34 33 28 26 21
41 41 40 42 42 42 43 42 43 41 41 40 35 27 32 36 36 34 33 33 34 35 33 30 29 29 28 26 28 29 29 32 31 29 33 31 28 24 20 23 29 29 33 32 31 26 24
41 40 40 42 42 42 43 42 42 41 40 35 32 31 32 28 32 31 33 33 30 31 33 31 29 27 27 25 27 29 31 31 31 29 31 27 25 26 29 30 28 28 31 30 29 30 27
41 40 41 43 43 42 42 42 42 42 38 30 29 29 30 28 31 31 34 32 33 33 32 31 29 32 29 27 26 28 29 30 28 29 29 31 25 24 24 28 26 24 28 30 27 25 25
41 39 41 44 43 42 42 43 43 41 37 31 32 32 31 27 28 32 29 28 32 35 34 34 34 32 30 30 30 29 30 30 29 28 28 28 27 22 19 25 24 19 23 26 28 28 26
41 40 41 43 43 42 42 42 42 42 39 33 33 33 27 21 24 23 24 27 32 33 34 36 37 32 32 34 32 30 30 29 29 29 30 28 25 26 24 23 13 14 27 26 27 29 28
41 41 41 43 43 42 41 42 41 42 41 36 36 31 27 19 25 24 25 26 30 33 35 36 37 35 38 33 29 28 28 28 29 30 29 30 28 25 22 21 20 23 27 26 26 24 29
41 42 42 44 43 42 42 42 42 42 42 37 36 35 30 25 23 25 24 29 30 33 35 38 39 40 38 33 30 25 23 24 26 29 30 29 28 24 25 21 17 27 29 29 29 24 29
42 42 42 44 43 41 42 42 42 42 43 39 36 37 33 26 25 25 22 21 25 32 30 36 36 36 37 33 30 28 23 25 24 25 25 27 27 24 23 22 23 25 32 32 25 25 33
42 42 43 44 43 41 41 42 41 42 43 39 35 38 34 30 29 29 27 25 29 27 25 32 35 36 34 32 31 30 27 26 25 27 26 25 25 24 24 21 19 33 32 30 33 36 34
43 43 44 44 43 41 41 41 42 42 42 41 36 38 39 35 29 32 31 31 28 27 28 30 31 32 39 32 32 32 29 29 26 24 28 23 23 22 24 23 26 31 31 35 37 36 36

GFSGBSN_sfc_30mbdewp_069.txt.gz
Dewpoint
48 47 46 49 47 47 48 47 44 43 46 48 48 47 45 46 46 48 48 48 47 47 47 46 45 45 43 39 36 40 40 40 43 41 44 46 44 44 41 44 44 40 40 40 47 48 48
49 47 46 48 46 48 48 44 44 44 44 47 47 47 48 45 45 45 47 47 46 46 46 45 45 45 40 32 37 41 40 38 38 44 45 46 43 44 43 43 43 43 39 42 44 44 41
48 48 47 47 48 46 47 45 44 44 43 45 47 47 47 46 45 44 44 45 45 45 46 45 45 43 39 32 37 39 39 37 40 43 44 47 48 42 43 41 44 42 39 41 41 41 42
48 48 47 46 48 45 48 48 46 45 43 42 44 47 46 47 46 46 46 43 43 44 45 45 46 44 33 39 39 37 40 38 40 46 45 49 50 42 42 43 42 38 38 36 39 40 40
48 48 47 46 45 47 47 47 46 47 47 43 42 43 46 46 47 47 48 47 44 45 45 45 43 40 28 37 38 38 40 38 41 47 48 48 49 41 40 39 36 37 33 34 34 39 36
48 48 47 46 45 44 47 45 46 47 46 46 42 43 45 46 47 47 47 47 46 45 45 45 43 36 34 32 35 37 38 41 42 43 44 45 46 38 37 37 27 31 33 32 31 35 35
47 47 47 46 45 45 47 47 45 44 45 45 43 43 44 45 47 48 46 40 36 36 37 34 34 32 33 36 38 37 40 38 39 39 37 43 37 30 35 37 34 33 32 31 32 33 34
47 47 47 46 46 45 45 44 44 44 45 43 44 43 43 45 46 48 40 36 36 36 28 34 34 35 38 40 32 37 40 35 34 32 39 40 32 32 37 37 34 33 31 31 32 33 34
47 47 46 46 46 45 45 44 45 44 44 44 44 44 43 45 47 41 38 37 41 41 32 34 38 37 37 37 31 35 39 36 33 32 34 34 36 36 36 36 34 34 30 30 30 30 30
46 47 46 46 46 45 44 43 45 44 44 44 45 44 44 45 44 41 38 41 42 40 29 31 35 36 38 38 32 40 41 38 35 32 35 37 36 35 36 35 35 32 32 30 29 28 28
46 46 46 46 46 45 45 44 44 44 44 45 44 44 46 45 41 39 38 41 41 39 18 35 36 42 40 37 37 36 40 39 32 33 33 34 35 34 34 35 34 31 31 30 29 28 26
46 46 46 45 45 45 45 44 43 44 44 44 44 45 45 46 46 43 42 42 40 24 19 32 37 36 35 36 36 36 37 42 41 36 38 38 40 38 37 38 35 35 30 30 30 28 24
46 45 45 45 45 44 44 44 44 44 44 44 44 46 45 45 39 44 43 39 23 22 31 31 33 34 34 33 35 37 35 35 32 30 31 36 36 39 39 35 37 33 28 26 25 25 23
45 45 45 44 44 44 44 44 44 44 44 45 45 46 47 45 44 43 40 28 22 26 30 35 36 36 33 36 35 35 33 32 36 35 32 30 28 36 38 35 33 32 27 23 18 20 22
45 44 44 43 43 43 44 44 44 44 44 45 44 43 43 43 44 42 33 22 22 24 30 32 34 32 32 35 36 36 35 34 34 35 28 28 29 37 39 39 37 34 30 26 20 21 20
44 44 43 43 42 43 44 44 43 43 44 44 41 40 40 44 43 40 29 27 28 31 33 34 30 29 31 34 34 33 33 36 35 37 33 29 27 34 37 37 38 36 34 26 23 17 17
44 43 43 43 42 43 44 44 43 43 43 44 39 37 41 45 43 35 28 28 31 34 34 33 32 28 29 31 32 29 29 32 35 36 34 30 29 31 37 34 32 35 33 30 26 20 17
43 42 42 41 43 43 44 43 43 43 43 41 36 34 42 44 35 33 30 32 34 34 36 35 35 31 28 27 29 29 28 30 33 35 32 32 30 27 31 35 37 37 34 29 24 22 20
43 42 41 42 43 43 43 43 43 42 42 40 35 35 39 43 29 31 34 34 35 33 33 31 30 29 29 27 27 30 30 32 32 32 32 32 29 25 27 31 35 35 36 32 27 24 20
42 41 41 43 43 43 43 43 43 42 41 39 33 27 31 35 34 34 32 33 33 35 33 30 29 29 27 27 30 28 29 32 30 30 33 31 28 23 20 22 29 31 35 34 29 25 23
42 40 41 43 43 42 43 43 43 41 39 33 31 29 31 28 31 31 32 33 31 31 33 31 29 29 27 25 27 29 31 31 30 30 32 28 25 26 28 30 28 30 31 33 31 30 26
42 40 42 43 43 42 42 43 43 41 36 32 26 24 29 26 30 31 31 31 33 33 33 31 30 32 30 26 26 27 29 29 28 29 30 29 24 25 24 28 26 24 28 32 33 31 30
42 41 43 43 43 42 42 42 43 41 35 30 32 32 30 26 26 30 26 28 32 34 35 35 35 32 30 30 30 29 31 30 29 28 28 27 26 21 17 25 23 17 21 26 31 29 29
41 41 43 43 43 42 42 42 42 42 38 33 33 31 23 20 23 24 23 25 29 31 33 34 36 32 33 34 31 30 30 30 30 29 30 27 24 24 23 22 15 16 26 26 26 29 29
41 41 42 44 43 41 43 42 42 42 42 36 35 30 26 15 24 24 23 25 29 32 35 35 37 35 39 33 28 27 27 28 28 30 29 29 27 24 21 21 20 20 26 26 25 23 28
42 41 43 44 43 41 42 42 43 43 43 36 36 35 29 22 20 24 23 27 28 31 34 37 39 39 37 33 29 24 22 24 26 29 30 29 28 24 24 20 14 23 29 28 28 24 32
42 42 43 44 43 41 42 42 42 42 43 39 35 36 31 26 25 25 21 19 23 31 28 32 34 36 37 33 29 27 25 26 24 25 27 27 27 24 24 23 22 25 30 31 24 23 35
43 43 43 44 42 41 42 42 42 42 43 39 37 38 34 29 28 29 28 24 29 27 22 31 32 36 35 33 32 30 26 25 25 26 26 25 24 25 24 22 17 29 32 28 30 36 35
43 43 44 44 42 41 41 41 42 42 42 41 34 39 39 34 30 31 31 30 29 26 26 29 31 31 34 34 33 32 29 29 26 23 28 23 25 23 24 23 25 29 32 33 37 36 36

GFSGBSN_sfc_30mbdewp_072.txt.gz
Dewpoint
49 47 47 47 47 48 47 46 44 44 44 45 46 47 48 47 43 44 47 47 47 46 46 45 45 45 42 37 33 42 40 44 44 45 40 45 45 42 41 44 44 41 40 44 45 47 48
48 47 47 46 47 45 47 47 47 45 44 43 45 47 46 47 45 44 44 46 46 46 45 45 45 45 39 30 35 40 39 40 39 40 41 45 43 43 42 43 43 43 40 42 48 47 43
49 48 48 47 46 48 47 47 48 47 47 45 43 45 46 47 47 46 46 43 45 46 46 45 45 43 38 31 37 39 39 38 39 39 41 45 48 42 43 42 44 42 42 44 46 45 43
49 48 48 47 46 44 48 47 47 47 47 47 45 42 46 47 47 47 48 48 43 44 45 45 46 42 32 37 39 38 40 38 38 43 44 46 49 42 42 43 43 40 40 37 41 43 44
49 48 48 47 46 46 44 47 46 46 46 47 45 43 43 46 46 48 48 47 46 45 45 45 42 39 27 36 37 38 40 37 39 45 46 47 49 42 41 39 37 38 34 34 38 40 43
49 48 48 47 46 46 45 44 44 45 46 46 45 44 42 46 46 47 48 47 45 44 45 45 43 34 34 33 35 36 42 42 40 42 42 43 44 38 38 36 28 32 33 34 36 39 41
49 48 48 47 46 46 45 44 47 46 47 46 46 45 42 45 46 47 46 40 36 36 38 34 34 33 34 36 37 38 40 41 39 41 34 38 35 31 36 36 33 33 33 33 32 38 36
48 48 48 47 46 46 45 45 42 47 46 46 46 45 43 45 45 47 40 35 34 34 28 35 35 34 38 40 32 37 41 36 35 33 36 38 32 34 37 37 33 34 31 31 32 36 35
48 47 47 47 46 46 46 45 44 45 46 45 45 43 43 46 45 41 38 37 41 40 31 34 37 37 36 38 32 35 37 36 34 33 32 33 35 36 36 36 33 32 31 31 30 33 31
47 47 47 47 46 46 45 45 44 43 45 44 43 43 45 45 43 40 37 41 42 40 28 31 33 35 38 38 32 40 40 37 34 32 34 37 37 35 35 35 34 31 32 30 30 31 29
47 46 47 46 46 46 45 44 44 45 43 44 44 44 46 44 39 38 38 42 41 38 19 34 34 42 39 36 36 35 40 37 32 33 34 35 35 36 35 35 33 31 31 30 29 28 27
46 46 46 46 46 45 45 44 44 44 44 44 44 44 46 46 45 43 42 42 39 21 18 31 37 35 33 34 34 36 36 42 39 35 35 36 39 38 36 36 34 32 30 30 30 28 25
46 46 46 46 45 44 44 44 44 44 44 44 45 46 45 44 39 45 43 39 24 20 29 30 31 34 33 32 33 34 34 32 31 29 29 36 37 39 37 35 37 30 28 26 25 24 23
46 45 45 45 44 44 44 43 44 44 44 44 45 46 46 45 44 43 40 28 20 25 28 35 36 35 32 34 34 34 33 31 36 32 31 30 28 36 38 34 33 31 27 23 17 20 22
46 45 44 44 44 43 43 43 44 44 44 45 44 42 46 43 44 42 33 22 23 24 30 32 33 29 31 35 35 34 33 32 34 36 29 29 29 38 39 39 35 33 31 25 21 21 20
45 44 44 43 43 44 44 44 43 44 43 45 41 39 41 45 44 39 29 27 27 28 32 34 29 31 29 32 33 33 33 36 35 37 32 30 29 35 36 38 38 34 31 27 23 17 15
45 44 43 42 43 44 44 44 44 43 43 44 39 37 41 45 43 34 28 28 31 33 34 33 31 28 30 32 32 29 29 34 36 35 32 30 29 32 35 33 33 34 31 29 26 20 17
45 43 42 42 43 43 43 43 44 43 43 39 36 34 42 44 35 32 30 32 34 34 36 34 35 32 28 28 29 29 28 29 35 35 30 31 28 28 30 35 36 36 34 28 24 22 20
44 43 41 43 43 43 43 44 43 42 42 38 34 34 39 42 29 31 33 34 35 33 33 32 29 29 29 27 28 30 30 32 33 34 31 31 27 25 27 30 34 34 34 33 27 24 21
44 42 41 43 43 43 43 44 43 41 41 37 31 29 31 35 34 33 31 32 33 35 33 31 29 28 27 27 30 29 29 32 30 31 33 31 27 24 19 21 30 31 33 34 31 29 25
44 41 41 43 43 42 43 43 42 40 39 31 29 28 30 27 30 31 32 33 32 31 32 32 29 31 27 25 28 29 31 31 29 33 31 29 26 26 26 29 29 30 31 33 32 31 28
43 41 43 43 43 42 43 43 42 40 36 30 23 24 27 25 29 31 30 30 33 33 33 32 31 32 30 26 26 27 29 29 28 29 30 28 24 25 25 28 27 26 29 32 33 32 31
43 41 44 43 42 42 43 43 42 39 34 28 31 32 29 26 26 30 25 27 32 33 35 35 35 32 30 31 31 30 31 30 29 27 28 26 25 22 19 25 24 19 22 26 31 32 32
42 42 44 43 42 43 42 42 43 41 36 33 33 29 19 18 23 23 23 25 26 29 31 33 36 32 33 37 32 30 30 30 29 29 30 26 24 22 21 21 15 17 25 26 27 30 32
42 42 44 43 42 43 42 43 43 43 39 35 34 29 24 13 22 22 23 25 28 32 33 35 38 37 39 32 28 26 26 27 28 30 29 27 26 23 20 21 19 20 26 26 25 24 27
42 42 44 43 42 42 42 43 43 43 41 35 35 33 27 17 18 24 23 25 25 29 30 35 38 36 37 32 28 23 21 24 25 28 30 29 27 24 24 20 12 18 30 28 28 23 30
42 42 44 44 42 42 42 42 42 43 42 37 35 35 30 25 25 25 21 19 23 28 27 31 33 34 37 33 28 26 24 25 23 25 26 27 27 25 24 23 23 24 26 30 24 23 34
43 43 45 44 42 42 42 42 42 42 43 37 36 38 33 28 28 28 27 24 25 26 21 28 30 34 35 32 30 29 27 25 25 26 26 25 24 25 24 23 19 25 31 28 28 35 36
45 43 45 44 42 42 42 42 42 42 43 38 34 38 39 32 30 31 31 30 27 27 26 26 30 30 32 33 33 32 29 28 25 23 28 24 24 24 25 23 25 27 32 32 36 36 36

GFSGBSN_sfc_30mbdewp_075.txt.gz
Dewpoint
50 48 48 48 45 48 46 46 47 46 47 45 43 46 46 47 47 45 44 46 46 46 45 45 45 45 41 34 31 39 42 45 49 48 43 46 46 41 40 43 44 42 43 44 48 47 46
50 49 48 48 47 45 47 47 47 46 47 48 46 42 47 46 47 46 46 44 46 46 45 45 45 44 38 27 34 39 39 43 42 47 41 45 46 41 41 42 42 43 41 44 47 47 44
50 49 48 48 47 46 44 48 47 46 46 47 48 44 43 47 47 47 47 47 44 46 46 45 44 42 36 29 38 39 39 42 42 42 40 43 47 43 43 42 44 43 40 44 45 46 45
50 49 48 48 47 46 46 46 48 46 45 46 46 47 43 44 47 46 48 47 46 44 45 45 46 41 29 36 38 38 40 40 44 42 43 46 48 44 43 43 42 39 40 37 43 44 46
51 49 49 48 47 47 46 44 45 44 46 47 47 46 44 44 47 46 48 47 47 44 45 46 41 38 27 36 35 37 41 38 40 44 46 46 48 42 41 39 37 38 33 35 40 42 44
51 49 48 48 47 47 46 45 45 43 47 47 47 47 46 43 46 47 48 47 46 44 45 45 43 31 33 32 35 37 43 43 41 41 41 41 40 40 39 36 28 33 33 35 34 40 42
51 49 48 48 47 47 46 45 43 44 46 47 47 47 45 44 46 46 46 40 35 35 39 33 33 33 33 37 38 39 41 40 38 39 35 38 34 33 36 36 32 34 32 32 36 40 39
50 49 48 48 47 47 46 45 44 45 46 47 46 46 43 43 47 46 40 35 33 34 27 34 36 34 38 39 33 39 40 35 35 33 35 35 32 35 37 36 33 34 32 32 32 38 37
50 49 48 48 47 46 46 44 43 45 46 46 45 44 43 46 45 42 36 36 40 40 30 34 37 37 36 37 33 36 39 36 33 33 35 32 35 37 37 36 33 32 31 31 30 36 35
50 48 47 47 47 46 46 44 43 45 45 46 43 43 44 45 43 40 37 40 41 39 26 31 32 35 38 38 32 39 39 35 33 32 36 35 39 36 35 34 33 31 32 31 31 33 30
50 48 47 47 47 46 45 44 44 44 45 45 44 44 45 43 40 37 38 42 41 37 18 34 34 42 38 35 34 34 40 37 33 34 35 34 36 35 34 34 34 32 32 30 31 29 28
50 47 46 47 46 45 45 44 43 43 43 44 44 44 46 45 44 43 42 42 37 21 19 31 36 34 31 33 33 35 36 41 38 35 36 36 40 39 35 37 33 32 31 31 30 29 27
49 47 46 46 45 45 44 44 43 44 43 44 45 47 45 45 39 44 43 39 23 20 28 30 31 34 32 30 31 33 34 33 27 28 30 35 37 39 38 35 35 30 30 27 25 26 23
48 46 46 45 44 44 44 44 44 44 44 45 46 47 46 44 44 43 39 27 20 25 29 35 35 33 31 32 33 32 32 31 33 33 32 29 27 37 37 35 31 29 27 22 18 20 22
48 46 45 44 44 44 44 44 44 44 44 45 45 44 44 43 44 42 31 22 22 24 30 32 33 32 32 33 33 33 32 32 34 34 30 30 29 38 39 38 35 32 28 24 21 20 20
47 46 44 44 43 44 44 44 44 44 44 45 40 39 41 45 44 38 29 27 27 27 32 34 29 31 29 32 33 34 32 33 34 36 37 32 28 35 37 37 37 33 30 26 23 17 15
47 45 44 43 44 44 44 44 44 44 43 44 39 37 41 45 43 34 28 28 31 32 34 33 32 28 32 33 32 30 31 34 36 36 32 30 30 32 34 33 32 32 30 28 25 20 17
46 44 43 43 44 44 43 44 44 43 43 39 36 34 42 44 35 31 29 31 33 34 35 34 35 32 27 29 29 28 29 30 36 34 29 30 30 29 32 35 36 36 32 27 24 22 19
46 44 42 43 44 43 44 44 44 42 42 37 33 35 39 43 30 30 32 34 35 33 33 32 29 29 29 28 28 29 30 32 35 33 30 30 27 25 26 29 33 33 35 29 26 24 21
46 44 42 43 43 43 43 44 43 41 42 36 29 30 31 36 33 33 31 32 33 35 32 31 30 29 27 28 29 29 30 31 31 32 34 30 27 22 18 20 29 30 33 32 31 28 24
45 43 42 44 43 42 43 44 42 40 41 30 27 26 30 28 29 31 32 32 32 31 33 32 29 31 28 26 28 29 30 30 29 35 30 29 25 25 25 26 30 30 30 32 31 30 26
45 42 43 43 42 42 43 43 42 39 36 29 21 23 27 25 28 30 29 31 32 33 33 32 31 32 29 26 27 27 29 29 28 29 29 27 25 27 26 29 28 27 29 31 33 32 29
44 42 44 44 42 43 42 43 41 39 32 28 31 31 26 25 26 29 25 27 31 32 35 34 35 31 30 31 32 30 30 30 29 28 28 26 24 23 19 25 24 19 23 26 31 32 32
43 43 44 43 42 42 42 43 42 39 34 31 32 27 19 19 25 24 24 24 26 28 30 32 36 32 34 38 32 30 30 30 29 30 29 26 23 22 20 21 14 18 25 25 25 28 33
43 44 44 43 42 43 43 43 43 39 38 34 33 27 18 17 21 22 22 25 27 30 32 34 38 38 37 33 28 26 25 26 28 30 29 26 25 22 20 20 19 20 26 25 25 24 27
43 44 44 42 42 42 43 43 43 42 39 35 34 31 24 12 18 24 22 24 22 26 28 33 36 36 37 32 28 21 21 23 24 28 29 28 27 23 23 19 12 15 30 28 27 24 29
44 44 44 42 42 42 42 42 42 43 40 35 35 33 28 21 25 24 19 18 24 26 26 30 28 34 37 32 28 25 21 25 22 24 26 27 27 25 23 22 22 24 25 29 23 22 32
45 45 44 43 42 42 42 42 43 43 41 36 36 37 30 26 27 28 27 23 26 24 19 25 30 33 35 32 29 28 25 25 24 25 26 25 24 25 25 24 19 25 31 27 26 33 36
45 46 44 43 42 42 43 43 42 43 43 36 33 38 38 30 28 30 30 29 26 26 25 25 30 29 32 30 33 33 29 27 25 22 27 24 24 24 24 23 25 26 32 32 34 35 36

GFSGBSN_sfc_30mbdewp_078.txt.gz
Dewpoint
51 50 49 49 48 46 46 47 47 46 46 48 50 47 42 45 47 47 47 45 46 46 45 45 45 45 39 31 27 36 41 45 47 46 46 46 43 38 35 39 43 42 41 41 42 45 44
52 51 50 49 48 46 46 45 48 47 46 47 48 48 44 42 47 47 47 47 46 46 46 46 45 43 36 26 34 37 37 42 44 47 44 47 45 36 35 37 40 41 42 41 45 45 44
52 51 50 49 48 47 46 46 47 45 46 47 48 47 46 44 45 47 47 47 44 45 46 46 44 40 34 29 36 39 39 40 44 47 43 44 49 42 37 36 39 41 39 42 43 45 43
53 52 50 49 49 48 47 46 45 45 46 47 47 47 47 44 44 47 47 49 47 44 45 46 46 40 27 34 39 38 37 42 43 44 45 44 49 43 39 42 40 37 35 37 40 44 45
54 52 51 49 49 48 46 46 45 46 44 47 47 47 47 44 43 46 47 48 47 44 45 46 40 38 28 36 33 37 39 38 42 42 44 43 48 42 41 35 34 35 27 29 36 41 43
54 53 51 49 49 48 47 46 45 44 46 46 48 47 47 45 44 46 47 47 46 45 45 43 42 33 32 32 34 36 41 41 39 38 42 40 41 39 35 32 25 29 29 30 32 40 41
55 53 51 49 48 48 47 46 44 45 45 46 47 46 46 45 44 46 47 42 36 37 39 31 33 32 33 35 37 38 39 38 39 37 35 39 34 33 31 29 26 31 30 30 33 41 38
55 53 50 49 48 47 47 46 44 44 45 46 46 46 45 45 47 46 42 36 34 35 29 35 36 34 36 38 32 38 37 34 35 32 37 36 32 36 34 32 29 30 29 29 33 38 36
56 52 50 48 48 47 47 46 45 44 45 45 46 45 45 46 45 44 37 36 41 40 30 34 36 35 35 37 32 35 38 35 35 30 34 32 36 37 34 33 29 29 27 29 29 36 36
55 52 49 48 48 47 46 46 45 44 46 46 46 45 46 46 43 40 37 40 42 39 30 32 32 35 37 37 32 41 41 36 35 32 35 34 38 36 34 29 28 29 30 31 32 31 25
55 52 49 48 47 47 46 45 45 44 44 45 45 45 46 43 41 37 38 42 41 37 19 34 34 41 37 34 33 38 41 37 34 35 36 34 36 35 32 30 30 26 32 30 29 26 28
54 51 48 47 47 46 45 45 44 44 44 44 44 46 46 44 44 43 42 42 39 27 21 31 36 32 29 32 32 34 36 41 38 36 37 37 39 38 32 36 33 33 31 31 31 29 24
53 51 48 47 46 45 45 45 44 43 43 44 46 47 45 44 39 44 43 38 29 24 29 30 31 32 30 28 29 32 34 32 30 29 30 36 35 39 38 34 32 32 28 26 24 24 20
53 50 47 46 46 45 44 45 44 44 44 45 48 46 45 44 45 44 40 30 25 27 31 35 34 32 29 31 32 32 30 29 33 35 32 30 27 35 37 35 31 30 26 22 16 18 18
53 49 47 46 45 44 44 45 44 44 45 45 46 45 44 44 44 42 33 29 26 27 31 34 34 30 31 33 32 30 30 30 32 35 30 30 29 38 37 38 35 31 28 25 23 22 21
52 48 46 45 44 44 44 44 44 44 44 45 42 41 42 45 44 38 32 29 29 28 33 34 29 32 26 30 30 32 30 32 35 36 36 33 29 36 37 38 36 32 29 26 27 19 15
51 48 45 44 44 44 44 44 44 44 43 44 41 38 42 46 44 35 32 31 32 32 34 33 31 31 32 33 32 31 30 34 36 36 37 32 31 33 34 33 30 31 29 29 25 22 15
50 47 45 43 44 44 44 44 44 43 43 41 40 36 42 45 35 33 31 31 33 35 35 34 35 31 30 33 29 28 29 31 38 36 32 31 31 30 33 35 36 34 31 28 24 23 22
49 46 44 44 44 44 44 44 44 42 42 39 37 38 40 43 33 32 33 34 35 34 34 33 30 29 29 29 28 30 30 33 37 33 30 30 29 27 28 30 33 32 33 31 28 27 25
49 46 44 44 44 43 43 44 43 41 43 37 33 32 33 37 34 34 32 33 33 36 33 32 30 29 28 28 30 29 30 32 35 33 34 31 27 25 22 24 29 29 30 32 30 29 24
48 46 44 44 43 43 43 43 42 40 44 32 28 30 32 32 30 32 33 33 32 32 34 33 31 31 28 26 28 29 30 29 31 35 31 30 28 26 25 25 31 30 30 31 31 30 25
48 45 44 44 43 43 43 43 41 39 39 29 24 25 27 27 29 31 31 32 32 33 34 32 31 31 29 27 27 28 30 29 29 30 30 29 27 29 27 29 29 28 28 29 31 30 29
48 45 44 44 42 43 42 43 40 39 33 28 32 32 30 26 28 31 27 28 31 32 35 34 35 31 31 32 32 30 31 30 29 29 29 28 27 26 23 25 25 22 25 27 28 30 30
47 45 45 43 43 42 43 43 39 38 34 31 31 29 25 23 27 26 25 26 28 29 31 32 37 32 36 38 35 31 30 30 29 30 29 27 26 24 22 22 18 19 25 25 24 25 27
46 46 45 43 43 42 43 43 40 39 37 33 32 24 22 21 23 23 23 25 26 29 32 34 38 38 37 34 29 26 26 28 29 29 29 27 26 24 21 20 19 19 25 24 23 21 26
46 46 44 43 43 44 43 43 42 39 38 35 33 30 23 14 13 22 21 23 22 26 28 32 34 33 38 33 29 23 21 23 23 28 30 28 27 24 23 20 14 16 30 28 28 23 30
48 47 44 43 43 43 43 43 42 41 38 36 36 34 27 20 24 23 19 18 23 26 26 29 28 34 38 32 29 24 20 25 21 23 26 27 27 25 23 21 20 24 26 29 21 22 31
48 47 44 43 43 43 42 42 43 40 39 37 37 38 31 26 26 27 26 23 27 22 19 26 29 34 34 31 30 27 24 24 24 25 26 24 24 24 25 23 19 27 29 25 26 32 34
47 46 44 43 42 42 42 43 43 43 39 37 35 39 37 32 28 30 30 29 26 26 25 27 30 30 32 32 33 32 29 27 25 21 27 23 24 23 24 23 26 26 30 31 33 33 35

GFSGBSN_sfc_30mbdewp_081.txt.gz
Dewpoint
54 52 51 50 49 49 47 47 46 49 46 47 48 49 48 44 44 48 48 48 47 46 45 45 45 45 41 31 28 33 39 41 45 49 46 45 43 40 36 35 36 38 35 36 41 42 42
55 53 52 50 49 49 48 47 46 46 45 45 48 48 47 45 44 46 47 47 44 46 46 45 45 45 36 26 32 35 36 40 45 45 45 44 44 39 34 33 33 38 37 36 43 40 42
56 54 53 51 50 49 48 48 47 46 46 46 48 47 47 47 43 45 47 48 47 44 46 46 46 39 34 28 34 36 37 39 45 48 42 46 48 47 34 32 38 36 37 39 42 43 42
57 56 54 52 50 49 48 48 46 46 45 46 47 48 47 47 44 43 47 47 48 44 45 46 45 37 27 35 37 35 35 39 45 45 48 48 48 47 36 33 38 37 35 35 40 40 43
59 57 54 52 50 49 48 48 47 46 45 46 46 48 46 47 45 44 47 48 47 46 44 45 41 35 24 37 32 34 38 35 39 43 46 47 47 43 38 33 34 35 30 30 34 40 43
59 58 55 53 50 49 48 48 47 45 45 45 47 47 46 45 45 44 47 47 46 45 43 39 37 34 29 30 33 34 38 38 37 38 41 42 41 38 36 30 26 27 24 27 31 38 40
60 58 55 53 50 49 48 48 47 46 45 46 47 46 46 44 44 47 46 41 37 37 36 31 30 29 30 32 34 36 37 36 37 37 35 38 34 32 31 27 21 22 22 21 24 34 36
60 58 55 53 50 49 48 47 47 46 45 46 47 46 44 45 46 47 44 35 34 35 29 33 33 32 33 36 28 36 36 33 32 32 37 35 32 37 31 26 29 25 30 29 32 35 34
60 58 55 53 50 49 48 47 47 45 45 47 46 46 45 46 46 44 39 34 39 37 30 33 34 33 33 36 30 31 37 34 34 32 34 33 35 37 33 29 30 27 26 27 28 32 34
60 58 55 52 50 49 48 47 46 46 45 45 46 45 45 46 43 39 37 38 41 39 31 31 31 34 35 34 35 39 39 37 36 31 35 33 38 35 32 26 24 24 25 27 29 31 27
60 57 55 52 49 48 47 46 46 45 44 45 45 45 46 45 41 38 38 40 40 36 20 34 33 38 35 33 33 36 41 38 34 33 36 34 36 35 30 27 26 23 27 27 29 28 22
59 57 54 51 49 48 47 46 45 44 43 44 44 46 46 42 43 41 40 40 39 29 21 30 35 29 27 30 31 36 38 41 39 37 36 36 39 38 34 30 30 32 30 28 27 24 23
59 56 53 50 48 47 46 45 45 44 44 45 47 46 45 43 38 42 42 38 30 25 31 30 30 29 26 27 29 35 35 35 32 29 31 35 35 38 39 32 33 28 26 24 22 23 19
58 55 53 49 48 47 45 45 45 44 45 46 47 46 45 43 44 43 39 32 27 29 32 36 32 30 26 29 29 31 30 29 34 35 32 29 26 37 36 33 31 26 24 20 14 15 15
56 55 51 49 47 46 45 45 45 44 45 46 47 44 43 44 45 43 36 30 30 32 33 33 32 30 30 30 29 27 29 28 32 35 28 29 29 36 38 37 34 29 25 26 23 22 19
56 53 50 48 47 45 45 45 44 45 44 46 42 42 42 45 45 40 34 31 32 32 33 33 30 30 23 27 26 29 27 29 33 35 35 31 28 36 35 38 35 33 29 22 27 19 11
55 52 50 47 46 45 45 44 45 44 44 45 41 38 43 46 44 37 32 32 32 32 34 33 31 30 24 26 26 27 25 32 36 35 36 32 30 32 34 36 32 31 29 28 25 22 15
55 52 49 47 45 45 44 44 45 43 44 44 40 35 43 45 36 34 31 32 34 34 34 34 34 30 30 30 28 27 27 31 37 36 31 31 31 30 31 34 34 34 28 27 24 21 20
54 51 49 46 45 45 44 44 44 43 44 41 37 37 41 44 32 32 33 33 34 34 33 33 30 30 29 29 27 29 30 33 37 34 33 30 30 27 29 31 32 31 30 29 26 30 26
53 51 48 46 45 44 44 44 44 42 43 41 36 33 36 39 37 33 31 32 32 35 32 31 29 29 28 27 29 29 30 33 36 34 35 31 28 27 23 26 28 28 28 29 30 29 23
53 51 48 46 45 44 43 44 42 41 43 38 29 31 35 33 31 32 33 32 30 30 33 32 30 29 27 25 27 28 30 32 34 35 32 31 30 27 26 25 32 31 28 28 30 30 25
52 50 47 46 44 43 43 43 41 41 43 31 25 24 28 30 31 31 32 31 30 33 32 31 29 29 28 26 27 27 29 30 29 32 31 31 30 30 27 27 28 27 27 27 28 28 29
51 49 47 46 44 43 43 43 40 42 36 27 31 30 27 28 29 29 28 31 32 34 35 35 34 30 30 33 31 31 31 30 30 30 29 29 29 27 23 24 24 21 24 26 26 27 28
51 49 47 46 44 43 43 41 39 41 36 28 30 27 24 19 24 27 28 30 31 32 32 34 35 31 36 37 35 31 30 29 29 29 29 28 27 26 24 22 18 20 24 23 23 25 26
50 49 47 46 43 43 43 40 40 39 37 31 31 24 21 21 25 26 26 29 28 30 32 34 38 37 38 34 29 26 27 27 28 29 28 27 25 23 21 19 18 18 21 22 22 19 23
49 48 47 45 43 43 43 40 39 39 37 33 32 31 21 20 21 25 25 25 26 28 30 32 35 34 38 32 28 23 21 22 23 27 30 29 27 25 23 19 16 19 29 28 28 20 30
49 49 46 45 43 43 43 42 40 39 38 36 35 35 25 17 22 20 17 20 22 26 27 30 29 36 38 31 27 23 19 23 20 21 26 27 26 24 23 22 20 21 28 28 20 23 30
49 48 46 45 44 44 43 42 41 40 38 37 37 38 32 23 25 25 25 23 23 21 21 28 30 33 33 30 27 26 22 22 21 20 23 22 22 22 22 21 20 28 27 22 27 30 31
49 47 47 46 45 44 43 43 40 40 39 38 34 36 37 31 28 29 30 30 27 27 24 28 31 33 34 33 32 32 26 25 21 19 26 22 21 21 21 21 27 27 26 29 30 31 31

GFSGBSN_sfc_30mbdewp_084.txt.gz
Dewpoint
57 57 54 53 51 50 50 49 48 47 47 46 46 49 48 48 45 44 48 48 47 46 46 46 45 45 42 36 31 32 37 36 43 42 43 45 42 42 39 37 37 40 41 43 43 49 45
58 58 56 54 52 51 50 49 48 48 47 46 46 49 48 48 47 44 46 47 48 45 46 46 44 44 40 31 32 35 35 38 44 44 43 44 43 43 41 34 34 39 39 41 43 44 49
60 59 58 56 53 51 50 49 49 48 47 46 47 48 48 47 47 44 44 48 48 47 44 47 47 43 34 31 32 35 36 42 45 47 43 43 48 43 43 36 33 34 35 37 45 44 46
61 61 59 57 54 52 50 49 49 48 47 46 46 47 48 46 47 44 43 47 48 48 44 45 46 40 32 34 36 32 35 41 42 45 46 48 47 43 43 41 33 36 35 33 40 44 45
62 62 60 58 56 52 50 49 49 48 46 45 46 47 47 46 46 44 44 47 48 47 44 44 42 36 28 36 32 32 35 35 39 43 44 46 44 41 41 39 34 35 32 32 35 40 40
61 61 61 58 56 53 51 50 49 48 47 45 46 48 46 45 44 44 47 47 47 45 44 39 35 32 35 30 32 33 36 37 37 38 41 40 39 35 38 35 29 30 31 31 32 39 43
61 60 61 58 56 53 51 49 49 48 47 46 47 47 46 44 44 46 46 44 40 38 36 32 30 28 28 31 32 33 35 34 37 38 33 37 32 31 36 33 30 32 27 29 31 38 38
61 61 61 58 56 53 51 49 48 48 46 46 47 47 46 45 46 47 44 40 35 36 32 32 32 31 31 34 29 34 36 33 33 31 33 35 31 37 36 32 27 27 27 29 36 38 37
60 59 61 59 56 53 51 49 48 47 46 45 46 46 45 45 46 44 42 35 38 36 33 32 33 31 32 35 30 32 36 34 34 32 35 33 35 38 37 34 30 24 24 33 35 36 34
61 60 61 58 56 52 51 49 48 47 46 46 45 45 45 46 43 42 37 37 40 39 32 31 31 35 35 33 35 39 39 37 33 33 35 35 37 37 37 33 30 29 28 29 30 30 27
60 60 60 58 55 52 50 48 47 46 45 45 44 43 45 46 43 38 39 39 39 37 20 34 32 35 35 34 36 37 40 39 31 33 36 33 35 34 31 29 30 29 30 30 31 30 29
61 60 60 58 55 52 50 48 47 46 45 44 45 46 45 42 44 40 40 39 40 30 20 29 32 28 28 30 34 38 40 41 40 37 36 37 38 37 37 34 32 34 32 28 26 26 22
60 60 59 57 53 51 49 47 46 45 45 45 47 47 45 42 40 41 42 40 30 23 31 29 29 28 26 28 33 36 35 34 33 29 30 34 35 37 38 34 33 30 27 24 23 23 21
60 60 59 56 52 50 48 46 45 45 45 46 47 45 44 44 43 42 41 34 25 29 32 33 30 28 27 29 29 29 31 30 33 34 31 29 26 35 38 36 30 28 26 22 14 17 18
60 60 58 55 52 49 47 46 45 45 45 47 47 46 43 45 44 44 38 28 29 32 33 32 31 28 28 28 28 26 27 30 34 34 31 30 29 37 38 39 36 28 26 26 25 20 20
59 59 56 54 51 49 47 46 45 45 45 47 44 43 43 45 45 42 35 30 31 34 33 32 31 31 22 24 25 28 27 29 33 34 35 30 27 35 38 39 35 33 30 23 23 16 11
54 58 56 53 50 48 46 45 45 45 44 46 44 39 44 46 45 38 32 31 32 33 34 32 30 27 24 25 24 25 26 32 34 34 35 32 30 33 36 33 31 31 30 28 26 23 19
56 57 55 52 50 48 46 45 45 45 44 45 41 35 44 45 37 34 32 32 34 33 34 34 34 28 26 27 25 26 25 33 36 35 31 31 32 29 30 35 35 34 34 28 25 23 22
57 56 54 52 49 47 45 45 45 44 45 43 37 38 42 44 33 32 33 33 33 34 33 33 31 30 29 28 28 28 29 35 37 34 33 31 30 27 28 30 32 31 32 32 30 29 24
51 55 54 51 49 47 45 45 45 44 45 44 37 33 38 39 37 34 31 32 33 35 32 32 30 29 28 27 29 29 31 34 36 35 35 33 29 27 25 26 30 29 28 29 30 27 26
54 55 53 51 48 46 45 45 45 44 44 43 35 34 34 32 34 33 33 31 30 30 33 32 30 29 27 25 27 28 31 34 36 36 32 32 29 27 27 24 31 31 29 28 28 29 27
51 53 52 50 48 45 45 44 44 42 44 38 28 30 33 32 32 32 32 31 28 33 32 30 30 29 28 27 29 27 29 30 30 34 31 31 30 30 25 27 27 27 28 27 28 28 30
51 53 52 50 48 45 44 45 43 43 41 33 32 30 31 29 30 30 30 29 30 33 34 35 32 29 30 33 31 31 31 30 30 31 31 30 30 27 25 24 23 21 24 27 27 27 28
51 53 51 49 47 45 44 44 41 44 42 32 31 28 28 22 27 28 29 31 33 33 32 35 35 32 36 37 35 33 30 29 29 29 29 29 28 28 25 23 18 21 23 23 23 24 27
49 52 51 49 47 44 44 42 41 43 43 33 32 30 25 21 26 27 29 30 30 31 33 34 37 36 38 35 30 27 27 27 27 29 29 28 27 25 22 21 21 20 22 22 21 20 20
49 51 50 48 46 45 43 41 40 42 42 34 32 33 28 25 23 27 27 29 29 30 31 33 35 34 39 34 29 24 23 23 25 28 30 29 28 26 24 21 17 24 28 28 27 19 31
50 51 49 47 46 44 42 41 40 40 38 36 35 36 32 21 23 24 24 25 24 28 30 32 31 36 38 33 26 24 22 24 20 21 26 27 27 25 24 24 25 25 28 28 20 25 30
51 50 49 47 45 45 42 41 40 39 39 38 37 38 35 24 27 25 25 24 23 23 25 28 30 33 34 29 28 28 23 23 21 20 23 25 24 24 25 23 22 27 26 22 28 31 31
51 50 48 47 46 45 43 42 41 39 39 38 34 36 35 31 28 31 31 30 28 28 27 31 32 33 34 33 32 32 27 25 22 19 25 22 23 23 23 23 27 28 26 28 28 31 32

GFSGBSN_sfc_30mbdewp_087.txt.gz
Dewpoint
58 58 58 58 56 54 52 51 50 49 48 48 46 46 50 47 48 46 44 48 48 48 46 47 45 45 43 39 35 36 37 36 40 43 42 43 40 41 38 40 40 42 44 45 45 48 47
60 60 59 59 57 56 53 51 50 49 49 48 46 48 49 49 48 47 44 45 48 49 46 46 47 47 40 34 33 35 35 41 43 42 42 42 41 42 41 39 39 39 43 42 43 47 45
60 60 61 60 59 57 54 52 51 50 49 48 47 46 48 48 47 47 44 44 47 48 47 44 46 45 40 36 33 34 37 43 46 44 42 44 44 44 44 38 37 38 38 40 45 44 42
61 61 61 61 60 58 55 53 51 50 49 48 46 47 48 47 46 46 43 43 47 48 48 44 45 43 35 35 36 32 35 42 44 47 41 45 48 42 42 42 38 34 37 35 43 44 43
61 61 61 61 61 59 56 54 51 50 49 48 46 46 48 46 46 42 42 47 48 48 47 44 42 41 32 37 33 32 35 36 42 45 44 42 44 40 42 38 33 35 31 33 40 43 43
59 60 61 61 60 59 57 54 51 50 49 48 47 46 47 46 44 43 45 47 47 45 44 41 40 33 34 31 32 33 35 37 38 40 39 38 39 34 37 37 28 31 32 33 35 41 40
58 59 60 60 60 59 57 54 51 50 49 48 46 47 46 45 43 45 46 45 40 38 39 33 31 30 30 33 33 35 37 35 37 38 33 35 33 30 34 36 36 33 32 31 34 41 40
56 58 60 60 60 59 57 54 51 49 48 47 46 47 46 44 45 46 45 42 36 36 33 32 33 33 31 34 32 36 38 34 35 31 33 33 31 35 36 34 35 32 32 31 34 38 35
54 58 58 59 59 60 57 53 51 49 48 47 46 46 45 45 45 43 42 40 39 39 33 33 33 33 34 35 34 36 38 37 33 32 33 31 35 38 37 34 31 32 30 32 31 38 39
53 55 57 59 59 59 56 53 51 49 48 46 46 44 44 46 42 43 40 39 40 39 31 31 32 34 36 39 33 38 40 37 34 32 35 33 37 37 34 32 31 28 33 36 35 33 31
52 55 58 59 59 59 56 52 50 48 47 46 45 44 44 46 44 39 39 40 39 37 13 33 31 35 36 34 35 33 40 39 35 35 36 34 36 36 35 34 34 31 34 35 37 31 32
52 54 57 59 58 58 55 53 50 48 47 45 45 45 46 43 44 40 40 40 40 27 18 28 33 29 31 36 37 37 40 41 39 37 36 36 39 38 37 38 36 38 33 33 32 29 22
50 56 55 59 58 57 54 52 49 47 46 45 46 47 44 44 40 41 42 40 28 19 30 27 27 29 29 33 35 35 34 35 32 26 28 31 34 36 39 32 37 37 27 26 24 21 19
50 52 54 57 59 56 54 51 48 46 46 46 48 47 45 44 43 42 41 33 21 26 29 31 29 28 28 29 28 33 33 32 33 33 30 26 22 35 37 37 33 34 27 20 16 19 17
52 53 55 57 58 55 53 50 47 46 46 47 47 45 44 45 44 43 37 26 26 30 32 31 30 28 27 28 28 27 29 31 34 34 29 28 28 36 38 39 36 29 25 26 25 21 19
53 53 54 58 56 54 52 48 46 46 46 48 44 44 43 45 45 42 34 28 29 35 34 32 29 29 23 24 25 27 28 31 32 35 35 30 28 34 38 37 35 32 31 22 23 14 15
51 53 55 58 55 53 51 48 46 46 46 48 43 40 44 46 45 39 29 30 33 33 35 31 31 29 23 25 25 26 30 32 34 34 35 32 29 32 35 32 32 31 28 28 26 23 18
51 52 52 56 54 52 50 47 46 46 46 47 41 36 44 46 35 35 32 32 34 33 34 34 34 33 25 26 24 26 29 33 36 35 31 32 31 27 30 34 35 34 33 31 23 21 22
51 51 55 55 53 51 50 48 46 45 46 43 38 38 43 44 30 31 33 33 34 34 33 33 32 30 29 29 27 28 32 36 36 34 32 31 29 25 27 30 32 31 32 33 30 28 23
50 51 53 54 52 51 49 47 47 45 47 43 36 32 38 40 37 34 32 33 33 34 33 32 30 29 28 27 29 29 32 35 37 35 34 32 29 25 19 24 29 29 30 31 30 26 25
49 51 53 54 51 50 49 47 47 46 47 42 37 33 34 31 32 34 32 33 32 30 33 32 30 29 28 26 28 28 32 35 36 36 32 32 28 27 27 26 29 31 29 29 28 29 26
48 51 50 52 51 49 48 47 47 46 47 40 30 34 34 33 33 33 32 31 31 32 31 30 30 29 29 29 29 29 31 32 31 34 32 31 29 28 24 26 26 26 27 27 29 29 29
48 49 47 52 51 49 48 47 47 46 42 36 33 31 30 31 32 31 31 31 30 33 34 35 33 31 31 32 32 31 31 30 30 32 31 31 29 27 24 24 23 20 21 26 27 27 28
49 48 51 52 50 48 47 47 46 46 40 33 31 30 27 27 30 30 30 30 32 33 33 36 36 33 36 37 35 33 30 29 29 29 29 29 29 28 25 23 17 19 23 24 26 27 28
47 49 49 52 50 48 47 46 44 45 44 33 33 30 26 25 27 29 31 32 32 33 33 36 37 35 38 35 30 28 27 27 28 29 29 28 27 25 23 22 21 22 23 23 22 20 28
47 48 49 51 49 48 46 45 44 45 44 33 33 33 29 26 23 25 30 30 30 31 32 34 35 34 38 34 29 25 23 24 26 28 30 29 28 25 24 21 17 22 27 28 27 18 30
48 49 48 50 48 47 46 44 43 45 42 34 33 36 26 22 24 25 26 27 26 30 31 33 31 36 38 32 27 24 22 23 22 23 26 26 27 24 24 23 24 27 28 28 18 20 30
47 47 51 49 48 46 44 42 44 45 40 32 34 38 28 26 27 27 27 24 24 24 29 29 31 33 34 30 27 26 24 23 21 21 26 24 24 24 25 23 20 28 26 21 23 30 31
46 52 50 49 47 45 43 43 43 41 40 37 33 36 34 29 29 32 32 31 30 30 28 32 31 33 34 31 31 31 28 26 23 18 25 20 22 22 24 24 27 28 26 27 28 28 29

GFSGBSN_sfc_30mbdewp_090.txt.gz
Dewpoint
60 60 60 60 61 59 57 54 52 51 50 49 48 48 48 49 50 47 47 44 47 48 48 46 46 45 42 38 37 38 36 37 43 42 39 39 37 38 37 38 40 40 41 44 47 47 48
60 61 61 60 61 61 59 57 54 52 50 50 48 48 47 49 49 47 47 44 45 48 49 45 47 48 40 30 35 34 35 40 41 40 39 40 39 39 39 40 38 39 41 42 48 47 46
57 58 60 61 60 61 60 58 55 52 51 50 49 47 47 48 47 45 47 44 44 48 49 47 45 45 40 34 36 35 42 43 44 42 40 42 43 40 41 37 40 39 40 39 44 46 45
55 56 58 60 60 60 61 59 56 53 51 50 48 46 47 49 47 45 43 43 46 48 48 48 44 44 35 37 36 33 37 43 44 45 42 44 44 40 42 43 40 36 39 37 44 45 47
48 53 56 57 59 60 60 59 56 54 51 50 49 47 47 48 45 44 42 44 47 47 47 46 42 41 32 36 33 33 33 36 42 45 44 43 44 40 40 38 34 35 33 36 41 44 44
47 48 53 56 58 60 60 60 57 54 51 50 48 47 47 46 45 43 44 46 47 46 44 43 40 35 32 31 32 32 36 36 39 39 39 39 40 34 35 34 27 32 32 32 36 42 41
46 47 51 54 56 58 60 59 57 54 51 49 48 47 48 45 42 43 46 44 39 37 40 33 32 32 31 33 35 36 38 37 38 37 32 36 32 29 33 36 36 33 32 32 37 41 38
44 46 49 52 55 58 60 59 57 55 51 49 47 47 45 45 43 45 45 41 36 36 32 34 33 33 33 35 33 36 39 34 35 31 34 34 30 34 35 36 34 31 31 32 37 39 37
42 45 48 51 53 56 59 59 57 55 51 49 47 47 45 43 45 42 41 40 39 38 34 34 34 33 33 36 35 36 39 38 34 31 32 32 35 37 36 36 34 32 31 31 35 39 39
43 44 47 50 52 53 58 59 57 54 51 48 47 45 44 45 41 43 40 40 40 39 27 30 32 33 36 38 33 38 40 38 35 32 34 35 38 35 36 33 31 29 33 31 36 36 31
42 44 46 48 52 53 57 58 56 54 50 47 46 45 44 45 44 40 39 41 39 35 5 27 30 36 37 35 35 33 40 40 35 36 36 33 36 36 34 34 33 32 35 34 36 34 34
40 43 45 48 48 52 54 58 55 53 50 47 45 44 45 44 43 43 40 40 39 21 9 25 32 30 33 35 35 37 39 41 41 37 36 36 38 38 37 38 36 37 35 35 35 34 27
40 41 45 47 47 50 52 57 55 52 49 46 46 46 45 43 41 41 42 39 24 17 27 24 25 29 30 32 34 35 34 34 33 27 29 33 34 37 39 35 36 35 33 27 26 25 21
40 43 44 46 48 52 55 56 53 51 48 46 46 47 45 45 43 43 41 30 16 25 26 30 29 28 27 29 28 33 33 30 34 32 29 26 27 34 37 37 35 34 31 22 19 18 19
41 43 44 47 50 54 55 55 52 49 47 47 48 45 44 45 44 43 35 25 21 26 30 29 29 28 26 28 29 27 30 31 34 35 27 25 28 35 37 38 37 32 25 26 22 21 18
42 44 45 48 51 53 56 54 51 49 47 48 44 43 43 45 44 40 32 28 30 32 33 30 27 28 21 24 25 27 27 32 31 35 35 30 26 33 36 35 35 30 30 23 21 17 13
41 43 47 50 52 54 55 52 49 47 48 47 43 37 44 46 44 37 28 29 32 34 33 31 31 29 24 25 26 26 30 32 34 33 35 31 28 30 33 31 32 30 27 28 25 22 15
39 44 47 52 51 53 53 51 49 48 49 45 41 34 44 45 35 35 31 33 34 33 35 34 33 33 23 26 24 27 30 33 36 35 30 33 29 26 29 34 35 34 33 29 21 20 21
38 45 49 51 54 54 52 50 48 48 49 43 38 38 43 44 29 30 33 33 34 33 33 34 33 31 29 28 27 30 32 36 36 34 32 31 27 24 25 27 31 30 32 33 29 27 24
39 45 49 51 52 52 51 49 48 49 47 40 36 32 38 40 38 33 32 33 33 35 34 33 30 29 28 28 29 30 32 35 36 34 34 32 29 22 20 23 29 28 30 31 30 26 24
39 47 48 52 54 51 50 49 48 48 48 41 35 32 34 31 32 34 33 33 33 31 33 31 30 29 28 27 28 31 34 35 36 36 32 32 28 26 27 27 29 30 29 29 29 29 26
40 47 49 50 53 51 50 48 48 48 47 38 34 33 34 31 33 33 33 32 31 31 31 30 29 29 29 28 28 29 32 32 31 34 31 31 28 26 23 26 27 26 27 27 28 29 29
42 47 48 50 52 51 49 48 48 48 45 36 33 32 32 33 32 32 31 32 31 33 35 33 31 31 29 30 31 31 31 31 32 32 31 30 28 26 22 25 22 20 22 24 27 27 27
43 47 48 49 52 50 49 48 48 47 40 33 31 31 29 29 32 31 31 32 33 32 33 36 34 32 36 37 35 33 30 29 30 29 31 30 30 28 25 22 16 19 24 24 24 26 26
43 47 49 49 51 50 48 48 48 48 39 32 33 29 27 28 29 30 32 33 33 34 35 36 35 36 37 33 29 27 27 27 28 29 29 28 28 25 23 21 21 22 23 23 20 20 30
43 47 50 50 50 49 48 48 47 47 40 32 33 34 29 27 26 26 31 32 31 32 32 35 33 36 38 32 29 24 22 24 25 28 30 29 28 25 24 21 16 20 27 28 25 20 28
44 45 48 49 50 49 48 46 46 46 41 32 33 37 26 23 26 26 29 29 31 32 31 33 32 36 36 31 27 24 23 24 24 24 25 26 26 24 24 22 24 26 28 27 19 17 29
44 45 47 48 50 48 47 46 45 46 40 31 35 38 27 27 29 29 28 25 26 31 30 30 32 33 33 28 25 25 23 23 21 24 25 23 23 23 24 23 19 27 27 22 22 30 30
45 47 50 51 49 48 46 44 44 46 39 35 33 35 34 30 31 33 33 33 30 30 30 32 31 33 33 29 30 30 27 25 22 18 25 23 24 22 24 24 30 30 28 33 33 32 32

GFSGBSN_sfc_30mbdewp_093.txt.gz
Dewpoint
56 56 58 58 60 60 61 61 60 57 55 52 50 49 48 48 49 49 46 47 45 46 49 46 47 47 42 38 36 37 39 37 42 43 39 37 37 37 34 37 37 37 39 38 44 48 48
51 52 53 56 58 59 60 60 61 58 56 54 51 49 48 47 48 48 47 47 44 45 49 47 45 47 40 27 35 34 35 39 41 40 37 37 38 38 37 36 36 37 38 40 41 46 47
48 49 50 50 54 57 58 60 60 60 56 55 52 49 48 48 49 47 44 45 44 45 48 49 45 45 40 30 37 35 41 42 43 41 37 41 43 38 37 36 38 37 37 39 39 44 47
43 44 47 48 50 52 56 58 60 60 57 55 52 49 47 47 48 46 44 42 44 47 48 48 45 43 35 38 37 34 42 42 44 44 42 44 43 41 39 40 40 35 36 33 39 43 45
42 42 43 45 47 49 52 56 59 60 57 55 53 49 47 48 46 44 43 43 46 48 47 47 42 41 33 36 35 33 33 35 41 43 43 43 42 39 38 34 32 33 30 32 37 42 41
41 42 42 43 45 48 50 54 56 60 57 55 53 50 47 47 46 43 44 46 47 46 44 44 41 36 33 30 32 32 37 37 37 39 39 39 39 33 32 33 25 26 32 34 34 42 41
39 39 41 42 43 46 48 52 54 58 57 55 52 49 47 46 43 43 46 43 39 36 40 33 32 33 32 33 35 37 38 37 38 36 33 35 31 28 31 35 34 31 33 34 37 41 38
40 39 39 39 45 44 47 51 54 54 57 54 52 49 48 45 43 47 44 40 36 35 32 36 33 33 33 35 33 35 39 33 35 31 34 32 29 33 35 35 34 33 32 31 37 40 37
40 40 39 39 41 44 46 49 53 54 57 54 52 50 46 44 45 43 40 40 39 36 33 34 34 33 33 36 35 34 39 37 34 31 32 30 32 35 33 33 35 33 31 32 34 38 38
40 39 39 38 39 44 45 48 50 52 56 53 51 49 45 45 42 42 39 42 40 38 24 25 31 33 37 38 30 37 41 38 33 32 34 35 37 34 33 35 33 30 35 36 37 35 31
40 39 40 38 41 41 44 47 48 51 55 52 51 47 44 45 42 40 39 40 39 32 -5 21 29 36 37 35 35 33 42 40 34 36 36 33 36 34 34 35 34 32 36 36 35 34 34
41 38 40 41 41 42 43 46 47 51 55 51 50 47 45 45 44 42 41 41 37 18 -1 21 30 29 32 34 35 38 40 42 40 36 37 36 39 38 37 38 37 37 36 36 36 33 26
42 40 42 43 41 43 45 45 48 51 53 50 49 46 45 44 39 42 42 37 23 6 25 20 23 28 29 30 32 35 35 35 32 29 30 34 34 37 38 35 36 35 31 27 24 25 23
43 42 45 46 43 44 44 45 48 51 51 49 48 46 44 44 42 43 38 29 15 22 25 30 28 29 27 28 28 31 30 30 34 31 29 28 25 35 37 36 34 33 29 24 20 21 20
44 42 42 45 43 43 45 47 49 54 50 49 48 45 44 44 44 41 32 25 14 24 28 27 28 27 24 28 28 28 30 31 33 34 26 26 29 35 37 38 37 31 29 26 21 21 20
43 41 41 42 44 45 47 50 54 51 50 49 44 43 42 45 43 38 31 27 29 30 31 28 24 26 21 24 25 27 27 32 32 34 34 29 27 32 35 36 37 32 28 23 21 17 12
42 40 40 40 44 46 51 52 52 49 49 47 41 37 44 45 42 36 27 27 31 35 32 29 29 27 25 25 26 28 30 33 34 32 33 30 26 29 31 31 32 30 27 27 24 21 14
41 40 40 41 46 49 49 52 50 49 49 46 39 33 44 45 34 33 30 31 34 33 35 33 33 31 23 26 25 30 30 34 36 34 30 32 28 27 30 34 35 33 32 26 18 20 20
41 40 40 45 47 49 51 51 49 49 49 42 38 37 43 43 28 30 32 33 33 33 33 33 32 32 29 27 27 31 33 36 36 34 31 30 26 22 23 26 30 29 31 31 27 26 22
39 40 41 47 47 50 52 49 49 49 49 40 36 32 38 40 37 31 32 33 32 35 33 34 30 29 28 28 30 30 32 35 36 34 35 32 27 21 17 21 27 27 29 32 29 26 24
39 39 44 48 48 53 51 49 49 50 49 39 34 32 34 30 32 34 33 34 32 32 33 32 30 29 27 27 28 30 34 35 35 35 32 31 27 26 26 27 29 29 29 30 28 29 25
40 40 46 47 50 51 50 49 50 50 47 36 33 32 32 31 33 33 33 33 32 32 31 30 29 29 28 28 28 29 32 32 30 34 31 31 28 25 24 26 27 25 26 27 28 29 29
39 43 47 49 51 51 49 49 50 50 44 33 32 34 32 32 32 32 31 33 32 33 34 32 30 29 29 30 31 32 31 32 32 31 30 30 27 25 23 25 22 19 21 23 26 27 27
38 44 47 48 50 50 48 48 50 49 38 33 32 32 31 30 32 32 32 32 33 33 33 35 33 30 35 36 34 31 29 30 30 29 31 30 29 27 24 22 10 18 22 23 24 24 27
39 44 48 49 52 49 48 47 49 48 37 32 33 29 30 30 31 31 33 33 34 35 35 35 34 36 37 32 28 26 26 26 28 29 28 29 28 25 22 21 20 21 23 23 22 21 27
42 44 47 48 50 49 49 49 48 48 37 33 34 34 30 30 28 27 32 33 32 32 33 34 33 38 36 31 27 22 21 23 25 28 29 28 27 25 23 20 14 18 27 28 24 19 24
42 45 45 47 51 49 49 48 46 48 38 31 34 37 27 25 27 27 30 30 32 32 32 32 34 35 35 29 26 23 22 26 24 24 25 26 26 24 24 21 22 26 28 26 21 18 29
44 45 46 47 50 49 48 48 47 47 38 32 35 37 28 27 30 30 29 26 30 32 31 32 32 32 32 27 24 25 23 23 21 24 24 22 22 23 23 22 17 28 26 23 28 32 32
44 47 50 49 49 49 47 46 46 45 38 35 31 35 35 31 31 33 34 33 31 30 31 31 30 32 32 28 28 28 26 24 21 19 25 22 24 23 24 23 31 32 28 33 33 33 33

GFSGBSN_sfc_30mbdewp_096.txt.gz
Dewpoint
46 47 48 50 51 51 52 55 57 59 60 58 56 55 53 50 48 49 49 46 46 45 48 49 46 48 41 37 36 38 40 38 44 42 39 37 37 37 34 35 36 36 37 39 39 45 45
43 44 43 44 45 49 50 51 53 56 58 59 56 54 53 51 48 49 46 47 47 44 47 49 45 47 40 25 31 35 35 38 41 39 37 37 36 37 35 34 35 35 36 37 40 40 44
41 42 43 43 43 44 45 48 52 53 57 59 56 54 54 51 49 49 45 44 44 44 47 49 46 45 40 26 36 38 39 41 42 41 37 38 38 37 36 34 36 36 35 34 36 40 41
42 42 42 42 43 42 44 46 50 53 55 57 57 54 54 50 49 48 46 43 44 47 48 48 46 43 29 37 38 35 42 42 44 43 41 41 41 41 37 38 37 32 34 32 35 40 42
42 42 42 41 41 41 43 44 47 50 53 55 58 54 53 50 50 46 43 44 45 48 47 47 42 40 32 37 33 36 33 34 41 42 43 42 40 38 36 33 30 32 27 31 35 40 40
41 42 42 42 41 41 40 43 44 48 51 54 58 55 53 50 48 45 44 46 47 46 45 43 41 36 33 30 32 32 36 36 36 38 38 39 36 34 33 30 21 27 27 30 31 40 39
42 41 42 41 40 40 40 40 44 45 50 53 57 54 52 51 47 43 45 42 37 37 40 33 31 32 32 33 35 36 38 36 37 36 32 35 29 27 29 31 30 31 30 32 35 40 37
42 42 42 40 40 40 40 40 43 44 48 52 55 53 51 50 46 45 44 39 36 34 30 36 36 33 33 34 32 36 39 33 35 30 33 31 28 31 33 34 33 31 32 32 39 39 37
43 43 42 40 39 39 39 39 41 43 47 50 54 52 50 49 45 45 41 40 39 36 32 33 34 33 33 35 34 34 38 36 33 31 30 29 32 34 34 33 33 31 32 35 34 38 39
43 43 42 42 41 39 39 40 40 43 46 48 53 51 50 48 42 41 39 41 40 34 22 20 31 33 36 37 30 37 40 37 33 31 33 33 35 32 32 33 33 30 33 36 36 35 30
43 43 42 42 43 40 41 42 43 43 45 48 53 50 49 47 41 38 39 40 38 28 -4 19 29 35 37 35 34 35 42 40 33 35 35 33 34 33 32 35 35 33 36 35 35 34 34
43 42 43 44 44 43 43 44 41 44 45 48 53 49 49 47 44 41 41 39 34 16 -4 21 30 29 31 34 35 38 40 42 41 37 38 35 35 35 37 38 38 37 34 34 34 31 23
43 44 43 42 44 43 46 42 43 44 45 49 52 49 48 46 40 42 40 34 22 7 22 20 24 28 28 29 31 35 35 35 32 28 29 34 35 38 39 35 37 33 29 25 22 20 20
44 44 44 45 44 44 43 43 44 44 45 48 50 49 47 44 43 42 35 28 17 18 22 29 27 28 25 28 28 29 30 31 34 29 28 25 27 35 38 37 35 33 28 23 18 19 21
44 43 45 44 43 42 43 45 45 46 48 50 49 47 45 43 43 39 32 23 16 20 26 27 27 23 23 26 28 27 29 31 33 33 25 27 29 34 38 38 36 33 26 26 21 21 23
43 44 44 43 41 41 44 43 46 49 52 49 45 43 42 44 42 36 30 26 28 28 30 26 21 25 21 24 25 27 27 32 32 33 34 29 28 32 35 35 35 30 29 22 22 16 11
45 44 42 41 41 41 42 47 49 52 49 47 43 38 43 44 41 34 27 27 30 33 32 28 28 25 24 25 25 29 30 32 34 33 32 29 27 30 30 33 32 29 26 26 24 20 14
44 41 41 41 42 44 48 48 52 49 49 45 40 32 44 44 33 32 29 30 33 33 35 33 33 27 24 25 27 30 30 33 36 34 30 31 28 27 30 34 35 33 32 25 17 19 19
42 41 40 41 44 47 48 52 49 49 48 43 37 37 44 43 28 29 31 33 33 33 33 33 32 31 28 26 27 31 32 35 36 33 31 29 25 22 22 26 29 29 32 28 26 24 20
39 40 40 44 47 49 51 50 49 49 48 43 37 32 36 39 35 30 32 32 32 34 33 34 31 30 28 28 31 30 32 35 36 35 35 31 26 20 17 22 27 27 29 31 28 23 22
38 41 43 47 49 52 51 49 49 49 47 41 35 32 34 30 32 32 33 33 32 31 33 33 29 29 28 27 29 30 34 34 34 34 31 29 26 26 26 28 28 29 29 29 27 27 23
41 40 46 48 51 50 49 49 50 49 47 39 32 32 32 31 32 33 33 33 31 32 32 30 29 29 28 27 27 28 32 32 30 32 30 30 27 24 24 25 26 25 26 27 28 29 29
39 43 46 48 52 49 49 50 50 48 43 36 33 34 32 31 32 32 31 33 32 33 34 32 30 29 29 30 31 32 31 32 33 30 30 29 26 24 21 24 21 18 21 23 26 27 27
40 44 46 48 50 50 50 49 50 44 37 33 32 33 30 29 31 32 32 33 32 32 32 34 33 29 33 35 32 30 29 30 29 29 31 29 28 26 22 20 7 17 22 23 23 24 25
42 44 46 48 49 49 50 49 48 41 37 33 33 30 32 30 32 31 33 33 34 35 35 34 34 36 36 30 28 26 26 26 28 29 28 30 27 24 20 19 18 21 23 22 22 21 26
43 44 46 47 50 48 48 49 50 43 37 34 36 35 31 31 29 27 33 33 32 32 33 33 35 38 34 30 26 21 19 23 23 27 29 28 27 24 23 18 9 17 27 28 24 19 30
43 44 46 47 50 49 48 48 49 46 38 34 34 35 28 26 28 28 31 31 33 32 32 33 35 35 33 28 25 22 21 25 22 23 25 26 25 25 23 21 22 25 28 27 20 18 31
43 44 46 49 50 48 47 48 47 45 40 34 33 35 29 29 31 31 30 29 32 32 31 32 32 32 31 26 24 24 23 24 23 24 24 22 22 23 23 23 15 29 26 23 29 32 32
43 45 50 51 50 49 48 47 47 44 39 34 29 35 35 31 31 33 33 33 32 30 32 31 30 31 31 28 26 27 25 24 21 19 25 22 22 22 23 22 29 32 31 33 33 32 33

GFSGBSN_sfc_30mbdewp_099.txt.gz
Dewpoint
44 41 42 43 43 44 43 44 46 48 51 53 56 59 57 55 53 50 50 49 47 46 46 50 46 48 41 36 33 38 42 39 43 41 38 36 36 35 31 34 35 34 36 37 38 38 40
45 44 42 41 42 43 43 43 44 45 48 51 53 57 56 55 53 51 51 46 47 47 45 49 45 46 39 21 28 36 35 38 41 39 37 38 36 36 34 33 33 33 31 34 35 39 40
41 45 45 45 44 43 42 41 44 44 44 48 51 56 57 55 53 51 51 46 45 45 45 48 46 44 39 26 35 38 36 40 41 40 37 38 35 34 36 33 35 33 32 35 33 34 40
42 41 41 43 43 43 41 42 41 43 44 45 51 55 57 54 53 51 50 47 44 45 48 48 47 42 28 35 39 38 42 40 43 42 40 40 40 37 36 36 34 31 31 29 32 33 40
44 44 44 42 42 41 41 42 42 41 43 45 48 52 56 53 51 51 47 45 44 47 47 47 42 38 29 37 34 36 37 34 40 42 43 42 40 37 37 32 27 27 25 29 31 32 40
44 45 44 43 43 42 41 41 42 41 41 44 48 53 56 52 51 51 48 46 47 46 45 42 40 35 31 29 32 32 34 36 36 37 38 39 37 32 33 30 20 25 25 28 31 37 36
45 45 45 44 43 43 42 41 40 40 41 43 48 52 53 51 50 50 47 44 38 37 40 32 32 31 32 33 35 34 38 37 36 36 30 35 29 26 28 29 29 31 26 25 32 39 36
44 43 44 44 44 43 43 42 39 41 40 42 46 50 53 50 50 49 46 39 35 33 30 38 36 35 34 34 32 35 39 33 35 27 32 30 27 33 29 29 30 30 27 28 33 38 36
43 44 43 42 43 44 43 43 41 41 43 43 46 49 52 50 49 48 43 40 40 36 30 33 35 33 33 34 33 34 36 36 33 29 29 28 31 36 33 31 30 27 29 32 32 37 38
44 45 45 44 44 43 45 43 42 43 44 42 44 47 50 49 46 44 40 41 41 33 18 20 31 33 36 37 31 37 39 38 34 30 32 30 35 34 32 30 33 29 33 33 35 34 30
44 44 44 46 44 44 44 44 43 43 44 42 46 48 49 47 43 41 39 42 38 26 -3 18 29 35 37 36 36 36 42 39 33 33 32 32 34 32 32 32 35 29 36 34 35 33 32
44 44 45 45 43 44 44 44 44 43 41 43 45 48 49 46 46 43 41 37 32 14 -4 22 30 29 30 35 35 38 39 41 40 34 33 32 37 36 37 38 36 37 35 35 33 30 23
44 47 44 45 46 45 45 44 44 42 43 43 45 50 48 47 41 42 39 33 20 6 20 21 24 27 28 28 31 35 34 34 31 28 28 33 34 39 39 36 36 32 28 23 18 18 20
46 46 45 43 44 45 45 43 41 43 45 45 47 51 48 47 45 41 34 27 15 16 20 28 27 26 23 28 28 30 31 30 33 29 28 27 27 35 38 36 33 31 27 20 15 19 22
46 44 43 44 45 44 44 43 44 45 43 44 48 47 45 46 44 38 32 22 16 18 25 27 25 21 22 26 28 26 29 30 32 33 26 27 29 36 38 38 37 30 24 26 22 22 23
42 41 43 43 42 42 42 43 45 44 45 45 45 42 43 45 42 36 30 26 27 26 29 26 17 24 21 24 25 27 27 32 32 33 33 29 29 34 34 38 36 31 28 21 21 14 15
41 42 43 42 41 43 43 44 46 47 48 48 41 36 43 45 40 34 26 26 30 32 31 27 25 24 24 25 26 29 30 32 35 33 31 28 28 29 31 32 32 31 27 25 23 19 12
41 41 40 41 42 45 46 46 49 50 50 43 40 32 44 44 30 31 28 30 33 32 35 33 31 26 24 25 28 30 30 33 36 34 29 30 28 28 30 32 34 33 31 24 17 17 18
41 40 43 43 45 46 49 50 49 46 44 41 36 37 44 41 27 27 31 32 33 32 33 32 31 31 27 28 27 31 32 35 35 33 31 29 25 22 21 23 28 29 31 27 25 22 19
41 43 44 47 49 50 51 49 47 45 44 41 37 31 37 39 33 29 31 32 32 34 33 34 30 30 29 28 31 30 31 35 36 34 35 30 25 19 16 21 27 26 30 30 26 18 21
41 44 48 49 52 51 49 48 47 47 46 41 37 33 34 29 31 32 32 32 31 30 33 32 29 29 28 27 28 30 33 33 33 33 31 28 26 25 26 28 27 29 29 29 26 26 22
42 46 49 52 52 49 48 49 48 47 45 38 33 33 32 30 31 32 33 32 30 32 32 30 28 28 28 26 26 27 31 31 30 30 30 29 26 24 24 25 25 25 26 27 28 29 29
44 47 51 51 50 50 50 47 43 42 42 37 34 34 32 30 29 31 30 32 31 33 33 32 30 29 29 30 32 32 32 32 32 30 30 28 26 22 21 24 21 18 21 24 26 27 27
45 46 51 50 51 51 48 44 41 40 37 34 33 33 29 29 30 29 32 33 32 32 31 33 31 29 32 33 31 30 30 30 29 29 31 28 26 25 21 16 5 17 22 23 23 24 26
44 45 47 50 50 50 49 45 41 38 36 33 34 31 31 28 30 32 32 33 34 34 33 33 34 35 35 30 28 26 26 26 27 29 28 29 26 22 17 16 15 21 24 23 21 24 30
43 45 46 48 50 50 50 48 45 40 37 35 34 34 33 31 30 27 33 33 32 32 32 34 37 38 33 28 24 19 16 22 23 27 28 27 26 22 22 14 3 16 27 28 23 20 30
43 44 46 49 50 50 49 50 48 44 39 33 33 35 29 27 29 29 31 31 32 32 31 34 35 34 32 27 24 21 19 24 21 22 25 25 25 24 23 20 20 23 27 27 19 15 31
43 45 48 51 49 49 49 49 46 43 40 33 33 35 30 29 31 32 31 30 32 32 30 32 31 31 30 25 24 24 22 24 24 24 24 22 21 23 24 22 11 29 26 23 27 31 31
43 46 50 51 49 48 48 47 46 42 38 35 31 35 35 31 31 33 33 34 33 31 32 32 30 31 31 27 26 26 24 23 21 18 25 22 22 20 23 20 26 31 30 33 32 29 32

GFSGBSN_sfc_30mbdewp_102.txt.gz
Dewpoint
46 46 45 46 46 45 44 43 43 43 45 45 46 50 55 58 56 54 51 52 50 48 46 47 48 48 41 33 26 35 43 44 41 37 31 33 31 29 24 24 27 25 24 26 31 32 33
46 45 45 44 45 46 46 44 43 42 42 44 45 49 54 57 56 53 50 52 48 48 46 47 47 46 36 25 28 36 35 37 36 37 36 36 33 33 29 28 26 21 24 23 29 32 34
43 45 45 44 44 45 45 45 43 43 43 42 45 47 50 56 55 53 50 51 48 47 47 46 47 43 37 27 32 36 36 36 38 37 33 36 36 33 32 29 29 27 25 26 26 26 32
47 46 45 47 46 44 44 42 42 43 42 42 44 46 52 53 54 52 51 50 49 45 47 48 48 42 30 33 37 37 37 38 41 40 39 39 39 36 35 34 32 29 25 20 22 30 31
46 46 47 47 47 46 45 45 42 42 43 41 43 46 51 53 52 50 49 48 48 46 48 49 44 37 25 37 35 35 36 33 37 40 42 40 39 36 36 31 29 25 16 18 19 29 31
45 45 45 44 45 46 45 43 43 42 39 41 42 45 51 54 51 50 48 49 48 46 45 42 39 35 34 28 32 33 35 34 33 35 35 36 36 32 32 29 19 16 18 15 20 27 32
45 45 45 44 42 44 44 45 44 44 41 40 42 43 52 51 50 49 48 45 36 38 40 31 31 30 30 33 35 34 36 35 34 33 26 29 29 26 30 30 27 27 20 18 24 25 30
45 46 46 45 45 45 45 44 45 43 42 44 42 43 47 51 49 48 46 38 35 35 32 37 36 35 35 34 31 34 38 32 32 27 27 31 27 30 30 29 26 30 25 21 29 32 29
44 44 45 45 45 45 45 45 45 43 43 43 43 43 47 50 49 47 44 40 41 37 31 33 35 34 34 34 32 33 34 35 32 30 29 28 29 34 33 27 26 28 25 23 29 34 35
44 45 45 45 45 45 46 46 45 44 42 43 43 46 52 49 45 45 43 43 42 37 28 24 32 34 35 36 33 37 37 37 35 31 32 31 34 32 32 27 28 24 26 28 31 30 28
44 44 46 46 46 46 45 46 45 44 44 42 43 45 51 47 44 41 42 43 39 32 14 22 30 36 37 35 35 37 40 39 32 32 31 31 32 31 30 29 30 24 28 32 32 29 30
44 44 45 47 45 46 46 46 46 45 44 42 43 45 50 46 44 45 43 37 33 24 7 23 30 30 32 35 35 38 39 40 39 32 35 33 37 37 35 31 33 36 34 34 32 30 26
45 46 45 46 46 45 45 46 46 45 44 46 45 46 48 46 41 46 38 33 26 18 21 23 26 28 27 28 30 34 34 33 32 30 29 33 35 38 39 33 36 35 34 26 23 23 22
43 43 41 42 43 45 46 47 43 42 44 44 45 49 47 47 46 42 35 29 21 18 23 27 27 26 26 28 28 29 31 30 32 32 31 29 27 35 39 36 31 31 27 23 16 17 22
41 42 42 43 44 44 44 43 45 45 45 43 45 47 45 46 45 39 30 27 23 21 25 26 26 22 24 26 28 27 29 31 32 32 28 28 29 37 37 38 36 30 26 26 23 25 21
42 42 41 42 42 43 42 45 44 43 43 44 45 42 43 46 44 37 31 27 29 25 29 26 19 23 21 25 26 27 27 32 33 34 32 30 29 35 35 36 35 30 28 23 25 17 15
41 42 43 43 44 45 43 44 45 46 46 46 41 37 43 45 41 31 27 27 30 32 31 27 23 24 24 25 27 28 29 32 35 33 31 29 29 32 33 32 32 30 26 25 22 19 12
43 44 45 45 44 44 45 46 47 48 48 46 40 32 44 45 32 30 27 30 32 31 34 33 29 26 25 26 28 29 29 33 36 35 28 30 29 29 30 32 33 32 29 24 21 17 19
44 48 51 52 49 46 47 48 49 50 47 41 37 37 45 43 28 26 30 32 34 32 33 32 30 30 27 28 27 31 32 35 36 34 30 28 25 24 24 26 28 30 31 29 25 25 21
47 50 52 52 51 50 51 51 51 48 44 42 38 31 37 38 32 26 31 32 30 34 34 33 31 30 29 29 31 30 31 34 36 34 34 30 26 22 19 24 28 27 28 29 27 25 19
48 52 50 49 48 48 47 46 46 46 44 42 39 34 35 30 30 30 32 33 29 29 33 31 29 29 28 26 28 29 32 32 32 32 31 30 27 26 27 27 29 28 28 28 27 25 23
48 51 50 50 47 47 46 45 45 44 43 39 36 33 32 30 30 30 33 32 28 32 32 30 29 29 29 26 27 26 30 30 30 30 30 30 27 26 25 24 25 24 25 26 27 28 28
46 49 51 48 45 44 42 41 40 42 41 38 35 34 31 30 29 30 30 32 31 33 33 32 30 30 30 31 32 32 32 31 31 30 29 28 27 24 22 23 20 18 21 23 25 27 27
45 46 50 49 45 42 42 40 40 38 39 36 35 34 29 27 28 29 32 33 33 32 32 33 32 30 32 32 31 30 30 30 29 29 31 27 27 26 21 16 10 20 23 23 24 26 27
43 45 47 50 49 45 43 41 41 36 36 35 35 34 31 27 28 30 32 34 34 34 33 33 35 36 33 31 29 26 25 26 27 29 28 28 25 22 16 13 16 21 24 23 21 24 30
43 45 47 50 51 48 47 46 43 40 38 35 34 35 34 30 29 30 34 33 32 32 33 35 37 38 33 28 24 19 15 22 20 25 28 28 26 21 22 11 3 18 27 28 24 19 31
43 45 48 51 50 50 50 48 44 41 36 35 35 35 32 29 30 29 32 32 33 32 32 34 34 34 33 28 24 22 18 24 20 20 23 26 26 22 21 18 17 22 27 28 19 16 31
43 46 48 51 50 50 51 47 43 42 39 36 34 36 33 31 31 32 31 32 33 33 31 34 32 32 30 27 25 24 22 24 24 24 24 22 21 22 24 21 10 27 27 23 26 31 28
43 47 51 51 50 50 51 47 44 40 39 37 33 36 35 33 32 34 34 34 33 32 34 33 32 32 33 29 27 26 23 24 22 17 26 21 22 20 23 18 26 30 28 32 30 26 29

GFSGBSN_sfc_30mbdewp_105.txt.gz
Dewpoint
45 45 45 45 44 44 44 46 46 43 44 42 43 45 45 52 53 57 53 50 51 49 47 46 49 48 41 34 28 37 44 45 42 38 30 27 26 22 19 15 17 18 21 23 25 26 28
44 47 47 47 47 46 45 46 46 44 43 44 42 43 46 50 53 56 50 51 49 48 47 46 48 47 37 31 26 33 37 38 33 32 30 30 28 27 26 23 21 18 16 17 19 21 27
45 47 47 47 47 48 47 46 45 44 44 43 42 43 44 49 53 52 50 51 49 48 47 46 48 44 38 33 27 32 34 32 33 33 30 30 31 30 27 25 25 25 23 20 18 21 24
45 47 47 47 47 47 47 48 46 44 44 42 43 43 44 49 53 51 51 51 48 46 46 47 49 43 35 31 30 33 32 32 35 35 35 34 35 32 30 32 30 27 27 22 18 16 21
46 46 46 47 47 46 46 47 46 45 45 42 42 42 44 46 50 51 51 49 47 46 49 48 45 41 28 37 30 29 30 32 33 36 37 35 36 32 34 30 27 25 22 19 17 13 20
44 46 46 47 47 46 45 45 46 46 46 43 41 42 44 50 53 50 47 47 48 47 45 42 38 32 30 27 31 31 33 32 31 31 33 34 34 30 31 29 19 24 23 16 14 11 19
44 45 46 46 46 46 46 46 46 45 44 44 43 42 44 53 50 48 48 45 38 37 38 30 30 29 27 30 33 32 33 33 32 30 26 28 29 24 24 28 30 27 21 17 18 10 24
44 44 45 46 47 46 46 46 46 46 45 44 44 44 42 50 49 48 47 39 35 37 33 33 34 33 33 34 31 32 35 32 31 30 30 30 26 26 34 33 32 31 23 20 19 22 23
46 46 46 46 44 47 47 47 46 46 44 44 44 44 43 48 49 48 43 40 40 37 30 33 34 33 33 34 31 32 35 34 32 32 32 29 29 34 33 30 27 26 24 22 29 25 24
44 44 44 44 45 45 46 47 47 46 45 44 43 44 49 51 45 45 42 45 42 39 31 28 31 33 35 34 34 36 36 36 35 31 32 31 33 33 32 28 24 19 21 28 31 25 24
44 42 43 44 46 47 46 46 46 46 45 42 43 44 51 46 45 42 44 44 42 35 18 26 30 36 35 35 35 37 38 39 32 33 32 32 32 32 31 26 24 25 27 26 30 26 30
43 43 44 44 44 45 46 46 46 46 44 43 43 45 50 45 45 45 45 42 37 28 17 25 30 32 32 34 34 38 39 40 37 34 35 33 36 35 32 31 28 31 30 34 36 32 23
43 43 42 42 43 44 46 47 44 45 44 45 45 46 48 45 42 46 42 35 29 23 20 26 29 29 28 28 30 33 34 36 33 30 30 34 35 36 37 32 34 33 33 27 25 25 22
43 42 42 42 44 45 45 46 45 44 45 44 46 48 48 46 47 44 38 31 24 20 24 26 27 27 26 28 28 28 30 34 35 33 31 29 25 34 37 36 34 32 31 26 22 22 24
44 44 45 44 44 45 44 44 44 45 44 44 48 46 45 46 45 43 33 29 27 24 24 26 26 23 24 25 27 26 28 30 31 31 31 31 30 36 36 37 35 30 25 26 24 21 21
45 47 44 45 44 44 45 43 42 43 44 46 45 43 42 46 45 41 32 28 29 25 28 26 19 22 20 23 24 25 26 32 32 32 33 32 29 34 35 35 34 29 27 25 27 17 15
49 52 50 45 44 44 43 41 43 44 45 47 42 37 43 46 44 33 29 28 28 29 32 27 22 22 22 23 26 25 26 31 33 32 31 31 32 31 33 31 31 30 26 23 23 19 12
51 53 51 46 45 44 43 45 47 46 46 46 41 32 44 45 35 30 26 31 32 29 34 31 28 25 24 26 25 25 27 30 34 33 28 29 30 28 29 31 30 31 28 24 24 15 18
50 50 52 49 45 45 44 46 47 47 46 42 37 37 44 44 30 26 30 32 33 30 31 30 28 27 28 27 25 28 29 34 34 33 30 28 25 26 25 27 28 27 26 25 25 30 21
51 49 49 52 48 47 46 47 48 48 45 42 37 32 37 37 31 26 30 30 26 34 33 31 29 29 27 26 28 27 27 32 34 32 34 31 27 25 23 27 29 26 26 25 29 25 20
51 48 48 47 50 52 51 50 49 50 46 42 37 33 33 30 30 28 32 30 26 27 33 31 28 28 26 22 24 25 29 28 30 31 30 29 27 27 26 26 28 25 25 25 26 24 23
48 50 47 47 46 46 47 47 46 45 43 41 34 31 33 30 29 29 31 30 25 29 31 27 27 29 27 26 27 25 27 27 28 28 28 29 26 27 23 23 24 21 22 24 25 25 25
47 49 49 45 44 44 43 44 44 44 45 40 36 35 30 30 28 28 28 30 28 31 33 32 29 27 28 31 31 31 31 30 30 29 27 26 26 25 22 21 19 18 21 23 24 25 25
45 48 50 47 45 43 41 40 39 39 40 37 36 33 28 27 27 27 30 33 29 32 30 32 33 29 32 32 31 30 30 29 29 29 29 25 25 25 20 17 13 21 23 23 23 25 27
44 47 50 49 48 46 44 43 41 40 38 36 35 34 29 26 27 28 30 33 34 33 33 33 35 35 33 31 28 24 23 25 26 28 28 28 23 19 17 10 15 20 22 23 22 22 28
43 45 48 51 50 48 48 45 41 39 38 36 36 37 32 27 26 30 32 33 29 29 32 35 36 36 34 29 24 19 12 19 16 22 28 28 25 20 18 12 2 18 25 27 24 18 29
43 45 48 50 51 50 49 46 44 40 38 36 36 37 34 30 30 32 33 33 34 32 31 34 33 34 34 28 24 20 16 23 17 17 20 23 23 20 16 17 14 23 27 27 18 21 30
43 46 49 51 50 51 48 45 43 42 40 37 35 37 36 32 32 32 32 33 34 34 29 35 32 33 31 28 25 23 19 21 21 22 21 19 18 18 20 18 14 26 27 22 27 29 29
44 48 51 51 51 50 50 45 43 42 41 40 35 35 36 35 33 34 34 34 34 33 35 36 34 33 35 29 26 25 21 22 20 13 25 19 20 19 20 19 26 27 28 31 30 29 28

GFSGBSN_sfc_30mbdewp_108.txt.gz
Dewpoint
47 47 46 48 48 48 48 47 46 46 46 43 44 43 43 44 48 53 56 53 50 49 48 47 49 48 44 35 30 44 44 46 44 37 30 26 25 23 20 18 16 15 17 19 21 24 26
47 45 45 47 48 48 48 48 47 46 45 45 42 44 44 44 48 52 55 51 51 50 48 48 49 48 38 30 27 39 37 40 34 33 28 29 27 27 26 23 21 19 18 18 19 19 19
45 45 45 48 49 48 49 48 47 48 46 45 44 43 44 44 47 53 52 51 49 49 47 47 48 45 38 29 28 31 34 32 32 32 29 29 29 29 28 25 26 26 25 25 24 22 19
43 42 45 45 47 48 48 49 48 47 47 45 45 43 43 44 47 53 52 51 49 47 46 46 48 44 35 31 32 32 31 30 33 33 32 33 33 31 30 31 30 27 26 24 24 24 21
40 40 44 45 46 47 48 49 48 47 46 46 46 43 43 43 46 50 53 50 47 46 47 47 47 42 29 35 27 28 29 30 32 34 34 33 32 32 31 30 26 25 22 21 21 22 21
40 41 44 45 45 47 47 48 47 46 47 46 46 44 44 44 50 52 49 48 47 49 47 44 38 35 30 28 30 30 31 32 30 32 32 34 32 31 30 29 17 19 21 27 25 21 19
43 43 45 45 46 46 46 49 46 47 47 46 45 44 45 51 53 49 48 48 43 39 38 33 31 28 27 31 32 32 31 32 31 30 26 28 30 26 26 27 25 24 27 25 24 19 18
44 45 44 43 45 45 46 46 47 47 47 45 45 44 45 49 49 49 47 40 36 37 33 36 32 31 32 33 31 32 34 31 31 30 31 31 28 28 26 29 30 30 27 25 25 25 21
44 43 44 44 45 46 45 44 46 47 47 44 44 44 45 46 50 48 44 42 41 38 31 33 32 33 33 34 31 32 34 34 35 33 32 29 30 33 33 31 28 29 25 24 25 31 24
43 44 42 43 45 46 46 47 45 47 46 45 44 44 47 51 46 46 42 45 45 39 31 29 32 33 35 34 34 34 36 37 36 32 33 32 32 33 31 29 27 24 25 25 29 28 25
45 44 43 42 43 45 47 47 47 45 45 43 44 50 49 48 45 41 45 47 44 37 20 27 31 37 35 35 35 36 38 39 33 33 33 32 33 29 27 27 26 22 28 35 31 31 27
45 44 45 43 45 45 46 46 46 46 44 44 46 49 49 45 46 46 47 44 39 29 15 24 32 33 32 34 34 38 38 40 39 35 34 33 36 35 32 33 32 30 33 34 32 30 26
48 44 44 44 45 47 47 45 45 45 46 46 46 49 48 46 42 47 43 38 29 22 21 25 29 30 30 31 31 34 37 36 33 30 29 34 34 36 36 34 35 34 30 25 24 25 25
51 45 44 45 44 46 45 44 45 45 46 48 48 48 47 47 47 44 40 33 22 20 25 27 28 28 28 28 28 29 36 32 35 32 32 29 24 35 37 35 32 34 33 27 21 23 27
51 49 45 45 44 43 44 44 46 44 46 47 46 45 44 46 46 44 37 26 27 27 25 27 27 25 25 26 27 27 30 30 32 31 30 31 29 35 37 37 36 32 30 31 30 25 25
52 50 45 45 45 44 44 45 43 44 46 47 44 41 42 46 46 41 35 27 27 26 28 26 22 23 20 23 25 25 28 31 32 32 35 31 28 33 34 35 36 33 29 26 29 23 21
52 49 46 44 45 44 43 43 44 45 47 46 42 37 44 46 44 37 29 28 27 29 32 29 24 21 22 23 24 24 28 32 33 32 33 32 33 29 32 31 30 29 27 25 24 20 15
51 47 46 44 45 44 42 43 45 46 47 45 39 33 43 46 35 33 29 31 32 30 33 31 29 25 25 26 25 25 27 32 34 33 30 29 30 28 29 30 29 31 25 24 23 22 21
49 48 46 45 45 44 45 47 46 46 46 40 37 37 42 43 30 27 30 30 32 31 31 31 28 28 28 27 26 27 28 34 34 33 30 29 26 26 26 28 29 26 26 28 27 32 21
49 49 50 47 45 45 46 47 47 47 46 42 36 32 37 38 35 28 29 28 26 34 32 31 29 29 25 25 26 27 27 31 33 31 33 34 28 27 25 26 29 25 26 27 29 23 24
50 49 48 49 50 48 47 48 49 48 47 45 36 32 33 31 31 30 32 29 25 27 31 29 27 27 25 23 23 26 26 27 30 30 30 30 26 26 25 26 27 23 24 26 24 25 23
49 49 47 47 48 50 49 49 50 50 48 42 37 33 33 31 29 29 32 30 25 28 32 26 27 27 29 28 28 28 28 29 28 30 28 28 26 27 22 22 22 21 23 25 26 26 26
47 50 46 46 46 46 45 44 44 45 44 43 37 35 34 30 28 27 29 30 26 30 32 32 30 28 30 31 31 31 30 29 29 29 28 26 26 26 23 22 20 20 21 23 23 26 27
45 48 48 44 46 46 46 44 42 42 43 42 37 36 30 27 27 27 30 32 29 32 31 32 34 30 32 32 32 31 29 28 28 28 28 26 24 24 21 18 12 22 24 23 23 26 28
44 46 49 45 45 47 46 44 43 40 40 39 37 38 32 26 27 27 29 32 33 33 33 34 35 35 33 32 30 24 27 26 25 28 28 27 25 20 19 12 14 20 23 23 22 24 28
43 45 46 49 48 46 47 46 43 42 40 38 38 38 38 28 26 29 29 33 30 30 33 35 36 35 35 31 26 19 15 18 17 22 28 28 26 22 18 14 7 20 25 26 24 19 29
42 44 46 48 50 50 48 46 44 42 41 39 38 39 38 32 31 32 32 33 34 31 32 34 33 34 34 30 25 21 18 21 19 17 21 23 23 21 20 17 17 25 27 26 19 22 30
42 45 48 50 50 51 48 45 43 43 43 40 37 38 38 34 33 33 33 34 35 34 31 34 32 33 32 29 26 23 21 23 20 20 20 20 18 20 20 18 13 28 27 22 27 30 30
43 46 51 52 51 51 46 44 44 44 42 42 39 36 36 36 34 35 34 34 34 34 35 36 35 34 36 31 28 26 23 22 20 15 25 18 21 21 20 22 26 28 28 30 30 29 29

GFSGBSN_sfc_30mbdewp_111.txt.gz
Dewpoint
46 43 43 46 46 48 49 50 51 50 49 48 46 44 44 44 45 48 53 55 54 51 49 47 49 49 45 37 35 47 46 48 42 36 30 27 26 25 23 23 23 19 17 20 21 22 22
47 44 41 41 46 46 48 49 49 49 49 47 46 45 44 45 45 47 50 56 52 50 48 48 49 48 40 26 43 44 45 43 36 33 29 29 29 29 25 25 24 25 27 26 26 25 23
45 44 42 42 43 46 47 48 49 49 48 47 46 45 44 44 45 50 54 53 53 49 48 49 49 46 38 24 32 40 38 35 33 32 31 35 33 30 30 27 30 28 25 27 26 26 26
43 44 44 44 44 44 47 47 49 48 49 48 47 47 44 44 45 50 54 52 50 49 47 48 48 46 34 33 33 32 32 32 33 33 33 33 33 31 30 32 29 25 25 22 24 25 26
45 45 44 45 45 44 46 48 48 48 48 48 46 46 45 45 45 50 52 50 48 46 46 47 47 43 31 33 28 31 30 30 34 33 34 32 33 32 32 29 26 26 21 23 24 25 25
46 45 44 45 44 44 44 46 49 48 48 47 46 45 46 47 48 52 49 49 48 47 47 47 42 36 32 30 29 28 29 32 32 35 34 34 33 31 30 29 18 18 23 24 25 24 25
46 45 44 44 44 45 47 45 45 47 46 46 45 45 47 53 52 49 50 49 43 41 41 34 32 30 29 32 32 31 32 32 31 30 27 32 29 25 26 29 26 25 25 24 24 28 27
46 46 44 43 45 46 45 45 45 46 47 45 45 45 47 50 49 48 45 42 38 38 32 36 34 32 33 33 32 33 34 31 31 29 31 30 27 29 29 27 27 30 28 26 26 26 27
46 44 45 43 45 46 46 45 46 46 46 45 44 44 48 52 48 46 44 43 44 40 31 33 33 33 33 34 32 33 34 35 34 33 32 28 29 34 33 32 30 28 27 27 25 27 28
47 44 45 44 44 46 46 45 46 47 45 44 47 46 46 50 46 46 44 46 45 41 28 29 32 34 35 34 34 36 38 37 36 30 34 31 32 32 31 30 31 26 27 29 31 27 21
49 46 44 44 45 46 47 47 46 45 44 45 48 50 49 48 45 42 45 48 45 38 9 28 32 37 36 35 35 37 40 38 34 34 33 29 33 33 27 27 28 26 26 29 30 29 27
52 47 44 45 46 47 46 46 46 44 45 48 48 49 47 45 45 46 47 46 40 27 7 23 33 33 34 35 35 37 38 40 39 35 35 33 36 35 32 31 33 34 32 33 32 30 23
51 46 45 45 47 47 46 46 45 46 46 47 49 48 47 47 42 46 43 39 24 11 21 24 28 31 31 32 34 37 37 35 33 28 28 34 33 35 35 35 36 35 30 24 21 21 23
49 44 46 45 45 46 46 45 46 46 48 49 48 46 46 46 46 45 40 31 15 21 24 28 29 29 28 29 29 33 35 32 35 33 30 28 21 33 37 35 32 32 31 26 20 22 26
47 45 46 44 45 45 46 45 46 47 48 47 45 44 44 46 46 43 36 23 24 25 27 27 27 26 26 26 27 28 31 30 32 31 28 29 27 34 36 37 38 35 31 33 29 31 24
46 46 46 45 45 45 46 44 45 47 47 46 42 42 42 46 46 39 32 27 25 28 31 28 24 24 22 24 25 25 29 32 32 32 34 32 29 32 33 37 36 36 33 27 29 22 20
46 45 46 45 44 44 44 44 45 47 47 47 40 38 41 45 42 36 28 28 28 30 33 30 27 24 24 24 25 26 29 32 33 33 33 32 32 29 31 29 28 29 27 25 25 23 23
46 46 45 45 45 44 44 44 46 47 47 42 38 33 41 44 33 33 28 31 32 30 33 32 30 27 26 27 27 26 28 31 34 33 31 30 30 26 27 30 29 29 27 25 22 20 23
50 46 45 45 45 45 47 46 46 47 48 40 36 36 41 43 27 28 30 30 32 33 32 30 29 29 28 26 26 27 29 33 34 32 28 30 27 24 23 23 27 28 26 28 28 27 23
49 50 48 46 46 46 47 48 47 47 48 44 36 30 34 37 36 29 30 27 28 34 33 31 29 29 26 24 27 27 28 31 33 30 33 33 27 26 19 24 29 24 26 26 26 24 25
50 48 50 49 48 47 47 48 49 49 49 45 36 31 32 27 28 31 31 30 27 29 32 31 28 29 27 25 26 26 28 28 31 30 30 30 25 25 26 27 25 23 25 26 24 25 22
48 49 47 49 51 48 47 48 49 49 47 42 36 33 33 31 29 30 31 29 26 29 31 29 28 30 30 29 29 28 29 29 29 30 28 29 23 26 22 22 22 21 23 25 26 27 27
47 49 48 46 46 46 46 45 44 44 43 41 40 36 33 30 28 28 28 30 28 31 32 32 32 31 29 31 31 31 31 30 29 28 28 26 26 26 23 22 20 19 21 23 24 27 27
45 47 49 48 47 43 42 42 41 41 42 42 40 37 32 27 29 27 31 32 30 32 32 32 33 31 32 33 32 32 30 29 28 28 28 26 24 24 20 16 8 22 23 23 24 27 29
44 46 47 49 48 48 44 42 42 42 42 40 39 38 35 29 28 27 29 32 33 33 32 34 35 35 35 33 28 24 25 25 26 27 26 28 25 20 14 15 14 21 22 23 23 21 29
42 44 46 47 49 49 48 46 43 41 42 39 37 39 38 33 26 31 28 31 31 31 32 34 36 36 35 32 27 19 14 17 17 19 28 27 27 21 18 10 3 17 24 25 23 14 28
42 43 45 47 48 49 50 47 43 44 41 37 36 39 37 33 31 32 30 32 34 33 32 34 33 32 34 30 26 22 18 21 16 18 19 21 23 18 20 18 17 24 26 26 15 14 29
43 43 45 49 49 49 51 48 43 44 43 38 36 38 37 34 33 33 33 33 34 34 32 34 31 32 33 27 26 24 21 22 19 19 19 18 19 19 19 18 9 27 27 18 20 30 30
43 43 48 51 51 50 51 47 44 45 42 43 37 36 38 35 35 35 34 34 34 34 34 36 34 34 35 31 28 26 23 23 20 15 25 18 20 18 20 18 24 28 25 28 30 30 30

GFSGBSN_sfc_30mbdewp_114.txt.gz
Dewpoint
48 43 44 45 43 43 46 48 49 51 51 50 48 48 45 44 45 46 48 52 56 54 51 48 49 49 43 36 38 44 47 44 39 34 28 27 26 25 22 24 23 20 23 26 27 27 25
42 45 46 45 45 44 44 48 48 49 50 50 50 47 46 45 45 46 48 51 56 52 49 48 50 48 40 28 43 46 45 43 35 32 30 30 29 29 27 26 24 26 27 26 27 27 28
45 47 47 46 46 46 45 48 46 48 49 49 49 47 46 45 45 49 53 55 53 50 48 49 50 45 34 27 36 44 41 36 34 33 33 34 33 29 30 27 30 28 24 24 22 23 23
46 46 46 46 45 45 46 47 47 48 49 49 47 47 46 46 46 51 54 53 52 52 49 49 49 44 32 34 38 34 33 33 34 34 33 33 32 31 29 31 29 25 25 20 21 24 25
47 46 46 44 44 45 46 45 48 48 48 47 47 46 46 46 47 50 53 51 49 48 48 49 45 41 31 32 30 32 31 32 33 33 34 33 33 31 32 28 24 24 17 21 23 27 27
46 45 45 43 45 46 45 46 46 49 48 47 46 46 46 47 50 51 49 48 47 47 47 47 43 32 33 30 28 29 30 32 33 34 34 33 33 30 30 26 15 18 20 22 21 23 24
49 45 45 43 46 46 46 45 45 46 47 46 46 47 52 53 51 50 49 46 41 40 40 35 34 31 31 32 32 31 32 32 31 31 29 33 28 24 24 28 25 24 24 24 25 26 26
51 45 45 44 45 46 46 46 46 47 46 46 46 51 52 51 51 51 46 39 40 39 32 35 34 32 33 33 31 32 33 31 31 28 31 28 25 27 29 28 27 27 26 24 26 27 26
51 45 45 45 46 46 46 47 47 46 46 45 46 49 50 49 47 45 44 43 45 39 28 32 33 34 33 33 32 33 33 34 33 31 31 26 26 32 31 30 28 27 26 26 25 26 29
48 45 46 46 46 46 47 47 46 44 46 49 45 49 49 48 44 46 43 46 44 41 24 30 32 34 34 35 34 36 39 37 35 29 31 30 31 31 31 30 28 25 27 28 27 29 22
47 45 46 47 46 47 47 46 44 45 48 50 46 46 49 47 44 43 46 47 45 37 4 28 33 37 36 35 35 38 40 37 34 33 32 28 32 32 30 27 29 26 28 28 30 30 28
46 47 47 47 47 46 46 45 45 48 49 49 49 49 48 45 45 45 47 45 38 17 12 24 33 32 34 35 36 38 38 40 39 35 34 33 36 35 32 31 29 32 34 33 33 30 21
47 46 46 46 46 46 46 46 46 46 49 49 48 47 46 46 41 46 43 37 17 15 21 23 28 33 32 33 34 36 36 35 32 27 26 32 33 35 35 33 36 36 30 23 21 20 20
46 45 46 46 47 46 46 47 46 48 49 48 47 45 46 46 45 44 39 24 18 21 22 28 30 30 28 31 32 36 36 33 36 34 29 26 23 33 36 36 32 32 31 26 19 20 24
46 46 46 45 47 46 46 47 48 49 47 46 45 44 43 44 45 41 32 21 22 25 28 27 27 26 26 27 28 31 33 30 32 31 29 28 25 32 35 37 37 35 31 34 28 31 23
46 46 45 45 46 45 45 45 47 48 48 48 41 41 40 44 45 38 28 25 25 28 31 28 24 25 22 25 25 27 29 32 32 33 34 31 28 31 33 37 37 36 36 29 29 22 18
45 46 46 45 44 44 45 46 47 48 47 47 39 34 39 43 41 32 26 27 28 30 33 29 28 25 25 25 26 27 28 32 33 33 33 32 32 28 31 28 28 29 28 27 26 29 22
45 45 45 45 46 46 45 46 47 47 49 41 38 30 39 43 30 30 28 30 32 30 33 32 30 28 27 27 27 26 27 29 34 33 30 30 29 26 25 30 30 29 27 26 20 22 24
48 46 46 46 46 48 48 47 47 48 49 42 35 35 40 40 26 28 30 29 32 32 32 30 28 29 28 26 25 27 28 31 34 31 29 30 27 23 11 17 26 27 26 27 27 24 23
49 51 47 46 46 46 47 49 49 49 50 42 34 27 31 34 35 30 28 26 25 33 32 31 30 29 26 25 28 26 27 30 32 31 33 32 27 24 17 22 27 24 25 26 25 22 24
50 48 51 48 47 46 46 47 48 48 48 43 34 31 33 27 28 31 31 29 28 28 31 31 28 30 28 24 26 27 28 29 30 31 30 29 23 25 25 26 26 23 24 26 24 24 21
48 49 48 51 48 47 46 47 47 47 44 42 35 33 33 31 30 29 31 28 27 29 30 29 29 30 30 28 29 26 29 28 28 29 28 29 23 26 23 22 21 20 22 25 26 27 26
47 49 49 47 48 49 47 44 43 44 42 40 41 37 33 30 29 28 28 30 29 32 32 32 32 31 28 30 32 31 31 30 29 28 28 26 25 24 22 21 20 17 20 23 24 27 27
45 47 49 48 48 45 44 43 42 41 42 41 39 37 32 28 28 28 28 32 31 32 32 32 33 31 32 33 33 32 31 30 29 28 28 26 24 24 18 15 3 17 24 23 23 27 28
43 45 46 48 49 48 46 45 44 44 43 39 38 37 34 29 29 27 27 31 33 33 32 33 34 35 35 34 27 23 21 23 25 28 26 27 24 19 9 12 11 18 22 23 21 17 29
43 43 45 46 47 49 49 47 44 44 42 37 36 38 37 31 26 30 29 30 32 31 31 34 36 36 35 32 26 18 12 17 14 16 28 27 25 20 18 6 -3 8 22 25 21 10 26
43 42 43 46 47 48 49 49 46 45 42 36 35 38 37 32 32 32 29 30 34 33 31 33 33 32 34 29 26 23 20 21 16 18 18 21 23 18 17 15 17 18 25 24 7 -3 27
44 43 43 46 47 48 49 50 47 44 43 39 35 38 36 33 33 33 33 33 34 34 32 33 30 30 32 26 27 25 22 21 22 19 20 15 18 18 20 18 5 26 26 18 15 29 30
43 43 43 47 50 50 49 50 48 44 43 43 38 37 38 35 34 35 35 35 35 34 34 35 33 33 34 31 29 27 23 23 21 15 23 19 20 17 19 15 21 28 23 26 30 29 30

GFSGBSN_sfc_30mbdewp_117.txt.gz
Dewpoint
46 47 48 50 49 48 46 46 48 49 50 51 51 49 48 45 45 45 47 50 53 56 52 50 51 50 42 34 39 43 46 43 35 32 29 27 27 25 22 24 24 21 23 27 28 28 27
48 48 47 47 47 46 46 46 47 47 50 51 50 49 47 45 45 46 49 50 53 55 50 50 51 48 37 33 43 47 43 39 34 34 33 30 29 28 27 26 25 28 28 26 26 25 26
47 47 46 44 45 45 46 47 47 48 49 49 49 48 47 46 46 48 52 52 55 51 49 50 50 43 32 39 40 44 40 34 34 34 32 33 32 28 29 26 30 29 24 23 20 22 22
52 45 45 43 46 46 46 46 47 48 49 49 48 47 46 47 47 50 54 54 52 50 50 49 48 38 31 34 41 40 33 33 34 34 33 33 32 30 28 30 28 24 25 16 20 24 24
52 45 45 45 47 46 46 47 48 47 49 49 47 46 46 46 48 52 53 52 52 53 50 49 42 34 29 33 33 32 33 32 33 34 35 35 33 31 31 26 21 23 15 19 21 26 26
50 45 45 45 46 46 45 46 48 48 48 47 46 46 46 52 53 53 51 50 51 49 47 43 40 26 32 28 29 31 30 35 34 34 33 34 32 29 29 25 15 17 19 21 22 23 24
46 45 47 46 47 46 46 47 46 47 46 46 49 50 48 51 52 51 49 46 40 36 38 34 33 30 31 32 32 30 33 32 32 31 29 33 28 23 23 27 25 25 24 23 24 25 25
45 46 45 45 46 46 46 46 47 46 45 48 51 53 50 52 51 50 47 39 40 37 30 34 34 32 32 33 30 32 33 30 31 28 30 27 25 27 28 29 28 27 25 23 24 26 26
46 46 46 46 46 47 47 47 46 45 45 48 50 51 50 51 49 46 44 43 45 38 28 32 33 34 33 33 33 31 32 34 33 30 29 26 25 31 31 29 28 26 25 24 24 27 28
47 47 47 47 46 47 45 45 47 49 49 47 51 50 48 49 43 45 43 47 44 37 27 30 31 34 34 35 34 38 40 36 34 28 32 29 30 31 30 29 29 23 26 26 27 27 23
47 46 46 47 47 46 45 45 48 48 49 46 48 49 48 46 43 43 45 46 44 33 15 27 33 37 36 35 35 37 40 36 33 33 32 27 31 31 30 30 30 26 28 30 32 30 29
45 46 46 47 46 46 46 47 49 49 49 50 50 49 47 45 43 45 45 43 35 16 16 25 33 32 33 35 36 38 38 39 40 36 35 34 35 35 33 32 30 29 30 32 33 30 22
46 46 48 47 46 47 46 46 48 49 49 48 47 46 45 45 41 45 43 34 17 16 20 24 29 33 32 33 35 36 36 35 33 28 25 31 32 34 35 33 36 35 31 22 21 20 18
47 46 47 47 46 47 47 48 49 48 47 48 46 45 45 44 45 43 35 24 18 22 22 27 29 31 29 31 33 36 36 33 36 35 31 26 19 31 36 35 33 33 31 26 18 20 22
46 47 47 46 46 46 47 48 47 47 48 49 44 42 41 42 44 39 28 22 22 24 27 27 28 27 26 28 29 34 34 30 32 35 28 28 25 30 33 37 37 34 31 35 28 30 23
46 45 45 45 45 46 46 47 48 48 50 49 40 39 38 42 43 36 27 24 25 27 30 29 24 25 22 24 26 27 29 31 31 33 33 30 27 31 32 36 37 36 36 29 28 22 18
46 46 46 45 45 45 46 47 48 48 50 44 38 32 38 43 39 31 25 26 28 30 32 29 27 25 25 25 27 27 27 31 33 32 34 32 31 27 29 27 28 29 28 30 27 28 21
45 46 46 47 47 46 46 47 48 49 49 40 35 26 37 41 28 29 27 30 33 32 33 32 30 28 27 27 26 26 27 28 33 33 30 31 28 25 24 28 30 29 27 27 21 21 25
49 46 46 46 47 48 48 49 49 48 49 39 33 33 37 36 24 27 30 29 31 31 31 30 28 29 29 26 25 28 27 30 34 32 29 30 26 20 9 16 25 26 26 27 27 25 23
49 50 47 47 46 47 48 47 47 48 49 39 32 26 31 32 33 29 29 26 24 32 32 31 30 29 27 25 27 26 27 29 32 31 33 32 26 22 15 19 25 24 23 26 25 21 23
50 49 51 48 47 47 47 46 47 47 47 40 33 31 32 27 28 30 31 29 28 26 31 31 28 30 29 25 26 26 28 28 28 30 31 29 23 25 24 25 25 24 22 25 24 24 20
48 50 48 50 49 48 47 47 47 47 44 39 33 32 33 30 30 28 29 28 27 28 30 28 29 31 30 26 28 25 29 28 28 29 28 28 22 26 25 23 22 20 21 24 25 26 26
46 48 49 47 47 48 46 43 42 42 43 40 39 37 33 30 28 27 28 30 30 32 31 32 32 32 29 29 32 31 31 31 30 28 27 26 25 23 16 22 18 10 18 21 24 26 26
44 46 48 48 47 45 45 45 45 42 42 40 39 36 32 27 28 27 28 29 32 32 31 32 33 30 32 35 34 32 31 31 30 29 29 26 24 23 17 14 -9 7 24 23 23 24 28
43 44 46 48 49 47 46 46 46 44 43 39 38 36 33 28 29 28 28 28 32 32 32 33 34 34 35 33 28 22 20 23 24 28 27 27 24 19 12 9 7 12 21 21 21 14 25
44 43 44 46 47 48 48 47 46 45 43 35 36 38 35 30 26 29 29 29 28 30 30 32 35 36 34 31 25 18 10 16 14 15 28 27 25 20 17 7 -11 2 21 25 20 6 17
43 44 43 44 46 48 48 49 47 44 43 36 34 38 36 32 32 31 28 28 33 32 31 32 33 32 33 28 24 22 20 21 16 16 18 23 23 20 17 11 10 16 24 23 0 -10 23
44 44 44 43 46 47 47 49 49 46 43 37 36 38 36 33 32 33 33 31 34 34 31 32 30 30 31 26 26 24 23 21 22 21 19 16 15 16 19 15 0 25 24 15 10 26 28
45 44 44 44 46 48 49 48 49 49 45 41 39 37 38 34 31 35 34 35 35 35 34 35 31 33 32 30 29 27 24 23 21 16 21 15 19 15 19 14 19 26 24 24 26 27 28